Wetterdaten: Sonntag, 30.07.2017
Datum Zeit Temp. A. Pool Temp. Feuchte A. Luftdruck Regen Wind Richtung Richtung Sonnenschein ET UV Solar Taupunkt Windchill Windben Empfang
30.07.2017 00:00 17,8 C 21,7 C 88 % 1013,7 hPa 0,0 l/m 2,5 km/h (1 Bft) O-SO 113 0 min 0,000 mm 0,0 UV-I 0 W/m 15,8 C 17,8 C 3,2 km/h (1 Bft) 100,00 %
30.07.2017 00:02 17,8 C 21,7 C 88 % 1013,7 hPa 0,0 l/m 2,2 km/h (1 Bft) O-SO 113 0 min 0,000 mm 0,0 UV-I 0 W/m 15,8 C 17,8 C 3,2 km/h (1 Bft) 9,52 %
30.07.2017 00:04 17,7 C 21,7 C 87 % 1013,7 hPa 0,0 l/m 1,3 km/h (1 Bft) O-SO 113 0 min 0,000 mm 0,0 UV-I 0 W/m 15,5 C 17,7 C 3,2 km/h (1 Bft) 94,74 %
30.07.2017 00:06 17,6 C 21,7 C 87 % 1013,7 hPa 0,0 l/m 1,8 km/h (1 Bft) O-SO 113 0 min 0,000 mm 0,0 UV-I 0 W/m 15,4 C 17,6 C 3,2 km/h (1 Bft) 95,83 %
30.07.2017 00:08 17,4 C 21,7 C 87 % 1013,7 hPa 0,0 l/m 1,6 km/h (1 Bft) O-SO 113 0 min 0,000 mm 0,0 UV-I 0 W/m 15,2 C 17,4 C 3,2 km/h (1 Bft) 100,00 %
30.07.2017 00:10 17,3 C 21,7 C 87 % 1013,7 hPa 0,0 l/m 0,0 km/h (0 Bft) O-SO 113 0 min 0,000 mm 0,0 UV-I 0 W/m 15,1 C 17,3 C 1,6 km/h (1 Bft) 98,11 %
30.07.2017 00:12 17,2 C 21,7 C 88 % 1013,6 hPa 0,0 l/m 0,0 km/h (0 Bft) O-SO 113 0 min 0,000 mm 0,0 UV-I 0 W/m 15,2 C 17,2 C 0,0 km/h (0 Bft) 98,00 %
30.07.2017 00:14 17,2 C 21,7 C 88 % 1013,6 hPa 0,0 l/m 0,0 km/h (0 Bft) O-SO 113 0 min 0,000 mm 0,0 UV-I 0 W/m 15,2 C 17,2 C 0,0 km/h (0 Bft) 100,00 %
30.07.2017 00:16 17,2 C 21,7 C 89 % 1013,6 hPa 0,0 l/m 0,0 km/h (0 Bft) O-SO 113 0 min 0,000 mm 0,0 UV-I 0 W/m 15,4 C 17,2 C 0,0 km/h (0 Bft) 97,56 %
30.07.2017 00:18 17,3 C 21,7 C 89 % 1013,6 hPa 0,0 l/m 0,0 km/h (0 Bft) O-SO 113 0 min 0,000 mm 0,0 UV-I 0 W/m 15,5 C 17,3 C 0,0 km/h (0 Bft) 100,00 %
30.07.2017 00:20 17,3 C 21,7 C 89 % 1013,6 hPa 0,0 l/m 0,0 km/h (0 Bft) O-SO 113 0 min 0,000 mm 0,0 UV-I 0 W/m 15,5 C 17,3 C 0,0 km/h (0 Bft) 98,00 %
30.07.2017 00:22 17,4 C 21,7 C 89 % 1013,7 hPa 0,0 l/m 0,0 km/h (0 Bft) O-SO 113 0 min 0,000 mm 0,0 UV-I 0 W/m 15,6 C 17,4 C 0,0 km/h (0 Bft) 97,37 %
30.07.2017 00:24 17,4 C 21,7 C 89 % 1013,6 hPa 0,0 l/m 0,0 km/h (0 Bft) O-SO 113 0 min 0,000 mm 0,0 UV-I 0 W/m 15,6 C 17,4 C 0,0 km/h (0 Bft) 98,21 %
30.07.2017 00:26 17,3 C 21,7 C 88 % 1013,6 hPa 0,0 l/m 1,2 km/h (1 Bft) O-SO 113 0 min 0,000 mm 0,0 UV-I 0 W/m 15,3 C 17,3 C 3,2 km/h (1 Bft) 97,87 %
30.07.2017 00:28 17,2 C 21,7 C 89 % 1013,7 hPa 0,0 l/m 3,3 km/h (1 Bft) O-SO 113 0 min 0,000 mm 0,0 UV-I 0 W/m 15,4 C 17,2 C 4,8 km/h (1 Bft) 100,00 %
30.07.2017 00:30 17,2 C 21,7 C 89 % 1013,6 hPa 0,0 l/m 3,9 km/h (1 Bft) O-SO 113 0 min 0,000 mm 0,0 UV-I 0 W/m 15,4 C 17,2 C 4,8 km/h (1 Bft) 94,74 %
30.07.2017 00:32 17,1 C 21,7 C 89 % 1013,7 hPa 0,0 l/m 4,1 km/h (1 Bft) O-SO 113 0 min 0,000 mm 0,0 UV-I 0 W/m 15,3 C 17,1 C 4,8 km/h (1 Bft) 100,00 %
30.07.2017 00:34 17,0 C 21,7 C 89 % 1013,6 hPa 0,0 l/m 3,8 km/h (1 Bft) O-SO 113 0 min 0,000 mm 0,0 UV-I 0 W/m 15,2 C 17,0 C 4,8 km/h (1 Bft) 98,04 %
30.07.2017 00:36 16,9 C 21,7 C 89 % 1013,6 hPa 0,0 l/m 3,5 km/h (1 Bft) O-SO 113 0 min 0,000 mm 0,0 UV-I 0 W/m 15,1 C 16,9 C 4,8 km/h (1 Bft) 98,11 %
30.07.2017 00:38 16,9 C 21,7 C 89 % 1013,5 hPa 0,0 l/m 3,4 km/h (1 Bft) O-SO 113 0 min 0,000 mm 0,0 UV-I 0 W/m 15,1 C 16,9 C 4,8 km/h (1 Bft) 100,00 %
30.07.2017 00:40 16,9 C 21,7 C 90 % 1013,5 hPa 0,0 l/m 2,4 km/h (1 Bft) O-SO 113 0 min 0,000 mm 0,0 UV-I 0 W/m 15,2 C 16,9 C 3,2 km/h (1 Bft) 94,74 %
30.07.2017 00:42 16,9 C 21,7 C 90 % 1013,5 hPa 0,0 l/m 2,2 km/h (1 Bft) O-SO 113 0 min 0,000 mm 0,0 UV-I 0 W/m 15,2 C 16,9 C 3,2 km/h (1 Bft) 100,00 %
30.07.2017 00:44 16,9 C 21,7 C 90 % 1013,5 hPa 0,0 l/m 2,0 km/h (1 Bft) O-SO 113 0 min 0,000 mm 0,0 UV-I 0 W/m 15,2 C 16,9 C 3,2 km/h (1 Bft) 100,00 %
30.07.2017 00:46 16,8 C 21,7 C 90 % 1013,5 hPa 0,0 l/m 2,5 km/h (1 Bft) O-SO 113 0 min 0,000 mm 0,0 UV-I 0 W/m 15,1 C 16,8 C 3,2 km/h (1 Bft) 100,00 %
30.07.2017 00:48 16,8 C 21,7 C 90 % 1013,5 hPa 0,0 l/m 1,9 km/h (1 Bft) O-SO 113 0 min 0,000 mm 0,0 UV-I 0 W/m 15,1 C 16,8 C 3,2 km/h (1 Bft) 97,44 %
30.07.2017 00:50 16,8 C 21,7 C 90 % 1013,5 hPa 0,0 l/m 0,5 km/h (0 Bft) O-SO 113 0 min 0,000 mm 0,0 UV-I 0 W/m 15,1 C 16,8 C 1,6 km/h (1 Bft) 98,21 %
30.07.2017 00:52 16,7 C 21,7 C 90 % 1013,5 hPa 0,0 l/m 0,0 km/h (0 Bft) O-SO 113 0 min 0,000 mm 0,0 UV-I 0 W/m 15,0 C 16,7 C 0,0 km/h (0 Bft) 97,37 %
30.07.2017 00:54 16,7 C 21,7 C 90 % 1013,4 hPa 0,0 l/m 0,0 km/h (0 Bft) O-SO 113 0 min 0,000 mm 0,0 UV-I 0 W/m 15,0 C 16,7 C 0,0 km/h (0 Bft) 98,00 %
30.07.2017 00:56 16,7 C 21,7 C 91 % 1013,4 hPa 0,0 l/m 0,0 km/h (0 Bft) O-SO 113 0 min 0,000 mm 0,0 UV-I 0 W/m 15,2 C 16,7 C 0,0 km/h (0 Bft) 98,00 %
30.07.2017 00:58 16,7 C 21,7 C 91 % 1013,4 hPa 0,0 l/m 0,1 km/h (0 Bft) O-SO 113 0 min 0,000 mm 0,0 UV-I 0 W/m 15,2 C 16,7 C 1,6 km/h (1 Bft) 94,74 %
30.07.2017 01:00 16,7 C 21,7 C 91 % 1013,3 hPa 0,0 l/m 0,8 km/h (0 Bft) O-SO 113 0 min 0,000 mm 0,0 UV-I 0 W/m 15,2 C 16,7 C 3,2 km/h (1 Bft) 93,62 %
30.07.2017 01:02 16,7 C 21,7 C 91 % 1013,3 hPa 0,0 l/m 2,1 km/h (1 Bft) O-SO 113 0 min 0,000 mm 0,0 UV-I 0 W/m 15,2 C 16,7 C 3,2 km/h (1 Bft) 96,00 %
30.07.2017 01:04 16,7 C 21,7 C 91 % 1013,3 hPa 0,0 l/m 0,2 km/h (0 Bft) O-SO 113 0 min 0,000 mm 0,0 UV-I 0 W/m 15,2 C 16,7 C 1,6 km/h (1 Bft) 91,49 %
30.07.2017 01:06 16,8 C 21,7 C 91 % 1013,3 hPa 0,0 l/m 0,0 km/h (0 Bft) O-SO 113 0 min 0,000 mm 0,0 UV-I 0 W/m 15,3 C 16,8 C 0,0 km/h (0 Bft) 96,00 %
30.07.2017 01:08 16,8 C 21,7 C 91 % 1013,3 hPa 0,0 l/m 0,0 km/h (0 Bft) O-SO 113 0 min 0,000 mm 0,0 UV-I 0 W/m 15,3 C 16,8 C 0,0 km/h (0 Bft) 96,00 %
30.07.2017 01:10 16,7 C 21,7 C 91 % 1013,4 hPa 0,0 l/m 0,0 km/h (0 Bft) O-SO 113 0 min 0,000 mm 0,0 UV-I 0 W/m 15,2 C 16,7 C 0,0 km/h (0 Bft) 96,00 %
30.07.2017 01:12 16,6 C 21,7 C 91 % 1013,4 hPa 0,0 l/m 0,1 km/h (0 Bft) O-SO 113 0 min 0,000 mm 0,0 UV-I 0 W/m 15,1 C 16,6 C 1,6 km/h (1 Bft) 94,29 %
30.07.2017 01:14 16,6 C 21,7 C 91 % 1013,4 hPa 0,0 l/m 1,9 km/h (1 Bft) O-SO 113 0 min 0,000 mm 0,0 UV-I 0 W/m 15,1 C 16,6 C 3,2 km/h (1 Bft) 95,74 %
30.07.2017 01:16 16,5 C 21,7 C 91 % 1013,4 hPa 0,0 l/m 2,0 km/h (1 Bft) O-SO 113 0 min 0,000 mm 0,0 UV-I 0 W/m 15,0 C 16,5 C 3,2 km/h (1 Bft) 94,34 %
30.07.2017 01:18 16,4 C 21,7 C 91 % 1013,3 hPa 0,0 l/m 0,8 km/h (0 Bft) O-SO 113 0 min 0,000 mm 0,0 UV-I 0 W/m 14,9 C 16,4 C 1,6 km/h (1 Bft) 92,00 %
30.07.2017 01:20 16,4 C 21,7 C 91 % 1013,4 hPa 0,0 l/m 0,0 km/h (0 Bft) O-SO 113 0 min 0,000 mm 0,0 UV-I 0 W/m 14,9 C 16,4 C 0,0 km/h (0 Bft) 91,49 %
30.07.2017 01:22 16,3 C 21,7 C 91 % 1013,4 hPa 0,0 l/m 0,6 km/h (0 Bft) O-SO 113 0 min 0,000 mm 0,0 UV-I 0 W/m 14,8 C 16,3 C 3,2 km/h (1 Bft) 92,31 %
30.07.2017 01:24 16,3 C 21,7 C 92 % 1013,5 hPa 0,0 l/m 3,4 km/h (1 Bft) O-SO 113 0 min 0,000 mm 0,0 UV-I 0 W/m 15,0 C 16,3 C 4,8 km/h (1 Bft) 92,31 %
30.07.2017 01:26 16,3 C 21,7 C 92 % 1013,5 hPa 0,0 l/m 2,8 km/h (1 Bft) O-SO 113 0 min 0,000 mm 0,0 UV-I 0 W/m 15,0 C 16,3 C 3,2 km/h (1 Bft) 95,83 %
30.07.2017 01:28 16,4 C 21,7 C 92 % 1013,5 hPa 0,0 l/m 2,9 km/h (1 Bft) O-SO 113 0 min 0,000 mm 0,0 UV-I 0 W/m 15,1 C 16,4 C 4,8 km/h (1 Bft) 90,91 %
30.07.2017 01:30 16,3 C 21,7 C 92 % 1013,5 hPa 0,0 l/m 2,8 km/h (1 Bft) O-SO 113 0 min 0,000 mm 0,0 UV-I 0 W/m 15,0 C 16,3 C 4,8 km/h (1 Bft) 96,23 %
30.07.2017 01:32 16,3 C 21,7 C 92 % 1013,4 hPa 0,0 l/m 2,5 km/h (1 Bft) O-SO 113 0 min 0,000 mm 0,0 UV-I 0 W/m 15,0 C 16,3 C 3,2 km/h (1 Bft) 92,11 %
30.07.2017 01:34 16,3 C 21,7 C 92 % 1013,4 hPa 0,0 l/m 1,8 km/h (1 Bft) O-SO 113 0 min 0,000 mm 0,0 UV-I 0 W/m 15,0 C 16,3 C 3,2 km/h (1 Bft) 98,00 %
30.07.2017 01:36 16,1 C 21,7 C 92 % 1013,4 hPa 0,0 l/m 2,1 km/h (1 Bft) O-SO 113 0 min 0,000 mm 0,0 UV-I 0 W/m 14,8 C 16,1 C 4,8 km/h (1 Bft) 95,12 %
30.07.2017 01:38 16,0 C 21,7 C 92 % 1013,5 hPa 0,0 l/m 3,8 km/h (1 Bft) O-SO 113 0 min 0,000 mm 0,0 UV-I 0 W/m 14,7 C 16,0 C 4,8 km/h (1 Bft) 96,43 %
30.07.2017 01:40 16,0 C 21,7 C 92 % 1013,5 hPa 0,0 l/m 4,5 km/h (1 Bft) S-SO 160 0 min 0,000 mm 0,0 UV-I 0 W/m 14,7 C 16,0 C 8,0 km/h (2 Bft) 97,37 %
30.07.2017 01:42 16,1 C 21,7 C 92 % 1013,5 hPa 0,0 l/m 3,5 km/h (1 Bft) S-SO 160 0 min 0,000 mm 0,0 UV-I 0 W/m 14,8 C 16,1 C 6,4 km/h (2 Bft) 94,00 %
30.07.2017 01:44 16,1 C 21,7 C 92 % 1013,5 hPa 0,0 l/m 3,1 km/h (1 Bft) S-SO 160 0 min 0,000 mm 0,0 UV-I 0 W/m 14,8 C 16,1 C 3,2 km/h (1 Bft) 98,11 %
30.07.2017 01:46 16,1 C 21,7 C 93 % 1013,5 hPa 0,0 l/m 1,5 km/h (1 Bft) S-SO 160 0 min 0,000 mm 0,0 UV-I 0 W/m 15,0 C 16,1 C 3,2 km/h (1 Bft) 89,36 %
30.07.2017 01:48 16,1 C 21,7 C 93 % 1013,5 hPa 0,0 l/m 0,0 km/h (0 Bft) S-SO 160 0 min 0,000 mm 0,0 UV-I 0 W/m 15,0 C 16,1 C 0,0 km/h (0 Bft) 97,37 %
30.07.2017 01:50 16,1 C 21,7 C 93 % 1013,5 hPa 0,0 l/m 0,0 km/h (0 Bft) S-SO 160 0 min 0,000 mm 0,0 UV-I 0 W/m 15,0 C 16,1 C 0,0 km/h (0 Bft) 96,00 %
30.07.2017 01:52 16,2 C 21,7 C 93 % 1013,4 hPa 0,0 l/m 0,0 km/h (0 Bft) S-SO 160 0 min 0,000 mm 0,0 UV-I 0 W/m 15,1 C 16,2 C 0,0 km/h (0 Bft) 98,00 %
30.07.2017 01:54 16,2 C 21,7 C 93 % 1013,5 hPa 0,0 l/m 0,0 km/h (0 Bft) S-SO 160 0 min 0,000 mm 0,0 UV-I 0 W/m 15,1 C 16,2 C 0,0 km/h (0 Bft) 97,37 %
30.07.2017 01:56 16,3 C 21,7 C 93 % 1013,4 hPa 0,0 l/m 0,0 km/h (0 Bft) S-SO 160 0 min 0,000 mm 0,0 UV-I 0 W/m 15,2 C 16,3 C 0,0 km/h (0 Bft) 96,00 %
30.07.2017 01:58 16,3 C 21,7 C 92 % 1013,4 hPa 0,0 l/m 0,0 km/h (0 Bft) S-SO 160 0 min 0,000 mm 0,0 UV-I 0 W/m 15,0 C 16,3 C 0,0 km/h (0 Bft) 97,87 %
30.07.2017 02:00 16,3 C 21,7 C 92 % 1013,4 hPa 0,0 l/m 0,0 km/h (0 Bft) S-SO 160 0 min 0,000 mm 0,0 UV-I 0 W/m 15,0 C 16,3 C 0,0 km/h (0 Bft) 96,00 %
30.07.2017 02:02 16,3 C 21,7 C 92 % 1013,4 hPa 0,0 l/m 0,0 km/h (0 Bft) S-SO 160 0 min 0,000 mm 0,0 UV-I 0 W/m 15,0 C 16,3 C 0,0 km/h (0 Bft) 97,87 %
30.07.2017 02:04 16,3 C 21,7 C 92 % 1013,4 hPa 0,0 l/m 0,0 km/h (0 Bft) S-SO 160 0 min 0,000 mm 0,0 UV-I 0 W/m 15,0 C 16,3 C 0,0 km/h (0 Bft) 93,75 %
30.07.2017 02:06 16,3 C 21,7 C 92 % 1013,4 hPa 0,0 l/m 0,0 km/h (0 Bft) S-SO 160 0 min 0,000 mm 0,0 UV-I 0 W/m 15,0 C 16,3 C 0,0 km/h (0 Bft) 100,00 %
30.07.2017 02:08 16,3 C 21,7 C 92 % 1013,5 hPa 0,0 l/m 1,8 km/h (1 Bft) S-SO 160 0 min 0,000 mm 0,0 UV-I 0 W/m 15,0 C 16,3 C 3,2 km/h (1 Bft) 97,37 %
30.07.2017 02:10 16,2 C 21,7 C 92 % 1013,5 hPa 0,0 l/m 2,5 km/h (1 Bft) S-SO 160 0 min 0,000 mm 0,0 UV-I 0 W/m 14,9 C 16,2 C 3,2 km/h (1 Bft) 97,87 %
30.07.2017 02:12 16,1 C 21,7 C 92 % 1013,5 hPa 0,0 l/m 3,3 km/h (1 Bft) S-SO 160 0 min 0,000 mm 0,0 UV-I 0 W/m 14,8 C 16,1 C 6,4 km/h (2 Bft) 97,87 %
30.07.2017 02:14 16,1 C 21,7 C 92 % 1013,5 hPa 0,0 l/m 2,8 km/h (1 Bft) S-SO 160 0 min 0,000 mm 0,0 UV-I 0 W/m 14,8 C 16,1 C 6,4 km/h (2 Bft) 95,74 %
30.07.2017 02:16 16,1 C 21,7 C 92 % 1013,4 hPa 0,0 l/m 0,7 km/h (0 Bft) S-SO 160 0 min 0,000 mm 0,0 UV-I 0 W/m 14,8 C 16,1 C 3,2 km/h (1 Bft) 100,00 %
30.07.2017 02:18 15,9 C 21,7 C 92 % 1013,4 hPa 0,0 l/m 0,1 km/h (0 Bft) S-SO 160 0 min 0,000 mm 0,0 UV-I 0 W/m 14,6 C 15,9 C 1,6 km/h (1 Bft) 97,87 %
30.07.2017 02:20 15,8 C 21,7 C 92 % 1013,4 hPa 0,0 l/m 1,2 km/h (1 Bft) S-SO 160 0 min 0,000 mm 0,0 UV-I 0 W/m 14,5 C 15,8 C 3,2 km/h (1 Bft) 97,14 %
30.07.2017 02:22 15,8 C 21,7 C 93 % 1013,4 hPa 0,0 l/m 0,9 km/h (0 Bft) S-SO 160 0 min 0,000 mm 0,0 UV-I 0 W/m 14,7 C 15,8 C 3,2 km/h (1 Bft) 98,25 %
30.07.2017 02:24 15,9 C 21,7 C 93 % 1013,4 hPa 0,0 l/m 0,8 km/h (0 Bft) S-SO 160 0 min 0,000 mm 0,0 UV-I 0 W/m 14,8 C 15,9 C 1,6 km/h (1 Bft) 100,00 %
30.07.2017 02:26 15,9 C 21,7 C 93 % 1013,4 hPa 0,0 l/m 1,3 km/h (1 Bft) S-SO 160 0 min 0,000 mm 0,0 UV-I 0 W/m 14,8 C 15,9 C 1,6 km/h (1 Bft) 98,11 %
30.07.2017 02:28 15,9 C 21,7 C 93 % 1013,3 hPa 0,0 l/m 1,5 km/h (1 Bft) S-SO 160 0 min 0,000 mm 0,0 UV-I 0 W/m 14,8 C 15,9 C 1,6 km/h (1 Bft) 97,37 %
30.07.2017 02:30 15,9 C 21,7 C 93 % 1013,3 hPa 0,0 l/m 0,6 km/h (0 Bft) S-SO 160 0 min 0,000 mm 0,0 UV-I 0 W/m 14,8 C 15,9 C 1,6 km/h (1 Bft) 100,00 %
30.07.2017 02:32 15,9 C 21,7 C 93 % 1013,3 hPa 0,0 l/m 0,0 km/h (0 Bft) S-SO 160 0 min 0,000 mm 0,0 UV-I 0 W/m 14,8 C 15,9 C 0,0 km/h (0 Bft) 97,87 %
30.07.2017 02:34 15,9 C 21,7 C 93 % 1013,2 hPa 0,0 l/m 0,0 km/h (0 Bft) S-SO 160 0 min 0,000 mm 0,0 UV-I 0 W/m 14,8 C 15,9 C 1,6 km/h (1 Bft) 100,00 %
30.07.2017 02:36 15,8 C 21,7 C 92 % 1013,2 hPa 0,0 l/m 0,2 km/h (0 Bft) S-SO 160 0 min 0,000 mm 0,0 UV-I 0 W/m 14,5 C 15,8 C 1,6 km/h (1 Bft) 95,74 %
30.07.2017 02:38 15,7 C 21,7 C 92 % 1013,3 hPa 0,0 l/m 0,8 km/h (0 Bft) S-SO 160 0 min 0,000 mm 0,0 UV-I 0 W/m 14,4 C 15,7 C 1,6 km/h (1 Bft) 97,87 %
30.07.2017 02:40 15,7 C 21,7 C 92 % 1013,3 hPa 0,0 l/m 0,2 km/h (0 Bft) S-SO 160 0 min 0,000 mm 0,0 UV-I 0 W/m 14,4 C 15,7 C 1,6 km/h (1 Bft) 100,00 %
30.07.2017 02:42 15,7 C 21,7 C 93 % 1013,3 hPa 0,0 l/m 0,0 km/h (0 Bft) S-SO 160 0 min 0,000 mm 0,0 UV-I 0 W/m 14,6 C 15,7 C 1,6 km/h (1 Bft) 100,00 %
30.07.2017 02:44 15,7 C 21,7 C 93 % 1013,3 hPa 0,0 l/m 0,1 km/h (0 Bft) S-SO 160 0 min 0,000 mm 0,0 UV-I 0 W/m 14,6 C 15,7 C 1,6 km/h (1 Bft) 97,87 %
30.07.2017 02:46 15,7 C 21,7 C 92 % 1013,3 hPa 0,0 l/m 0,8 km/h (0 Bft) S-SO 160 0 min 0,000 mm 0,0 UV-I 0 W/m 14,4 C 15,7 C 1,6 km/h (1 Bft) 98,00 %
30.07.2017 02:48 15,7 C 21,7 C 93 % 1013,2 hPa 0,0 l/m 1,8 km/h (1 Bft) S-SO 160 0 min 0,000 mm 0,0 UV-I 0 W/m 14,6 C 15,7 C 3,2 km/h (1 Bft) 100,00 %
30.07.2017 02:50 15,7 C 21,7 C 92 % 1013,3 hPa 0,0 l/m 2,2 km/h (1 Bft) S-SO 160 0 min 0,000 mm 0,0 UV-I 0 W/m 14,4 C 15,7 C 3,2 km/h (1 Bft) 96,61 %
30.07.2017 02:52 15,7 C 21,7 C 92 % 1013,2 hPa 0,0 l/m 2,7 km/h (1 Bft) S-SO 160 0 min 0,000 mm 0,0 UV-I 0 W/m 14,4 C 15,7 C 3,2 km/h (1 Bft) 100,00 %
30.07.2017 02:54 15,7 C 21,7 C 93 % 1013,3 hPa 0,0 l/m 2,5 km/h (1 Bft) S-SO 160 0 min 0,000 mm 0,0 UV-I 0 W/m 14,6 C 15,7 C 3,2 km/h (1 Bft) 98,00 %
30.07.2017 02:56 15,7 C 21,7 C 93 % 1013,2 hPa 0,0 l/m 1,7 km/h (1 Bft) S-SO 160 0 min 0,000 mm 0,0 UV-I 0 W/m 14,6 C 15,7 C 3,2 km/h (1 Bft) 100,00 %
30.07.2017 02:58 15,7 C 21,7 C 93 % 1013,2 hPa 0,0 l/m 0,6 km/h (0 Bft) S-SO 160 0 min 0,000 mm 0,0 UV-I 0 W/m 14,6 C 15,7 C 1,6 km/h (1 Bft) 98,11 %
30.07.2017 03:00 15,7 C 21,7 C 92 % 1013,2 hPa 0,0 l/m 0,0 km/h (0 Bft) S-SO 160 0 min 0,000 mm 0,0 UV-I 0 W/m 14,4 C 15,7 C 0,0 km/h (0 Bft) 98,04 %
30.07.2017 03:02 15,6 C 21,7 C 93 % 1013,1 hPa 0,0 l/m 1,5 km/h (1 Bft) S-SO 160 0 min 0,000 mm 0,0 UV-I 0 W/m 14,5 C 15,6 C 3,2 km/h (1 Bft) 98,00 %
30.07.2017 03:04 15,7 C 21,7 C 93 % 1013,1 hPa 0,0 l/m 1,6 km/h (1 Bft) S-SO 160 0 min 0,000 mm 0,0 UV-I 0 W/m 14,6 C 15,7 C 3,2 km/h (1 Bft) 94,74 %
30.07.2017 03:06 15,7 C 21,7 C 93 % 1013,2 hPa 0,0 l/m 1,7 km/h (1 Bft) S-SO 160 0 min 0,000 mm 0,0 UV-I 0 W/m 14,6 C 15,7 C 3,2 km/h (1 Bft) 97,87 %
30.07.2017 03:08 15,7 C 21,7 C 92 % 1013,2 hPa 0,0 l/m 2,3 km/h (1 Bft) S-SO 160 0 min 0,000 mm 0,0 UV-I 0 W/m 14,4 C 15,7 C 3,2 km/h (1 Bft) 94,34 %
30.07.2017 03:10 15,6 C 21,7 C 93 % 1013,2 hPa 0,0 l/m 2,8 km/h (1 Bft) S-SO 160 0 min 0,000 mm 0,0 UV-I 0 W/m 14,5 C 15,6 C 3,2 km/h (1 Bft) 97,37 %
30.07.2017 03:12 15,6 C 21,7 C 93 % 1013,2 hPa 0,0 l/m 1,6 km/h (1 Bft) S-SO 160 0 min 0,000 mm 0,0 UV-I 0 W/m 14,5 C 15,6 C 3,2 km/h (1 Bft) 94,00 %
30.07.2017 03:14 15,6 C 21,7 C 92 % 1013,2 hPa 0,0 l/m 0,0 km/h (0 Bft) S-SO 160 0 min 0,000 mm 0,0 UV-I 0 W/m 14,3 C 15,6 C 1,6 km/h (1 Bft) 96,23 %
30.07.2017 03:16 15,5 C 21,7 C 92 % 1013,1 hPa 0,0 l/m 0,1 km/h (0 Bft) S-SO 160 0 min 0,000 mm 0,0 UV-I 0 W/m 14,2 C 15,5 C 1,6 km/h (1 Bft) 95,74 %
30.07.2017 03:18 15,5 C 21,7 C 93 % 1013,1 hPa 0,0 l/m 0,2 km/h (0 Bft) S-SO 160 0 min 0,000 mm 0,0 UV-I 0 W/m 14,4 C 15,5 C 1,6 km/h (1 Bft) 97,22 %
30.07.2017 03:20 15,6 C 21,7 C 93 % 1013,1 hPa 0,0 l/m 1,6 km/h (1 Bft) S-SO 160 0 min 0,000 mm 0,0 UV-I 0 W/m 14,5 C 15,6 C 3,2 km/h (1 Bft) 96,55 %
30.07.2017 03:22 15,6 C 21,7 C 93 % 1013,1 hPa 0,0 l/m 1,9 km/h (1 Bft) S-SO 160 0 min 0,000 mm 0,0 UV-I 0 W/m 14,5 C 15,6 C 6,4 km/h (2 Bft) 95,74 %
30.07.2017 03:24 15,7 C 21,7 C 93 % 1013,1 hPa 0,0 l/m 2,9 km/h (1 Bft) S-SO 160 0 min 0,000 mm 0,0 UV-I 0 W/m 14,6 C 15,7 C 3,2 km/h (1 Bft) 94,87 %
30.07.2017 03:26 15,8 C 21,7 C 93 % 1013,0 hPa 0,0 l/m 1,9 km/h (1 Bft) S-SO 160 0 min 0,000 mm 0,0 UV-I 0 W/m 14,7 C 15,8 C 3,2 km/h (1 Bft) 95,74 %
30.07.2017 03:28 15,8 C 21,7 C 93 % 1013,0 hPa 0,0 l/m 0,0 km/h (0 Bft) S-SO 160 0 min 0,000 mm 0,0 UV-I 0 W/m 14,7 C 15,8 C 1,6 km/h (1 Bft) 94,00 %
30.07.2017 03:30 15,7 C 21,7 C 93 % 1013,1 hPa 0,0 l/m 0,0 km/h (0 Bft) S-SO 160 0 min 0,000 mm 0,0 UV-I 0 W/m 14,6 C 15,7 C 0,0 km/h (0 Bft) 94,00 %
30.07.2017 03:32 15,7 C 21,7 C 93 % 1013,0 hPa 0,0 l/m 0,1 km/h (0 Bft) S-SO 160 0 min 0,000 mm 0,0 UV-I 0 W/m 14,6 C 15,7 C 1,6 km/h (1 Bft) 98,00 %
30.07.2017 03:34 15,6 C 21,7 C 93 % 1013,0 hPa 0,0 l/m 0,2 km/h (0 Bft) S-SO 160 0 min 0,000 mm 0,0 UV-I 0 W/m 14,5 C 15,6 C 1,6 km/h (1 Bft) 95,12 %
30.07.2017 03:36 15,6 C 21,7 C 93 % 1013,0 hPa 0,0 l/m 0,0 km/h (0 Bft) S-SO 160 0 min 0,000 mm 0,0 UV-I 0 W/m 14,5 C 15,6 C 0,0 km/h (0 Bft) 96,00 %
30.07.2017 03:38 15,6 C 21,7 C 93 % 1012,9 hPa 0,0 l/m 0,1 km/h (0 Bft) S-SO 160 0 min 0,000 mm 0,0 UV-I 0 W/m 14,5 C 15,6 C 1,6 km/h (1 Bft) 97,87 %
30.07.2017 03:40 15,6 C 21,7 C 92 % 1012,9 hPa 0,0 l/m 0,0 km/h (0 Bft) S-SO 160 0 min 0,000 mm 0,0 UV-I 0 W/m 14,3 C 15,6 C 0,0 km/h (0 Bft) 100,00 %
30.07.2017 03:42 15,5 C 21,7 C 93 % 1012,9 hPa 0,0 l/m 0,0 km/h (0 Bft) S-SO 160 0 min 0,000 mm 0,0 UV-I 0 W/m 14,4 C 15,5 C 1,6 km/h (1 Bft) 100,00 %
30.07.2017 03:44 15,4 C 21,7 C 93 % 1012,8 hPa 0,0 l/m 0,0 km/h (0 Bft) S-SO 160 0 min 0,000 mm 0,0 UV-I 0 W/m 14,3 C 15,4 C 0,0 km/h (0 Bft) 100,00 %
30.07.2017 03:46 15,4 C 21,7 C 93 % 1012,8 hPa 0,0 l/m 0,0 km/h (0 Bft) S-SO 160 0 min 0,000 mm 0,0 UV-I 0 W/m 14,3 C 15,4 C 0,0 km/h (0 Bft) 100,00 %
30.07.2017 03:48 15,4 C 21,7 C 93 % 1012,8 hPa 0,0 l/m 0,0 km/h (0 Bft) S-SO 160 0 min 0,000 mm 0,0 UV-I 0 W/m 14,3 C 15,4 C 1,6 km/h (1 Bft) 100,00 %
30.07.2017 03:50 15,4 C 21,7 C 93 % 1012,8 hPa 0,0 l/m 0,2 km/h (0 Bft) S-SO 160 0 min 0,000 mm 0,0 UV-I 0 W/m 14,3 C 15,4 C 1,6 km/h (1 Bft) 100,00 %
30.07.2017 03:52 15,4 C 21,7 C 93 % 1012,8 hPa 0,0 l/m 0,2 km/h (0 Bft) S-SO 160 0 min 0,000 mm 0,0 UV-I 0 W/m 14,3 C 15,4 C 1,6 km/h (1 Bft) 97,56 %
30.07.2017 03:54 15,4 C 21,7 C 93 % 1012,8 hPa 0,0 l/m 0,6 km/h (0 Bft) S-SO 160 0 min 0,000 mm 0,0 UV-I 0 W/m 14,3 C 15,4 C 1,6 km/h (1 Bft) 100,00 %
30.07.2017 03:56 15,4 C 21,7 C 93 % 1012,8 hPa 0,0 l/m 1,9 km/h (1 Bft) S-SO 160 0 min 0,000 mm 0,0 UV-I 0 W/m 14,3 C 15,4 C 3,2 km/h (1 Bft) 97,44 %
30.07.2017 03:58 15,4 C 21,7 C 93 % 1012,8 hPa 0,0 l/m 1,5 km/h (1 Bft) S-SO 160 0 min 0,000 mm 0,0 UV-I 0 W/m 14,3 C 15,4 C 3,2 km/h (1 Bft) 100,00 %
30.07.2017 04:00 15,4 C 21,1 C 93 % 1012,8 hPa 0,0 l/m 1,9 km/h (1 Bft) S-SO 160 0 min 0,000 mm 0,0 UV-I 0 W/m 14,3 C 15,4 C 3,2 km/h (1 Bft) 97,62 %
30.07.2017 04:02 15,3 C 21,1 C 93 % 1012,9 hPa 0,0 l/m 2,0 km/h (1 Bft) S-SO 160 0 min 0,000 mm 0,0 UV-I 0 W/m 14,2 C 15,3 C 3,2 km/h (1 Bft) 100,00 %
30.07.2017 04:04 15,3 C 21,1 C 93 % 1012,8 hPa 0,0 l/m 1,2 km/h (1 Bft) S-SO 160 0 min 0,000 mm 0,0 UV-I 0 W/m 14,2 C 15,3 C 3,2 km/h (1 Bft) 98,00 %
30.07.2017 04:06 15,2 C 21,1 C 93 % 1012,9 hPa 0,0 l/m 0,0 km/h (0 Bft) S-SO 160 0 min 0,000 mm 0,0 UV-I 0 W/m 14,1 C 15,2 C 0,0 km/h (0 Bft) 97,87 %
30.07.2017 04:08 15,2 C 21,1 C 93 % 1012,8 hPa 0,0 l/m 0,0 km/h (0 Bft) S-SO 160 0 min 0,000 mm 0,0 UV-I 0 W/m 14,1 C 15,2 C 1,6 km/h (1 Bft) 100,00 %
30.07.2017 04:10 15,1 C 21,1 C 93 % 1012,8 hPa 0,0 l/m 0,4 km/h (0 Bft) S-SO 160 0 min 0,000 mm 0,0 UV-I 0 W/m 14,0 C 15,1 C 1,6 km/h (1 Bft) 97,87 %
30.07.2017 04:12 15,1 C 21,1 C 93 % 1012,7 hPa 0,0 l/m 0,4 km/h (0 Bft) S-SO 160 0 min 0,000 mm 0,0 UV-I 0 W/m 14,0 C 15,1 C 1,6 km/h (1 Bft) 97,87 %
30.07.2017 04:14 15,2 C 21,1 C 94 % 1012,6 hPa 0,0 l/m 0,2 km/h (0 Bft) S-SO 160 0 min 0,000 mm 0,0 UV-I 0 W/m 14,2 C 15,2 C 1,6 km/h (1 Bft) 98,11 %
30.07.2017 04:16 15,2 C 21,1 C 94 % 1012,6 hPa 0,0 l/m 0,0 km/h (0 Bft) S-SO 160 0 min 0,000 mm 0,0 UV-I 0 W/m 14,2 C 15,2 C 0,0 km/h (0 Bft) 98,00 %
30.07.2017 04:18 15,2 C 21,1 C 94 % 1012,7 hPa 0,0 l/m 0,0 km/h (0 Bft) S-SO 160 0 min 0,000 mm 0,0 UV-I 0 W/m 14,2 C 15,2 C 0,0 km/h (0 Bft) 100,00 %
30.07.2017 04:20 15,2 C 21,1 C 94 % 1012,7 hPa 0,0 l/m 0,0 km/h (0 Bft) S-SO 160 0 min 0,000 mm 0,0 UV-I 0 W/m 14,2 C 15,2 C 0,0 km/h (0 Bft) 97,87 %
30.07.2017 04:22 15,2 C 21,1 C 94 % 1012,8 hPa 0,0 l/m 0,0 km/h (0 Bft) S-SO 160 0 min 0,000 mm 0,0 UV-I 0 W/m 14,2 C 15,2 C 0,0 km/h (0 Bft) 100,00 %
30.07.2017 04:24 15,2 C 21,1 C 94 % 1012,8 hPa 0,0 l/m 0,3 km/h (0 Bft) S-SO 160 0 min 0,000 mm 0,0 UV-I 0 W/m 14,2 C 15,2 C 1,6 km/h (1 Bft) 97,87 %
30.07.2017 04:26 15,1 C 21,1 C 94 % 1012,9 hPa 0,0 l/m 1,6 km/h (1 Bft) S-SO 160 0 min 0,000 mm 0,0 UV-I 0 W/m 14,1 C 15,1 C 3,2 km/h (1 Bft) 96,00 %
30.07.2017 04:28 15,1 C 21,1 C 94 % 1012,9 hPa 0,0 l/m 2,4 km/h (1 Bft) S-SO 160 0 min 0,000 mm 0,0 UV-I 0 W/m 14,1 C 15,1 C 3,2 km/h (1 Bft) 100,00 %
30.07.2017 04:30 15,1 C 21,1 C 94 % 1012,9 hPa 0,0 l/m 3,7 km/h (1 Bft) S 181 0 min 0,000 mm 0,0 UV-I 0 W/m 14,1 C 15,1 C 6,4 km/h (2 Bft) 100,00 %
30.07.2017 04:32 15,1 C 21,1 C 94 % 1012,9 hPa 0,0 l/m 4,1 km/h (1 Bft) S 183 0 min 0,000 mm 0,0 UV-I 0 W/m 14,1 C 15,1 C 6,4 km/h (2 Bft) 100,00 %
30.07.2017 04:34 15,1 C 21,1 C 94 % 1012,9 hPa 0,0 l/m 1,7 km/h (1 Bft) S 183 0 min 0,000 mm 0,0 UV-I 0 W/m 14,1 C 15,1 C 3,2 km/h (1 Bft) 98,08 %
30.07.2017 04:36 15,1 C 21,1 C 94 % 1012,9 hPa 0,0 l/m 1,0 km/h (0 Bft) S 183 0 min 0,000 mm 0,0 UV-I 0 W/m 14,1 C 15,1 C 1,6 km/h (1 Bft) 100,00 %
30.07.2017 04:38 15,1 C 21,1 C 94 % 1012,9 hPa 0,0 l/m 0,9 km/h (0 Bft) S 183 0 min 0,000 mm 0,0 UV-I 0 W/m 14,1 C 15,1 C 3,2 km/h (1 Bft) 100,00 %
30.07.2017 04:40 15,1 C 21,1 C 94 % 1012,9 hPa 0,0 l/m 0,5 km/h (0 Bft) S 183 0 min 0,000 mm 0,0 UV-I 0 W/m 14,1 C 15,1 C 1,6 km/h (1 Bft) 96,36 %
30.07.2017 04:42 15,1 C 21,1 C 94 % 1013,0 hPa 0,0 l/m 2,0 km/h (1 Bft) S 183 0 min 0,000 mm 0,0 UV-I 0 W/m 14,1 C 15,1 C 6,4 km/h (2 Bft) 94,87 %
30.07.2017 04:44 15,1 C 21,1 C 94 % 1012,9 hPa 0,0 l/m 2,7 km/h (1 Bft) S 183 0 min 0,000 mm 0,0 UV-I 0 W/m 14,1 C 15,1 C 4,8 km/h (1 Bft) 98,00 %
30.07.2017 04:46 15,2 C 21,1 C 94 % 1013,0 hPa 0,0 l/m 2,0 km/h (1 Bft) S 183 0 min 0,000 mm 0,0 UV-I 0 W/m 14,2 C 15,2 C 3,2 km/h (1 Bft) 95,45 %
30.07.2017 04:48 15,2 C 21,1 C 94 % 1013,0 hPa 0,0 l/m 2,6 km/h (1 Bft) S 183 0 min 0,000 mm 0,0 UV-I 0 W/m 14,2 C 15,2 C 4,8 km/h (1 Bft) 98,11 %
30.07.2017 04:50 15,2 C 21,1 C 94 % 1012,9 hPa 0,0 l/m 2,1 km/h (1 Bft) S 183 0 min 0,000 mm 0,0 UV-I 0 W/m 14,2 C 15,2 C 3,2 km/h (1 Bft) 97,87 %
30.07.2017 04:52 15,2 C 21,1 C 94 % 1012,9 hPa 0,0 l/m 1,5 km/h (1 Bft) S 183 0 min 0,000 mm 0,0 UV-I 0 W/m 14,2 C 15,2 C 3,2 km/h (1 Bft) 94,00 %
30.07.2017 04:54 15,1 C 21,1 C 94 % 1012,9 hPa 0,0 l/m 1,1 km/h (1 Bft) S 183 0 min 0,000 mm 0,0 UV-I 0 W/m 14,1 C 15,1 C 3,2 km/h (1 Bft) 97,56 %
30.07.2017 04:56 15,2 C 21,1 C 94 % 1012,9 hPa 0,0 l/m 0,0 km/h (0 Bft) S 183 0 min 0,000 mm 0,0 UV-I 0 W/m 14,2 C 15,2 C 1,6 km/h (1 Bft) 94,00 %
30.07.2017 04:58 15,2 C 21,1 C 94 % 1012,9 hPa 0,0 l/m 0,2 km/h (0 Bft) S 183 0 min 0,000 mm 0,0 UV-I 0 W/m 14,2 C 15,2 C 1,6 km/h (1 Bft) 97,37 %
30.07.2017 05:00 15,2 C 21,1 C 94 % 1012,9 hPa 0,0 l/m 0,0 km/h (0 Bft) S 183 0 min 0,000 mm 0,0 UV-I 0 W/m 14,2 C 15,2 C 0,0 km/h (0 Bft) 96,43 %
30.07.2017 05:02 15,2 C 21,1 C 95 % 1012,9 hPa 0,0 l/m 0,1 km/h (0 Bft) S 183 0 min 0,000 mm 0,0 UV-I 0 W/m 14,4 C 15,2 C 1,6 km/h (1 Bft) 93,62 %
30.07.2017 05:04 15,3 C 21,1 C 94 % 1012,9 hPa 0,0 l/m 0,0 km/h (0 Bft) S 183 0 min 0,000 mm 0,0 UV-I 0 W/m 14,3 C 15,3 C 1,6 km/h (1 Bft) 97,37 %
30.07.2017 05:06 15,3 C 21,1 C 94 % 1012,8 hPa 0,0 l/m 0,0 km/h (0 Bft) S 183 0 min 0,000 mm 0,0 UV-I 0 W/m 14,3 C 15,3 C 0,0 km/h (0 Bft) 94,00 %
30.07.2017 05:08 15,3 C 21,1 C 94 % 1012,8 hPa 0,0 l/m 0,0 km/h (0 Bft) S 183 0 min 0,000 mm 0,0 UV-I 0 W/m 14,3 C 15,3 C 0,0 km/h (0 Bft) 90,57 %
30.07.2017 05:10 15,3 C 21,1 C 94 % 1012,8 hPa 0,0 l/m 0,0 km/h (0 Bft) S 183 0 min 0,000 mm 0,0 UV-I 0 W/m 14,3 C 15,3 C 0,0 km/h (0 Bft) 95,74 %
30.07.2017 05:12 15,3 C 21,1 C 94 % 1012,8 hPa 0,0 l/m 0,0 km/h (0 Bft) S 183 0 min 0,000 mm 0,0 UV-I 0 W/m 14,3 C 15,3 C 0,0 km/h (0 Bft) 92,68 %
30.07.2017 05:14 15,2 C 21,1 C 94 % 1012,8 hPa 0,0 l/m 0,0 km/h (0 Bft) S 183 0 min 0,000 mm 0,0 UV-I 0 W/m 14,2 C 15,2 C 1,6 km/h (1 Bft) 92,45 %
30.07.2017 05:16 15,2 C 21,1 C 94 % 1012,8 hPa 0,0 l/m 0,0 km/h (0 Bft) S 183 0 min 0,000 mm 0,0 UV-I 0 W/m 14,2 C 15,2 C 0,0 km/h (0 Bft) 95,74 %
30.07.2017 05:18 15,1 C 21,1 C 94 % 1012,8 hPa 0,0 l/m 0,0 km/h (0 Bft) S 183 0 min 0,000 mm 0,0 UV-I 3 W/m 14,1 C 15,1 C 0,0 km/h (0 Bft) 91,67 %
30.07.2017 05:20 15,0 C 21,1 C 94 % 1012,8 hPa 0,0 l/m 0,0 km/h (0 Bft) S 183 0 min 0,000 mm 0,0 UV-I 5 W/m 14,0 C 15,0 C 0,0 km/h (0 Bft) 96,43 %
30.07.2017 05:22 14,9 C 21,1 C 94 % 1012,7 hPa 0,0 l/m 0,0 km/h (0 Bft) S 183 0 min 0,000 mm 0,0 UV-I 5 W/m 13,9 C 14,9 C 0,0 km/h (0 Bft) 93,62 %
30.07.2017 05:24 14,9 C 21,1 C 94 % 1012,7 hPa 0,0 l/m 1,0 km/h (0 Bft) S 183 0 min 0,000 mm 0,0 UV-I 7 W/m 13,9 C 14,9 C 3,2 km/h (1 Bft) 94,74 %
30.07.2017 05:26 14,9 C 21,1 C 94 % 1012,7 hPa 0,0 l/m 1,5 km/h (1 Bft) S 183 0 min 0,000 mm 0,0 UV-I 7 W/m 13,9 C 14,9 C 3,2 km/h (1 Bft) 92,00 %
30.07.2017 05:28 14,9 C 21,1 C 94 % 1012,7 hPa 0,0 l/m 2,6 km/h (1 Bft) S 183 0 min 0,000 mm 0,0 UV-I 8 W/m 13,9 C 14,9 C 3,2 km/h (1 Bft) 94,34 %
30.07.2017 05:30 14,9 C 21,1 C 94 % 1012,6 hPa 0,0 l/m 2,3 km/h (1 Bft) S 183 0 min 0,000 mm 0,0 UV-I 9 W/m 13,9 C 14,9 C 3,2 km/h (1 Bft) 97,37 %
30.07.2017 05:32 14,9 C 21,1 C 94 % 1012,6 hPa 0,0 l/m 1,5 km/h (1 Bft) S 183 0 min 0,000 mm 0,0 UV-I 9 W/m 13,9 C 14,9 C 3,2 km/h (1 Bft) 92,11 %
30.07.2017 05:34 14,8 C 21,1 C 94 % 1012,6 hPa 0,0 l/m 0,4 km/h (0 Bft) S 183 0 min 0,000 mm 0,0 UV-I 10 W/m 13,8 C 14,8 C 1,6 km/h (1 Bft) 96,92 %
30.07.2017 05:36 14,8 C 21,1 C 94 % 1012,6 hPa 0,0 l/m 2,4 km/h (1 Bft) S 183 0 min 0,000 mm 0,0 UV-I 11 W/m 13,8 C 14,8 C 3,2 km/h (1 Bft) 93,62 %
30.07.2017 05:38 14,8 C 21,1 C 94 % 1012,6 hPa 0,0 l/m 1,1 km/h (1 Bft) S 183 0 min 0,000 mm 0,0 UV-I 11 W/m 13,8 C 14,8 C 3,2 km/h (1 Bft) 100,00 %
30.07.2017 05:40 14,8 C 21,1 C 94 % 1012,6 hPa 0,0 l/m 1,8 km/h (1 Bft) S 183 0 min 0,000 mm 0,0 UV-I 11 W/m 13,8 C 14,8 C 3,2 km/h (1 Bft) 98,00 %
30.07.2017 05:42 14,8 C 21,1 C 94 % 1012,6 hPa 0,0 l/m 1,3 km/h (1 Bft) S 183 0 min 0,000 mm 0,0 UV-I 12 W/m 13,8 C 14,8 C 3,2 km/h (1 Bft) 98,11 %
30.07.2017 05:44 14,9 C 21,1 C 95 % 1012,6 hPa 0,0 l/m 0,0 km/h (0 Bft) S 183 0 min 0,000 mm 0,0 UV-I 13 W/m 14,1 C 14,9 C 0,0 km/h (0 Bft) 100,00 %
30.07.2017 05:46 14,9 C 21,1 C 95 % 1012,6 hPa 0,0 l/m 0,0 km/h (0 Bft) S 183 0 min 0,000 mm 0,0 UV-I 18 W/m 14,1 C 14,9 C 0,0 km/h (0 Bft) 100,00 %
30.07.2017 05:48 14,9 C 21,1 C 95 % 1012,6 hPa 0,0 l/m 0,0 km/h (0 Bft) S 183 0 min 0,000 mm 0,0 UV-I 15 W/m 14,1 C 14,9 C 0,0 km/h (0 Bft) 97,87 %
30.07.2017 05:50 15,0 C 21,1 C 94 % 1012,6 hPa 0,0 l/m 0,0 km/h (0 Bft) S 183 2 min 0,000 mm 0,0 UV-I 23 W/m 14,0 C 15,0 C 0,0 km/h (0 Bft) 98,00 %
30.07.2017 05:52 14,9 C 21,1 C 94 % 1012,6 hPa 0,0 l/m 0,0 km/h (0 Bft) S 183 2 min 0,000 mm 0,0 UV-I 26 W/m 13,9 C 14,9 C 0,0 km/h (0 Bft) 97,44 %
30.07.2017 05:54 14,9 C 21,1 C 94 % 1012,6 hPa 0,0 l/m 0,0 km/h (0 Bft) S 183 2 min 0,000 mm 0,0 UV-I 30 W/m 13,9 C 14,9 C 0,0 km/h (0 Bft) 98,08 %
30.07.2017 05:56 14,9 C 21,1 C 94 % 1012,6 hPa 0,0 l/m 0,0 km/h (0 Bft) S 183 2 min 0,000 mm 0,0 UV-I 32 W/m 13,9 C 14,9 C 0,0 km/h (0 Bft) 100,00 %
30.07.2017 05:58 14,9 C 21,1 C 94 % 1012,7 hPa 0,0 l/m 0,0 km/h (0 Bft) S 183 2 min 0,000 mm 0,0 UV-I 36 W/m 13,9 C 14,9 C 0,0 km/h (0 Bft) 97,87 %
30.07.2017 06:00 14,9 C 21,1 C 94 % 1012,7 hPa 0,0 l/m 0,0 km/h (0 Bft) S 183 2 min 0,000 mm 0,0 UV-I 39 W/m 13,9 C 14,9 C 0,0 km/h (0 Bft) 96,00 %
30.07.2017 06:02 14,9 C 21,1 C 95 % 1012,7 hPa 0,0 l/m 0,0 km/h (0 Bft) S 183 2 min 0,000 mm 0,0 UV-I 40 W/m 14,1 C 14,9 C 0,0 km/h (0 Bft) 100,00 %
30.07.2017 06:04 15,0 C 21,1 C 95 % 1012,7 hPa 0,0 l/m 0,0 km/h (0 Bft) S 183 2 min 0,000 mm 0,0 UV-I 43 W/m 14,2 C 15,0 C 0,0 km/h (0 Bft) 97,56 %
30.07.2017 06:06 15,1 C 21,1 C 95 % 1012,6 hPa 0,0 l/m 0,0 km/h (0 Bft) S 183 2 min 0,000 mm 0,0 UV-I 45 W/m 14,3 C 15,1 C 0,0 km/h (0 Bft) 100,00 %
30.07.2017 06:08 15,0 C 21,1 C 94 % 1012,6 hPa 0,0 l/m 0,0 km/h (0 Bft) S 183 0 min 0,000 mm 0,0 UV-I 32 W/m 14,0 C 15,0 C 0,0 km/h (0 Bft) 97,87 %
30.07.2017 06:10 15,0 C 21,1 C 94 % 1012,6 hPa 0,0 l/m 0,0 km/h (0 Bft) S 183 0 min 0,000 mm 0,0 UV-I 36 W/m 14,0 C 15,0 C 0,0 km/h (0 Bft) 100,00 %
30.07.2017 06:12 15,0 C 21,1 C 95 % 1012,5 hPa 0,0 l/m 0,0 km/h (0 Bft) S 183 0 min 0,000 mm 0,0 UV-I 36 W/m 14,2 C 15,0 C 0,0 km/h (0 Bft) 97,87 %
30.07.2017 06:14 15,1 C 21,1 C 95 % 1012,5 hPa 0,0 l/m 0,0 km/h (0 Bft) S 183 0 min 0,000 mm 0,0 UV-I 28 W/m 14,3 C 15,1 C 0,0 km/h (0 Bft) 100,00 %
30.07.2017 06:16 15,1 C 21,1 C 94 % 1012,5 hPa 0,0 l/m 0,0 km/h (0 Bft) S 183 0 min 0,000 mm 0,0 UV-I 28 W/m 14,1 C 15,1 C 0,0 km/h (0 Bft) 94,00 %
30.07.2017 06:18 15,1 C 21,1 C 95 % 1012,6 hPa 0,0 l/m 0,0 km/h (0 Bft) S 183 0 min 0,000 mm 0,0 UV-I 29 W/m 14,3 C 15,1 C 0,0 km/h (0 Bft) 91,49 %
30.07.2017 06:20 15,0 C 21,1 C 94 % 1012,6 hPa 0,0 l/m 0,0 km/h (0 Bft) S 183 0 min 0,000 mm 0,0 UV-I 31 W/m 14,0 C 15,0 C 0,0 km/h (0 Bft) 97,37 %
30.07.2017 06:22 15,0 C 21,1 C 95 % 1012,5 hPa 0,0 l/m 0,0 km/h (0 Bft) S 183 0 min 0,000 mm 0,0 UV-I 42 W/m 14,2 C 15,0 C 0,0 km/h (0 Bft) 100,00 %
30.07.2017 06:24 14,9 C 21,1 C 95 % 1012,5 hPa 0,0 l/m 0,0 km/h (0 Bft) S 183 0 min 0,000 mm 0,0 UV-I 42 W/m 14,1 C 14,9 C 0,0 km/h (0 Bft) 93,62 %
30.07.2017 06:26 14,9 C 21,1 C 95 % 1012,5 hPa 0,0 l/m 0,4 km/h (0 Bft) S 183 0 min 0,000 mm 0,0 UV-I 38 W/m 14,1 C 14,9 C 1,6 km/h (1 Bft) 97,73 %
30.07.2017 06:28 14,9 C 21,1 C 95 % 1012,5 hPa 0,0 l/m 0,1 km/h (0 Bft) S 183 0 min 0,000 mm 0,0 UV-I 51 W/m 14,1 C 14,9 C 1,6 km/h (1 Bft) 96,23 %
30.07.2017 06:30 15,1 C 21,1 C 95 % 1012,5 hPa 0,0 l/m 0,0 km/h (0 Bft) S 183 2 min 0,000 mm 0,0 UV-I 69 W/m 14,3 C 15,1 C 0,0 km/h (0 Bft) 100,00 %
30.07.2017 06:32 15,1 C 21,1 C 95 % 1012,5 hPa 0,0 l/m 0,0 km/h (0 Bft) S 183 2 min 0,000 mm 0,0 UV-I 83 W/m 14,3 C 15,1 C 0,0 km/h (0 Bft) 93,18 %
30.07.2017 06:34 15,1 C 21,1 C 95 % 1012,5 hPa 0,0 l/m 0,0 km/h (0 Bft) S 183 2 min 0,000 mm 0,0 UV-I 94 W/m 14,3 C 15,1 C 0,0 km/h (0 Bft) 93,62 %
30.07.2017 06:36 15,2 C 21,1 C 95 % 1012,5 hPa 0,0 l/m 0,0 km/h (0 Bft) S 183 2 min 0,000 mm 0,0 UV-I 99 W/m 14,4 C 15,2 C 0,0 km/h (0 Bft) 97,44 %
30.07.2017 06:38 15,2 C 21,1 C 95 % 1012,5 hPa 0,0 l/m 0,0 km/h (0 Bft) S 183 2 min 0,000 mm 0,0 UV-I 103 W/m 14,4 C 15,2 C 1,6 km/h (1 Bft) 100,00 %
30.07.2017 06:40 15,2 C 21,1 C 94 % 1012,5 hPa 0,0 l/m 0,0 km/h (0 Bft) S 183 2 min 0,000 mm 0,0 UV-I 110 W/m 14,2 C 15,2 C 0,0 km/h (0 Bft) 100,00 %
30.07.2017 06:42 15,2 C 21,1 C 94 % 1012,5 hPa 0,0 l/m 0,0 km/h (0 Bft) S 183 2 min 0,000 mm 0,0 UV-I 116 W/m 14,2 C 15,2 C 0,0 km/h (0 Bft) 98,46 %
30.07.2017 06:44 15,3 C 21,1 C 94 % 1012,4 hPa 0,0 l/m 0,0 km/h (0 Bft) S 183 2 min 0,000 mm 0,0 UV-I 119 W/m 14,3 C 15,3 C 0,0 km/h (0 Bft) 98,00 %
30.07.2017 06:46 15,3 C 21,1 C 95 % 1012,4 hPa 0,0 l/m 0,0 km/h (0 Bft) S 183 2 min 0,000 mm 0,0 UV-I 123 W/m 14,5 C 15,3 C 0,0 km/h (0 Bft) 100,00 %
30.07.2017 06:48 15,4 C 21,1 C 94 % 1012,4 hPa 0,0 l/m 0,0 km/h (0 Bft) S 183 2 min 0,000 mm 0,0 UV-I 126 W/m 14,4 C 15,4 C 0,0 km/h (0 Bft) 98,00 %
30.07.2017 06:50 15,6 C 21,1 C 94 % 1012,4 hPa 0,0 l/m 0,0 km/h (0 Bft) S 183 2 min 0,000 mm 0,0 UV-I 127 W/m 14,6 C 15,6 C 0,0 km/h (0 Bft) 100,00 %
30.07.2017 06:52 15,7 C 21,1 C 94 % 1012,4 hPa 0,0 l/m 0,0 km/h (0 Bft) S 183 2 min 0,000 mm 0,0 UV-I 120 W/m 14,7 C 15,7 C 0,0 km/h (0 Bft) 95,74 %
30.07.2017 06:54 15,7 C 21,1 C 95 % 1012,5 hPa 0,0 l/m 0,0 km/h (0 Bft) S 183 2 min 0,000 mm 0,0 UV-I 135 W/m 14,9 C 15,7 C 0,0 km/h (0 Bft) 95,74 %
30.07.2017 06:56 15,9 C 21,1 C 94 % 1012,4 hPa 0,0 l/m 0,0 km/h (0 Bft) S 183 2 min 0,000 mm 0,0 UV-I 140 W/m 14,9 C 15,9 C 0,0 km/h (0 Bft) 100,00 %
30.07.2017 06:58 16,0 C 21,1 C 94 % 1012,4 hPa 0,0 l/m 0,0 km/h (0 Bft) S 183 2 min 0,000 mm 0,0 UV-I 150 W/m 15,0 C 16,0 C 0,0 km/h (0 Bft) 100,00 %
30.07.2017 07:00 16,1 C 21,1 C 94 % 1012,4 hPa 0,0 l/m 0,0 km/h (0 Bft) S 183 2 min 0,051 mm 0,0 UV-I 156 W/m 15,1 C 16,1 C 0,0 km/h (0 Bft) 97,87 %
30.07.2017 07:02 16,3 C 21,1 C 94 % 1012,4 hPa 0,0 l/m 0,4 km/h (0 Bft) S 183 2 min 0,000 mm 0,0 UV-I 159 W/m 15,3 C 16,3 C 1,6 km/h (1 Bft) 100,00 %
30.07.2017 07:04 16,4 C 21,1 C 94 % 1012,5 hPa 0,0 l/m 2,3 km/h (1 Bft) S 183 2 min 0,000 mm 0,0 UV-I 163 W/m 15,4 C 16,4 C 3,2 km/h (1 Bft) 97,87 %
30.07.2017 07:06 16,4 C 21,1 C 93 % 1012,5 hPa 0,0 l/m 2,1 km/h (1 Bft) S 183 2 min 0,000 mm 0,0 UV-I 168 W/m 15,3 C 16,4 C 3,2 km/h (1 Bft) 96,00 %
30.07.2017 07:08 16,6 C 21,1 C 93 % 1012,5 hPa 0,0 l/m 0,7 km/h (0 Bft) S 183 2 min 0,000 mm 0,0 UV-I 172 W/m 15,5 C 16,6 C 1,6 km/h (1 Bft) 96,00 %
30.07.2017 07:10 16,6 C 21,1 C 92 % 1012,4 hPa 0,0 l/m 0,1 km/h (0 Bft) S 183 2 min 0,000 mm 0,0 UV-I 178 W/m 15,3 C 16,6 C 1,6 km/h (1 Bft) 100,00 %
30.07.2017 07:12 16,7 C 21,1 C 92 % 1012,4 hPa 0,0 l/m 1,1 km/h (1 Bft) S 183 2 min 0,000 mm 0,0 UV-I 183 W/m 15,4 C 16,7 C 1,6 km/h (1 Bft) 94,74 %
30.07.2017 07:14 16,8 C 21,1 C 92 % 1012,4 hPa 0,0 l/m 0,4 km/h (0 Bft) S 183 2 min 0,000 mm 0,0 UV-I 173 W/m 15,5 C 16,8 C 3,2 km/h (1 Bft) 97,92 %
30.07.2017 07:16 16,9 C 21,1 C 91 % 1012,3 hPa 0,0 l/m 0,0 km/h (0 Bft) S 183 2 min 0,000 mm 0,0 UV-I 176 W/m 15,4 C 16,9 C 0,0 km/h (0 Bft) 95,74 %
30.07.2017 07:18 17,1 C 21,1 C 91 % 1012,4 hPa 0,0 l/m 0,0 km/h (0 Bft) S 183 2 min 0,000 mm 0,0 UV-I 156 W/m 15,6 C 17,1 C 0,0 km/h (0 Bft) 96,15 %
30.07.2017 07:20 17,1 C 21,1 C 91 % 1012,3 hPa 0,0 l/m 0,0 km/h (0 Bft) S 183 0 min 0,000 mm 0,0 UV-I 93 W/m 15,6 C 17,1 C 0,0 km/h (0 Bft) 92,31 %
30.07.2017 07:22 17,2 C 21,1 C 90 % 1012,4 hPa 0,0 l/m 0,0 km/h (0 Bft) S 183 0 min 0,000 mm 0,0 UV-I 88 W/m 15,5 C 17,2 C 0,0 km/h (0 Bft) 97,87 %
30.07.2017 07:24 17,3 C 21,1 C 90 % 1012,4 hPa 0,0 l/m 0,0 km/h (0 Bft) S 183 2 min 0,000 mm 0,0 UV-I 173 W/m 15,6 C 17,3 C 0,0 km/h (0 Bft) 94,00 %
30.07.2017 07:26 17,5 C 21,1 C 90 % 1012,4 hPa 0,0 l/m 0,0 km/h (0 Bft) S 183 2 min 0,000 mm 0,0 UV-I 214 W/m 15,8 C 17,5 C 0,0 km/h (0 Bft) 90,00 %
30.07.2017 07:28 17,7 C 21,1 C 90 % 1012,4 hPa 0,0 l/m 0,0 km/h (0 Bft) S 183 2 min 0,000 mm 0,3 UV-I 221 W/m 16,0 C 17,7 C 0,0 km/h (0 Bft) 96,15 %
30.07.2017 07:30 17,8 C 21,1 C 89 % 1012,5 hPa 0,0 l/m 0,0 km/h (0 Bft) S 183 2 min 0,000 mm 0,5 UV-I 231 W/m 16,0 C 17,8 C 0,0 km/h (0 Bft) 95,38 %
30.07.2017 07:32 18,0 C 21,1 C 89 % 1012,5 hPa 0,0 l/m 0,3 km/h (0 Bft) S 183 2 min 0,000 mm 0,5 UV-I 240 W/m 16,2 C 18,0 C 1,6 km/h (1 Bft) 98,00 %
30.07.2017 07:34 18,1 C 21,1 C 88 % 1012,4 hPa 0,0 l/m 0,0 km/h (0 Bft) S 183 2 min 0,000 mm 0,5 UV-I 243 W/m 16,1 C 18,1 C 0,0 km/h (0 Bft) 97,56 %
30.07.2017 07:36 18,2 C 21,1 C 87 % 1012,4 hPa 0,0 l/m 0,1 km/h (0 Bft) S 183 2 min 0,000 mm 0,5 UV-I 254 W/m 16,0 C 18,2 C 1,6 km/h (1 Bft) 97,87 %
30.07.2017 07:38 18,3 C 21,1 C 87 % 1012,4 hPa 0,0 l/m 0,6 km/h (0 Bft) S 183 2 min 0,000 mm 0,6 UV-I 261 W/m 16,1 C 18,3 C 3,2 km/h (1 Bft) 94,00 %
30.07.2017 07:40 18,4 C 21,1 C 88 % 1012,4 hPa 0,0 l/m 0,1 km/h (0 Bft) S 183 2 min 0,000 mm 0,6 UV-I 265 W/m 16,4 C 18,4 C 1,6 km/h (1 Bft) 94,00 %
30.07.2017 07:42 18,4 C 21,1 C 87 % 1012,5 hPa 0,0 l/m 0,2 km/h (0 Bft) S 183 2 min 0,000 mm 0,6 UV-I 272 W/m 16,2 C 18,4 C 1,6 km/h (1 Bft) 91,49 %
30.07.2017 07:44 18,4 C 21,1 C 87 % 1012,5 hPa 0,0 l/m 0,0 km/h (0 Bft) S 183 2 min 0,000 mm 0,6 UV-I 279 W/m 16,2 C 18,4 C 0,0 km/h (0 Bft) 93,62 %
30.07.2017 07:46 18,6 C 21,1 C 88 % 1012,5 hPa 0,0 l/m 0,0 km/h (0 Bft) S 183 2 min 0,000 mm 0,6 UV-I 272 W/m 16,6 C 18,6 C 1,6 km/h (1 Bft) 97,37 %
30.07.2017 07:48 18,7 C 21,1 C 87 % 1012,6 hPa 0,0 l/m 0,0 km/h (0 Bft) S 183 2 min 0,000 mm 0,7 UV-I 276 W/m 16,5 C 18,7 C 0,0 km/h (0 Bft) 97,87 %
30.07.2017 07:50 18,7 C 21,1 C 87 % 1012,5 hPa 0,0 l/m 0,0 km/h (0 Bft) S 183 2 min 0,000 mm 0,7 UV-I 297 W/m 16,5 C 18,7 C 0,0 km/h (0 Bft) 100,00 %
30.07.2017 07:52 18,8 C 21,1 C 85 % 1012,6 hPa 0,0 l/m 0,1 km/h (0 Bft) S 183 2 min 0,000 mm 0,7 UV-I 316 W/m 16,2 C 18,8 C 1,6 km/h (1 Bft) 100,00 %
30.07.2017 07:54 19,0 C 21,1 C 86 % 1012,6 hPa 0,0 l/m 1,1 km/h (1 Bft) S 183 2 min 0,000 mm 0,8 UV-I 324 W/m 16,6 C 19,0 C 3,2 km/h (1 Bft) 100,00 %
30.07.2017 07:56 19,2 C 21,1 C 84 % 1012,6 hPa 0,0 l/m 1,3 km/h (1 Bft) S 183 2 min 0,000 mm 0,8 UV-I 331 W/m 16,4 C 19,2 C 3,2 km/h (1 Bft) 94,00 %
30.07.2017 07:58 19,1 C 21,1 C 82 % 1012,6 hPa 0,0 l/m 2,0 km/h (1 Bft) S-SO 167 2 min 0,000 mm 0,8 UV-I 334 W/m 16,0 C 19,1 C 6,4 km/h (2 Bft) 94,23 %
30.07.2017 08:00 19,1 C 21,1 C 83 % 1012,6 hPa 0,0 l/m 0,9 km/h (0 Bft) NO 40 2 min 0,127 mm 0,8 UV-I 338 W/m 16,1 C 19,1 C 4,8 km/h (1 Bft) 94,87 %
30.07.2017 08:02 19,2 C 21,1 C 84 % 1012,6 hPa 0,0 l/m 2,0 km/h (1 Bft) NO 40 2 min 0,000 mm 0,9 UV-I 333 W/m 16,4 C 19,2 C 4,8 km/h (1 Bft) 96,23 %
30.07.2017 08:04 19,4 C 21,1 C 84 % 1012,6 hPa 0,0 l/m 1,0 km/h (0 Bft) NO 40 2 min 0,000 mm 0,9 UV-I 351 W/m 16,6 C 19,4 C 3,2 km/h (1 Bft) 98,00 %
30.07.2017 08:06 19,4 C 21,1 C 84 % 1012,6 hPa 0,0 l/m 0,2 km/h (0 Bft) NO 39 2 min 0,000 mm 0,9 UV-I 330 W/m 16,6 C 19,4 C 1,6 km/h (1 Bft) 97,37 %
30.07.2017 08:08 19,4 C 21,1 C 84 % 1012,6 hPa 0,0 l/m 3,1 km/h (1 Bft) N-NO 31 2 min 0,000 mm 0,9 UV-I 330 W/m 16,6 C 19,4 C 8,0 km/h (2 Bft) 100,00 %
30.07.2017 08:10 19,5 C 21,1 C 84 % 1012,6 hPa 0,0 l/m 4,4 km/h (1 Bft) NO 38 2 min 0,000 mm 1,0 UV-I 369 W/m 16,7 C 19,5 C 6,4 km/h (2 Bft) 92,31 %
30.07.2017 08:12 19,6 C 21,1 C 84 % 1012,6 hPa 0,0 l/m 5,1 km/h (1 Bft) NO 38 2 min 0,000 mm 1,0 UV-I 376 W/m 16,8 C 19,6 C 8,0 km/h (2 Bft) 95,74 %
30.07.2017 08:14 19,6 C 21,1 C 83 % 1012,6 hPa 0,0 l/m 6,4 km/h (2 Bft) NO 42 2 min 0,000 mm 0,9 UV-I 230 W/m 16,6 C 19,6 C 8,0 km/h (2 Bft) 93,62 %
30.07.2017 08:16 19,4 C 21,1 C 83 % 1012,5 hPa 0,0 l/m 4,2 km/h (1 Bft) NO 41 0 min 0,000 mm 0,9 UV-I 103 W/m 16,4 C 19,4 C 8,0 km/h (2 Bft) 97,37 %
30.07.2017 08:18 19,3 C 21,1 C 85 % 1012,6 hPa 0,0 l/m 0,2 km/h (0 Bft) NO 41 0 min 0,000 mm 0,9 UV-I 146 W/m 16,7 C 19,3 C 1,6 km/h (1 Bft) 98,00 %
30.07.2017 08:20 19,3 C 21,1 C 85 % 1012,6 hPa 0,0 l/m 0,9 km/h (0 Bft) NO 41 2 min 0,000 mm 1,1 UV-I 319 W/m 16,7 C 19,3 C 3,2 km/h (1 Bft) 95,74 %
30.07.2017 08:22 19,4 C 21,1 C 84 % 1012,6 hPa 0,0 l/m 0,7 km/h (0 Bft) NO 41 2 min 0,000 mm 1,1 UV-I 372 W/m 16,6 C 19,4 C 3,2 km/h (1 Bft) 97,87 %
30.07.2017 08:24 19,4 C 21,1 C 84 % 1012,6 hPa 0,0 l/m 0,2 km/h (0 Bft) NO 41 2 min 0,000 mm 1,0 UV-I 279 W/m 16,6 C 19,4 C 1,6 km/h (1 Bft) 96,00 %
30.07.2017 08:26 19,4 C 21,1 C 85 % 1012,6 hPa 0,0 l/m 2,0 km/h (1 Bft) N-NO 26 0 min 0,000 mm 0,9 UV-I 131 W/m 16,8 C 19,4 C 6,4 km/h (2 Bft) 94,00 %
30.07.2017 08:28 19,4 C 21,1 C 84 % 1012,6 hPa 0,0 l/m 3,1 km/h (1 Bft) NO 34 0 min 0,000 mm 1,1 UV-I 166 W/m 16,6 C 19,4 C 4,8 km/h (1 Bft) 97,37 %
30.07.2017 08:30 19,4 C 21,1 C 83 % 1012,6 hPa 0,0 l/m 1,6 km/h (1 Bft) NO 34 2 min 0,000 mm 1,2 UV-I 307 W/m 16,4 C 19,4 C 3,2 km/h (1 Bft) 96,00 %
30.07.2017 08:32 19,4 C 21,1 C 84 % 1012,6 hPa 0,0 l/m 0,4 km/h (0 Bft) NO 34 0 min 0,000 mm 1,1 UV-I 246 W/m 16,6 C 19,4 C 3,2 km/h (1 Bft) 97,87 %
30.07.2017 08:34 19,5 C 21,1 C 85 % 1012,6 hPa 0,0 l/m 0,4 km/h (0 Bft) NO 34 0 min 0,000 mm 1,2 UV-I 226 W/m 16,9 C 19,5 C 3,2 km/h (1 Bft) 97,62 %
30.07.2017 08:36 19,5 C 21,1 C 84 % 1012,6 hPa 0,0 l/m 2,2 km/h (1 Bft) NO 34 0 min 0,000 mm 1,1 UV-I 208 W/m 16,7 C 19,5 C 3,2 km/h (1 Bft) 96,00 %
30.07.2017 08:38 19,4 C 21,1 C 82 % 1012,6 hPa 0,0 l/m 0,6 km/h (0 Bft) NO 34 0 min 0,000 mm 1,2 UV-I 198 W/m 16,2 C 19,4 C 3,2 km/h (1 Bft) 98,11 %
30.07.2017 08:40 19,5 C 21,1 C 84 % 1012,6 hPa 0,0 l/m 0,7 km/h (0 Bft) NO 34 2 min 0,000 mm 1,4 UV-I 310 W/m 16,7 C 19,5 C 3,2 km/h (1 Bft) 94,74 %
30.07.2017 08:42 19,6 C 21,7 C 82 % 1012,6 hPa 0,0 l/m 0,2 km/h (0 Bft) NO 34 2 min 0,000 mm 1,5 UV-I 465 W/m 16,4 C 19,6 C 1,6 km/h (1 Bft) 96,00 %
30.07.2017 08:44 19,6 C 21,1 C 83 % 1012,6 hPa 0,0 l/m 0,0 km/h (0 Bft) NO 34 2 min 0,000 mm 1,4 UV-I 411 W/m 16,6 C 19,6 C 1,6 km/h (1 Bft) 98,00 %
30.07.2017 08:46 19,7 C 21,7 C 82 % 1012,6 hPa 0,0 l/m 0,1 km/h (0 Bft) NO 34 2 min 0,000 mm 1,5 UV-I 353 W/m 16,5 C 19,7 C 1,6 km/h (1 Bft) 94,00 %
30.07.2017 08:48 19,7 C 21,7 C 82 % 1012,6 hPa 0,0 l/m 0,0 km/h (0 Bft) NO 34 2 min 0,000 mm 1,6 UV-I 463 W/m 16,5 C 19,7 C 1,6 km/h (1 Bft) 97,87 %
30.07.2017 08:50 19,8 C 21,1 C 83 % 1012,6 hPa 0,0 l/m 0,8 km/h (0 Bft) NO 34 2 min 0,000 mm 1,6 UV-I 469 W/m 16,8 C 19,8 C 3,2 km/h (1 Bft) 95,12 %
30.07.2017 08:52 20,1 C 21,1 C 84 % 1012,6 hPa 0,0 l/m 2,8 km/h (1 Bft) NO 34 2 min 0,000 mm 1,7 UV-I 467 W/m 17,3 C 20,1 C 4,8 km/h (1 Bft) 94,00 %
30.07.2017 08:54 20,2 C 21,1 C 82 % 1012,6 hPa 0,0 l/m 1,7 km/h (1 Bft) NO 34 2 min 0,000 mm 1,7 UV-I 426 W/m 17,0 C 20,2 C 3,2 km/h (1 Bft) 97,37 %
30.07.2017 08:56 20,2 C 21,7 C 82 % 1012,6 hPa 0,0 l/m 0,7 km/h (0 Bft) NO 34 2 min 0,000 mm 1,8 UV-I 457 W/m 17,0 C 20,2 C 1,6 km/h (1 Bft) 94,64 %
30.07.2017 08:58 20,4 C 21,7 C 82 % 1012,5 hPa 0,0 l/m 0,7 km/h (0 Bft) N-NO 15 2 min 0,000 mm 1,8 UV-I 477 W/m 17,2 C 20,4 C 3,2 km/h (1 Bft) 94,00 %
30.07.2017 09:00 20,4 C 21,7 C 80 % 1012,6 hPa 0,0 l/m 1,8 km/h (1 Bft) N-NO 14 2 min 0,203 mm 1,8 UV-I 481 W/m 16,8 C 20,4 C 4,8 km/h (1 Bft) 94,74 %
30.07.2017 09:02 20,4 C 21,7 C 80 % 1012,6 hPa 0,0 l/m 0,8 km/h (0 Bft) N-NO 14 2 min 0,000 mm 1,9 UV-I 485 W/m 16,8 C 20,4 C 3,2 km/h (1 Bft) 96,00 %
30.07.2017 09:04 20,3 C 21,7 C 81 % 1012,6 hPa 0,0 l/m 0,5 km/h (0 Bft) N-NO 14 2 min 0,000 mm 1,9 UV-I 491 W/m 16,9 C 20,3 C 3,2 km/h (1 Bft) 97,37 %
30.07.2017 09:06 20,5 C 21,7 C 82 % 1012,5 hPa 0,0 l/m 1,8 km/h (1 Bft) N 355 2 min 0,000 mm 2,0 UV-I 497 W/m 17,3 C 20,5 C 4,8 km/h (1 Bft) 98,00 %
30.07.2017 09:08 20,5 C 21,7 C 81 % 1012,6 hPa 0,0 l/m 2,2 km/h (1 Bft) N 355 2 min 0,000 mm 2,1 UV-I 502 W/m 17,1 C 20,5 C 3,2 km/h (1 Bft) 98,00 %
30.07.2017 09:10 20,6 C 21,7 C 82 % 1012,5 hPa 0,0 l/m 1,3 km/h (1 Bft) N-NO 27 2 min 0,000 mm 2,1 UV-I 507 W/m 17,4 C 20,6 C 4,8 km/h (1 Bft) 94,00 %
30.07.2017 09:12 20,9 C 21,7 C 83 % 1012,5 hPa 0,0 l/m 1,3 km/h (1 Bft) N-NO 15 2 min 0,000 mm 2,1 UV-I 511 W/m 17,9 C 20,9 C 3,2 km/h (1 Bft) 94,00 %
30.07.2017 09:14 20,9 C 21,7 C 80 % 1012,6 hPa 0,0 l/m 1,9 km/h (1 Bft) N-NO 14 2 min 0,000 mm 2,2 UV-I 519 W/m 17,3 C 20,9 C 4,8 km/h (1 Bft) 97,44 %
30.07.2017 09:16 20,7 C 21,7 C 81 % 1012,6 hPa 0,0 l/m 1,2 km/h (1 Bft) NW 313 2 min 0,000 mm 2,2 UV-I 522 W/m 17,3 C 20,7 C 4,8 km/h (1 Bft) 96,00 %
30.07.2017 09:18 20,7 C 21,7 C 81 % 1012,6 hPa 0,0 l/m 3,1 km/h (1 Bft) W 281 2 min 0,000 mm 2,3 UV-I 527 W/m 17,3 C 20,7 C 6,4 km/h (2 Bft) 98,00 %
30.07.2017 09:20 20,7 C 21,7 C 81 % 1012,6 hPa 0,0 l/m 1,8 km/h (1 Bft) W 281 2 min 0,000 mm 2,3 UV-I 533 W/m 17,3 C 20,7 C 3,2 km/h (1 Bft) 97,87 %
30.07.2017 09:22 20,8 C 21,7 C 81 % 1012,6 hPa 0,0 l/m 2,8 km/h (1 Bft) W 269 2 min 0,000 mm 2,3 UV-I 536 W/m 17,4 C 20,8 C 6,4 km/h (2 Bft) 93,62 %
30.07.2017 09:24 20,8 C 21,7 C 80 % 1012,6 hPa 0,0 l/m 4,2 km/h (1 Bft) W 267 2 min 0,000 mm 2,4 UV-I 542 W/m 17,2 C 20,8 C 4,8 km/h (1 Bft) 96,00 %
30.07.2017 09:26 20,8 C 21,7 C 80 % 1012,6 hPa 0,0 l/m 2,2 km/h (1 Bft) W 267 2 min 0,000 mm 2,4 UV-I 544 W/m 17,2 C 20,8 C 3,2 km/h (1 Bft) 97,37 %
30.07.2017 09:28 20,8 C 21,7 C 81 % 1012,6 hPa 0,0 l/m 1,0 km/h (0 Bft) W 267 2 min 0,000 mm 2,5 UV-I 553 W/m 17,4 C 20,8 C 3,2 km/h (1 Bft) 94,29 %
30.07.2017 09:30 20,8 C 21,7 C 79 % 1012,6 hPa 0,0 l/m 1,0 km/h (0 Bft) W 265 2 min 0,000 mm 2,5 UV-I 557 W/m 17,0 C 20,8 C 1,6 km/h (1 Bft) 96,43 %
30.07.2017 09:32 20,8 C 21,7 C 80 % 1012,7 hPa 0,0 l/m 0,6 km/h (0 Bft) W 265 2 min 0,000 mm 2,6 UV-I 562 W/m 17,2 C 20,8 C 3,2 km/h (1 Bft) 95,74 %
30.07.2017 09:34 21,1 C 21,7 C 80 % 1012,7 hPa 0,0 l/m 2,8 km/h (1 Bft) W-NW 297 2 min 0,000 mm 2,6 UV-I 562 W/m 17,5 C 21,1 C 6,4 km/h (2 Bft) 96,23 %
30.07.2017 09:36 21,2 C 21,7 C 79 % 1012,7 hPa 0,0 l/m 2,2 km/h (1 Bft) W-NW 297 2 min 0,000 mm 2,7 UV-I 570 W/m 17,4 C 21,2 C 4,8 km/h (1 Bft) 97,56 %
30.07.2017 09:38 21,4 C 21,7 C 79 % 1012,7 hPa 0,0 l/m 1,3 km/h (1 Bft) W-NW 297 2 min 0,000 mm 2,7 UV-I 576 W/m 17,6 C 21,4 C 3,2 km/h (1 Bft) 96,43 %
30.07.2017 09:40 21,4 C 21,7 C 78 % 1012,7 hPa 0,0 l/m 0,7 km/h (0 Bft) W-NW 297 2 min 0,000 mm 2,8 UV-I 582 W/m 17,4 C 21,4 C 1,6 km/h (1 Bft) 95,74 %
30.07.2017 09:42 21,4 C 21,7 C 78 % 1012,6 hPa 0,0 l/m 0,6 km/h (0 Bft) N-NW 327 2 min 0,000 mm 2,7 UV-I 544 W/m 17,4 C 21,4 C 3,2 km/h (1 Bft) 92,11 %
30.07.2017 09:44 21,4 C 21,7 C 77 % 1012,6 hPa 0,0 l/m 0,7 km/h (0 Bft) N 355 2 min 0,000 mm 2,6 UV-I 482 W/m 17,2 C 21,4 C 3,2 km/h (1 Bft) 94,00 %
30.07.2017 09:46 21,7 C 21,7 C 79 % 1012,6 hPa 0,0 l/m 5,3 km/h (1 Bft) N-NO 27 2 min 0,000 mm 2,5 UV-I 431 W/m 17,9 C 21,7 C 8,0 km/h (2 Bft) 98,11 %
30.07.2017 09:48 21,8 C 21,7 C 80 % 1012,6 hPa 0,0 l/m 2,5 km/h (1 Bft) N-NO 26 2 min 0,000 mm 2,7 UV-I 446 W/m 18,2 C 21,8 C 4,8 km/h (1 Bft) 100,00 %
30.07.2017 09:50 21,9 C 21,7 C 79 % 1012,6 hPa 0,0 l/m 2,6 km/h (1 Bft) N-NO 26 2 min 0,000 mm 3,0 UV-I 514 W/m 18,1 C 21,9 C 4,8 km/h (1 Bft) 100,00 %
30.07.2017 09:52 22,1 C 21,7 C 79 % 1012,6 hPa 0,0 l/m 2,6 km/h (1 Bft) N-NO 26 2 min 0,000 mm 3,1 UV-I 624 W/m 18,3 C 22,1 C 3,2 km/h (1 Bft) 100,00 %
30.07.2017 09:54 21,9 C 21,7 C 76 % 1012,6 hPa 0,0 l/m 1,6 km/h (1 Bft) N-NO 27 2 min 0,000 mm 3,1 UV-I 625 W/m 17,5 C 21,9 C 4,8 km/h (1 Bft) 97,87 %
30.07.2017 09:56 22,0 C 21,7 C 78 % 1012,7 hPa 0,0 l/m 1,1 km/h (1 Bft) N-NO 27 2 min 0,000 mm 3,1 UV-I 591 W/m 18,0 C 22,0 C 4,8 km/h (1 Bft) 98,00 %
30.07.2017 09:58 22,2 C 21,7 C 79 % 1012,7 hPa 0,0 l/m 3,3 km/h (1 Bft) N-NO 32 2 min 0,000 mm 3,2 UV-I 626 W/m 18,4 C 22,2 C 4,8 km/h (1 Bft) 100,00 %
30.07.2017 10:00 22,2 C 21,7 C 75 % 1012,7 hPa 0,0 l/m 0,5 km/h (0 Bft) NO 36 2 min 0,330 mm 3,3 UV-I 662 W/m 17,5 C 22,2 C 1,6 km/h (1 Bft) 97,87 %
30.07.2017 10:02 22,2 C 21,7 C 77 % 1012,7 hPa 0,0 l/m 0,7 km/h (0 Bft) N 5 2 min 0,000 mm 3,2 UV-I 641 W/m 18,0 C 22,2 C 1,6 km/h (1 Bft) 100,00 %
30.07.2017 10:04 22,3 C 21,7 C 77 % 1012,7 hPa 0,0 l/m 2,0 km/h (1 Bft) N 5 2 min 0,000 mm 3,3 UV-I 627 W/m 18,1 C 22,3 C 4,8 km/h (1 Bft) 98,11 %
30.07.2017 10:06 22,4 C 21,7 C 77 % 1012,7 hPa 0,0 l/m 2,1 km/h (1 Bft) N 360 2 min 0,000 mm 3,1 UV-I 631 W/m 18,2 C 22,4 C 4,8 km/h (1 Bft) 89,66 %
30.07.2017 10:08 22,7 C 21,7 C 77 % 1012,6 hPa 0,0 l/m 2,7 km/h (1 Bft) N 11 2 min 0,000 mm 3,5 UV-I 651 W/m 18,5 C 22,7 C 4,8 km/h (1 Bft) 98,46 %
30.07.2017 10:10 22,7 C 21,7 C 74 % 1012,7 hPa 0,0 l/m 0,5 km/h (0 Bft) N 11 2 min 0,000 mm 3,5 UV-I 657 W/m 17,8 C 22,7 C 1,6 km/h (1 Bft) 97,87 %
30.07.2017 10:12 22,7 C 21,7 C 75 % 1012,7 hPa 0,0 l/m 1,4 km/h (1 Bft) N 9 2 min 0,000 mm 3,6 UV-I 660 W/m 18,0 C 22,7 C 3,2 km/h (1 Bft) 94,00 %
30.07.2017 10:14 22,8 C 21,7 C 75 % 1012,7 hPa 0,0 l/m 1,9 km/h (1 Bft) N 5 2 min 0,000 mm 3,6 UV-I 666 W/m 18,1 C 22,8 C 4,8 km/h (1 Bft) 100,00 %
30.07.2017 10:16 23,2 C 21,7 C 77 % 1012,7 hPa 0,0 l/m 5,0 km/h (1 Bft) NO 36 2 min 0,000 mm 3,7 UV-I 673 W/m 18,9 C 23,2 C 8,0 km/h (2 Bft) 96,23 %
30.07.2017 10:18 23,3 C 21,7 C 72 % 1012,7 hPa 0,0 l/m 2,8 km/h (1 Bft) NW 315 2 min 0,000 mm 3,8 UV-I 676 W/m 18,0 C 23,3 C 4,8 km/h (1 Bft) 95,74 %
30.07.2017 10:20 23,1 C 21,7 C 73 % 1012,8 hPa 0,0 l/m 3,0 km/h (1 Bft) W-NW 294 2 min 0,000 mm 3,8 UV-I 679 W/m 18,0 C 23,1 C 4,8 km/h (1 Bft) 95,74 %
30.07.2017 10:22 23,1 C 21,7 C 74 % 1012,8 hPa 0,0 l/m 1,9 km/h (1 Bft) NW 306 2 min 0,000 mm 3,8 UV-I 685 W/m 18,2 C 23,1 C 3,2 km/h (1 Bft) 97,56 %
30.07.2017 10:24 23,2 C 21,7 C 74 % 1012,8 hPa 0,0 l/m 1,3 km/h (1 Bft) W-SW 255 2 min 0,000 mm 3,9 UV-I 690 W/m 18,3 C 23,2 C 4,8 km/h (1 Bft) 97,87 %
30.07.2017 10:26 23,3 C 21,7 C 74 % 1012,9 hPa 0,0 l/m 3,3 km/h (1 Bft) W-SW 238 2 min 0,000 mm 4,0 UV-I 696 W/m 18,4 C 23,3 C 11,3 km/h (2 Bft) 97,87 %
30.07.2017 10:28 23,6 C 21,7 C 75 % 1012,9 hPa 0,0 l/m 6,5 km/h (2 Bft) W-SW 240 2 min 0,000 mm 4,0 UV-I 705 W/m 18,9 C 23,6 C 11,3 km/h (2 Bft) 94,00 %
30.07.2017 10:30 23,5 C 21,7 C 71 % 1012,9 hPa 0,0 l/m 3,6 km/h (1 Bft) W-SW 252 2 min 0,000 mm 4,1 UV-I 712 W/m 17,9 C 23,5 C 8,0 km/h (2 Bft) 96,00 %
30.07.2017 10:32 23,4 C 21,7 C 72 % 1012,9 hPa 0,0 l/m 4,1 km/h (1 Bft) W 261 2 min 0,000 mm 4,1 UV-I 703 W/m 18,1 C 23,4 C 6,4 km/h (2 Bft) 90,48 %
30.07.2017 10:34 23,3 C 21,7 C 72 % 1012,9 hPa 0,0 l/m 1,6 km/h (1 Bft) W-SW 249 2 min 0,000 mm 4,2 UV-I 721 W/m 18,0 C 23,3 C 6,4 km/h (2 Bft) 96,23 %
30.07.2017 10:36 23,3 C 21,7 C 72 % 1012,9 hPa 0,0 l/m 3,1 km/h (1 Bft) N-NO 33 2 min 0,000 mm 4,2 UV-I 722 W/m 18,0 C 23,3 C 6,4 km/h (2 Bft) 94,74 %
30.07.2017 10:38 23,4 C 21,7 C 75 % 1012,9 hPa 0,0 l/m 3,1 km/h (1 Bft) W 281 2 min 0,000 mm 4,3 UV-I 721 W/m 18,7 C 23,4 C 6,4 km/h (2 Bft) 93,62 %
30.07.2017 10:40 23,7 C 21,7 C 74 % 1012,9 hPa 0,0 l/m 5,4 km/h (1 Bft) W-NW 284 2 min 0,000 mm 4,3 UV-I 716 W/m 18,8 C 23,7 C 9,7 km/h (2 Bft) 100,00 %
30.07.2017 10:42 23,8 C 21,7 C 70 % 1012,9 hPa 0,0 l/m 6,1 km/h (2 Bft) W-SW 243 2 min 0,000 mm 4,3 UV-I 712 W/m 18,0 C 23,8 C 11,3 km/h (2 Bft) 95,45 %
30.07.2017 10:44 23,8 C 21,7 C 72 % 1012,8 hPa 0,0 l/m 2,6 km/h (1 Bft) W-NW 294 2 min 0,000 mm 4,4 UV-I 714 W/m 18,4 C 23,8 C 6,4 km/h (2 Bft) 96,43 %
30.07.2017 10:46 24,1 C 21,7 C 73 % 1012,8 hPa 0,0 l/m 3,0 km/h (1 Bft) W-NW 288 2 min 0,000 mm 4,5 UV-I 725 W/m 18,9 C 24,1 C 4,8 km/h (1 Bft) 100,00 %
30.07.2017 10:48 24,2 C 21,7 C 70 % 1012,8 hPa 0,0 l/m 4,2 km/h (1 Bft) W 266 2 min 0,000 mm 4,5 UV-I 729 W/m 18,4 C 24,2 C 6,4 km/h (2 Bft) 100,00 %
30.07.2017 10:50 24,1 C 21,7 C 71 % 1012,8 hPa 0,0 l/m 1,5 km/h (1 Bft) SW 232 2 min 0,000 mm 4,5 UV-I 732 W/m 18,5 C 24,1 C 4,8 km/h (1 Bft) 92,86 %
30.07.2017 10:52 24,2 C 21,7 C 72 % 1012,8 hPa 0,0 l/m 0,4 km/h (0 Bft) W-SW 239 2 min 0,000 mm 4,6 UV-I 735 W/m 18,8 C 24,2 C 1,6 km/h (1 Bft) 91,49 %
30.07.2017 10:54 24,4 C 21,7 C 70 % 1012,8 hPa 0,0 l/m 1,9 km/h (1 Bft) W-NW 289 2 min 0,000 mm 4,6 UV-I 733 W/m 18,6 C 24,4 C 6,4 km/h (2 Bft) 100,00 %
30.07.2017 10:56 24,3 C 21,7 C 69 % 1012,8 hPa 0,0 l/m 1,5 km/h (1 Bft) W-NW 289 2 min 0,000 mm 4,6 UV-I 741 W/m 18,2 C 24,3 C 4,8 km/h (1 Bft) 97,73 %
30.07.2017 10:58 24,6 C 21,7 C 73 % 1012,8 hPa 0,0 l/m 0,8 km/h (0 Bft) N-NW 345 2 min 0,000 mm 4,7 UV-I 745 W/m 19,4 C 24,6 C 3,2 km/h (1 Bft) 100,00 %
30.07.2017 11:00 24,6 C 21,7 C 70 % 1012,7 hPa 0,0 l/m 2,1 km/h (1 Bft) NW 311 2 min 0,432 mm 4,7 UV-I 745 W/m 18,8 C 24,6 C 6,4 km/h (2 Bft) 100,00 %
30.07.2017 11:02 24,7 C 21,7 C 70 % 1012,7 hPa 0,0 l/m 2,2 km/h (1 Bft) W-NW 292 2 min 0,000 mm 4,8 UV-I 739 W/m 18,8 C 24,7 C 4,8 km/h (1 Bft) 94,00 %
30.07.2017 11:04 24,6 C 21,7 C 69 % 1012,7 hPa 0,0 l/m 1,8 km/h (1 Bft) W-NW 299 2 min 0,000 mm 4,7 UV-I 727 W/m 18,5 C 24,6 C 3,2 km/h (1 Bft) 100,00 %
30.07.2017 11:06 24,6 C 21,7 C 69 % 1012,7 hPa 0,0 l/m 3,5 km/h (1 Bft) N-NO 20 2 min 0,000 mm 4,9 UV-I 755 W/m 18,5 C 24,6 C 6,4 km/h (2 Bft) 100,00 %
30.07.2017 11:08 24,7 C 21,7 C 69 % 1012,7 hPa 0,0 l/m 3,5 km/h (1 Bft) N-NO 32 2 min 0,000 mm 4,9 UV-I 760 W/m 18,6 C 24,7 C 6,4 km/h (2 Bft) 91,94 %
30.07.2017 11:10 24,8 C 21,7 C 72 % 1012,6 hPa 0,0 l/m 2,7 km/h (1 Bft) NO 34 2 min 0,000 mm 4,8 UV-I 738 W/m 19,4 C 24,8 C 4,8 km/h (1 Bft) 96,00 %
30.07.2017 11:12 24,9 C 21,7 C 67 % 1012,6 hPa 0,0 l/m 3,2 km/h (1 Bft) SW 227 2 min 0,000 mm 4,8 UV-I 767 W/m 18,3 C 24,9 C 6,4 km/h (2 Bft) 92,00 %
30.07.2017 11:14 24,9 C 22,2 C 69 % 1012,7 hPa 0,0 l/m 3,3 km/h (1 Bft) W-NW 286 2 min 0,000 mm 4,9 UV-I 757 W/m 18,8 C 24,9 C 6,4 km/h (2 Bft) 94,74 %
30.07.2017 11:16 24,9 C 22,2 C 67 % 1012,6 hPa 0,0 l/m 1,5 km/h (1 Bft) W-NW 288 2 min 0,000 mm 5,1 UV-I 766 W/m 18,3 C 24,9 C 6,4 km/h (2 Bft) 94,64 %
30.07.2017 11:18 24,9 C 22,2 C 67 % 1012,7 hPa 0,0 l/m 3,2 km/h (1 Bft) NW 306 2 min 0,000 mm 5,2 UV-I 768 W/m 18,3 C 24,9 C 6,4 km/h (2 Bft) 95,12 %
30.07.2017 11:20 24,9 C 22,2 C 66 % 1012,8 hPa 0,0 l/m 4,3 km/h (1 Bft) S-SW 210 2 min 0,000 mm 5,2 UV-I 779 W/m 18,1 C 24,9 C 12,9 km/h (3 Bft) 96,23 %
30.07.2017 11:22 25,1 C 22,2 C 68 % 1012,7 hPa 0,0 l/m 7,8 km/h (2 Bft) S-SW 209 2 min 0,000 mm 5,3 UV-I 785 W/m 18,8 C 24,8 C 11,3 km/h (2 Bft) 94,74 %
30.07.2017 11:24 25,2 C 22,2 C 66 % 1012,7 hPa 0,0 l/m 6,8 km/h (2 Bft) SW 233 2 min 0,000 mm 5,3 UV-I 790 W/m 18,4 C 25,1 C 11,3 km/h (2 Bft) 98,11 %
30.07.2017 11:26 25,4 C 22,2 C 68 % 1012,8 hPa 0,0 l/m 7,1 km/h (2 Bft) S-SW 200 2 min 0,000 mm 5,3 UV-I 794 W/m 19,1 C 25,2 C 12,9 km/h (3 Bft) 97,37 %
30.07.2017 11:28 25,4 C 22,2 C 66 % 1012,8 hPa 0,0 l/m 5,5 km/h (1 Bft) S-SO 165 2 min 0,000 mm 5,4 UV-I 797 W/m 18,6 C 25,4 C 8,0 km/h (2 Bft) 96,00 %
30.07.2017 11:30 25,3 C 22,2 C 66 % 1012,8 hPa 0,0 l/m 2,5 km/h (1 Bft) S 190 2 min 0,000 mm 5,2 UV-I 789 W/m 18,5 C 25,3 C 4,8 km/h (1 Bft) 96,23 %
30.07.2017 11:32 25,3 C 22,2 C 68 % 1012,8 hPa 0,0 l/m 2,4 km/h (1 Bft) NW 317 2 min 0,000 mm 4,2 UV-I 785 W/m 19,0 C 25,3 C 4,8 km/h (1 Bft) 89,36 %
30.07.2017 11:34 25,4 C 22,2 C 66 % 1012,7 hPa 0,0 l/m 4,5 km/h (1 Bft) NW 313 2 min 0,000 mm 5,5 UV-I 795 W/m 18,6 C 25,4 C 8,0 km/h (2 Bft) 92,68 %
30.07.2017 11:36 25,6 C 22,2 C 68 % 1012,8 hPa 0,0 l/m 3,6 km/h (1 Bft) W 267 2 min 0,000 mm 5,5 UV-I 806 W/m 19,2 C 25,6 C 6,4 km/h (2 Bft) 95,74 %
30.07.2017 11:38 25,8 C 22,2 C 66 % 1012,8 hPa 0,0 l/m 6,2 km/h (2 Bft) SW 215 2 min 0,000 mm 5,6 UV-I 809 W/m 19,0 C 25,8 C 11,3 km/h (2 Bft) 93,62 %
30.07.2017 11:40 25,8 C 22,2 C 65 % 1012,8 hPa 0,0 l/m 5,5 km/h (1 Bft) SW 234 2 min 0,000 mm 5,6 UV-I 812 W/m 18,7 C 25,8 C 11,3 km/h (2 Bft) 96,00 %
30.07.2017 11:42 25,8 C 22,2 C 65 % 1012,7 hPa 0,0 l/m 4,4 km/h (1 Bft) SW 222 2 min 0,000 mm 5,6 UV-I 812 W/m 18,7 C 25,8 C 8,0 km/h (2 Bft) 97,56 %
30.07.2017 11:44 25,8 C 22,2 C 68 % 1012,7 hPa 0,0 l/m 5,0 km/h (1 Bft) S 190 2 min 0,000 mm 5,6 UV-I 798 W/m 19,4 C 25,8 C 8,0 km/h (2 Bft) 97,92 %
30.07.2017 11:46 25,8 C 22,2 C 67 % 1012,7 hPa 0,0 l/m 1,3 km/h (1 Bft) S 190 2 min 0,000 mm 5,7 UV-I 816 W/m 19,2 C 25,8 C 3,2 km/h (1 Bft) 98,08 %
30.07.2017 11:48 25,9 C 22,2 C 65 % 1012,7 hPa 0,0 l/m 1,4 km/h (1 Bft) S-SO 157 2 min 0,000 mm 4,8 UV-I 817 W/m 18,8 C 25,9 C 3,2 km/h (1 Bft) 97,62 %
30.07.2017 11:50 25,8 C 22,2 C 66 % 1012,7 hPa 0,0 l/m 1,9 km/h (1 Bft) S-SO 157 2 min 0,000 mm 5,5 UV-I 823 W/m 19,0 C 25,8 C 3,2 km/h (1 Bft) 94,34 %
30.07.2017 11:52 25,7 C 22,2 C 64 % 1012,6 hPa 0,0 l/m 1,0 km/h (0 Bft) S-SO 157 2 min 0,000 mm 5,8 UV-I 826 W/m 18,4 C 25,7 C 3,2 km/h (1 Bft) 97,87 %
30.07.2017 11:54 25,9 C 22,2 C 65 % 1012,7 hPa 0,0 l/m 4,3 km/h (1 Bft) W-NW 286 2 min 0,000 mm 5,8 UV-I 830 W/m 18,8 C 25,9 C 9,7 km/h (2 Bft) 96,15 %
30.07.2017 11:56 26,1 C 22,2 C 65 % 1012,6 hPa 0,0 l/m 4,9 km/h (1 Bft) W 261 2 min 0,000 mm 5,7 UV-I 798 W/m 19,0 C 26,1 C 9,7 km/h (2 Bft) 98,53 %
30.07.2017 11:58 26,2 C 22,2 C 64 % 1012,6 hPa 0,0 l/m 3,5 km/h (1 Bft) W-NW 283 2 min 0,000 mm 5,7 UV-I 787 W/m 18,8 C 26,2 C 6,4 km/h (2 Bft) 96,00 %
30.07.2017 12:00 26,3 C 22,2 C 63 % 1012,6 hPa 0,0 l/m 5,3 km/h (1 Bft) NW 313 2 min 0,508 mm 5,8 UV-I 791 W/m 18,7 C 26,3 C 9,7 km/h (2 Bft) 97,37 %
30.07.2017 12:02 26,3 C 22,2 C 64 % 1012,6 hPa 0,0 l/m 4,8 km/h (1 Bft) W-SW 246 2 min 0,000 mm 5,9 UV-I 833 W/m 18,9 C 26,3 C 11,3 km/h (2 Bft) 98,11 %
30.07.2017 12:04 26,3 C 22,2 C 64 % 1012,5 hPa 0,0 l/m 5,1 km/h (1 Bft) SW 232 2 min 0,000 mm 6,1 UV-I 862 W/m 18,9 C 26,3 C 11,3 km/h (2 Bft) 100,00 %
30.07.2017 12:06 26,3 C 22,2 C 64 % 1012,5 hPa 0,0 l/m 0,9 km/h (0 Bft) SW 232 2 min 0,000 mm 6,0 UV-I 854 W/m 18,9 C 26,3 C 3,2 km/h (1 Bft) 92,31 %
30.07.2017 12:08 26,5 C 22,2 C 64 % 1012,5 hPa 0,0 l/m 4,7 km/h (1 Bft) NW 315 2 min 0,000 mm 6,1 UV-I 855 W/m 19,1 C 26,5 C 11,3 km/h (2 Bft) 96,23 %
30.07.2017 12:10 26,6 C 22,2 C 63 % 1012,6 hPa 0,0 l/m 5,6 km/h (1 Bft) W 278 2 min 0,000 mm 6,1 UV-I 855 W/m 19,0 C 26,6 C 9,7 km/h (2 Bft) 91,43 %
30.07.2017 12:12 26,7 C 22,2 C 63 % 1012,5 hPa 0,0 l/m 3,3 km/h (1 Bft) W-SW 248 2 min 0,000 mm 6,1 UV-I 858 W/m 19,1 C 26,7 C 8,0 km/h (2 Bft) 94,00 %
30.07.2017 12:14 26,7 C 22,2 C 63 % 1012,5 hPa 0,0 l/m 2,8 km/h (1 Bft) W-SW 254 2 min 0,000 mm 6,1 UV-I 863 W/m 19,1 C 26,7 C 6,4 km/h (2 Bft) 90,57 %
30.07.2017 12:16 26,9 C 22,2 C 63 % 1012,5 hPa 0,0 l/m 4,9 km/h (1 Bft) W 261 2 min 0,000 mm 5,7 UV-I 846 W/m 19,2 C 26,9 C 12,9 km/h (3 Bft) 94,00 %
30.07.2017 12:18 26,9 C 22,2 C 62 % 1012,5 hPa 0,0 l/m 6,3 km/h (2 Bft) W-SW 256 2 min 0,000 mm 5,5 UV-I 791 W/m 19,0 C 26,9 C 12,9 km/h (3 Bft) 95,12 %
30.07.2017 12:20 27,1 C 22,2 C 66 % 1012,4 hPa 0,0 l/m 6,6 km/h (2 Bft) W 270 2 min 0,000 mm 5,6 UV-I 736 W/m 20,2 C 27,1 C 12,9 km/h (3 Bft) 94,34 %
30.07.2017 12:22 27,1 C 22,2 C 62 % 1012,3 hPa 0,0 l/m 4,6 km/h (1 Bft) W-NW 292 2 min 0,000 mm 5,7 UV-I 748 W/m 19,2 C 27,1 C 14,5 km/h (3 Bft) 92,68 %
30.07.2017 12:24 27,1 C 22,2 C 61 % 1012,4 hPa 0,0 l/m 5,6 km/h (1 Bft) SW 236 2 min 0,000 mm 5,8 UV-I 779 W/m 18,9 C 27,1 C 11,3 km/h (2 Bft) 96,23 %
30.07.2017 12:26 27,2 C 22,2 C 62 % 1012,3 hPa 0,0 l/m 8,0 km/h (2 Bft) W-NW 296 2 min 0,000 mm 6,1 UV-I 838 W/m 19,3 C 26,9 C 12,9 km/h (3 Bft) 92,68 %
30.07.2017 12:28 27,2 C 22,2 C 63 % 1012,3 hPa 0,0 l/m 5,2 km/h (1 Bft) SW 232 2 min 0,000 mm 6,3 UV-I 873 W/m 19,5 C 27,2 C 8,0 km/h (2 Bft) 95,24 %
30.07.2017 12:30 27,2 C 22,2 C 62 % 1012,3 hPa 0,0 l/m 4,3 km/h (1 Bft) SW 219 2 min 0,000 mm 6,3 UV-I 877 W/m 19,3 C 27,2 C 11,3 km/h (2 Bft) 98,11 %
30.07.2017 12:32 27,5 C 22,8 C 63 % 1012,4 hPa 0,0 l/m 7,2 km/h (2 Bft) W-SW 254 2 min 0,000 mm 4,3 UV-I 864 W/m 19,8 C 27,4 C 12,9 km/h (3 Bft) 97,87 %
30.07.2017 12:34 27,5 C 22,8 C 61 % 1012,3 hPa 0,0 l/m 7,9 km/h (2 Bft) W 263 2 min 0,000 mm 6,3 UV-I 868 W/m 19,3 C 27,2 C 17,7 km/h (3 Bft) 92,68 %
30.07.2017 12:36 27,4 C 22,8 C 61 % 1012,3 hPa 0,0 l/m 7,6 km/h (2 Bft) W 261 2 min 0,000 mm 6,3 UV-I 858 W/m 19,2 C 27,2 C 12,9 km/h (3 Bft) 93,62 %
30.07.2017 12:38 27,5 C 22,8 C 61 % 1012,2 hPa 0,0 l/m 3,4 km/h (1 Bft) SW 220 2 min 0,000 mm 6,0 UV-I 821 W/m 19,3 C 27,5 C 6,4 km/h (2 Bft) 92,00 %
30.07.2017 12:40 27,7 C 22,8 C 61 % 1012,2 hPa 0,0 l/m 6,4 km/h (2 Bft) W-SW 244 2 min 0,000 mm 5,8 UV-I 789 W/m 19,5 C 27,7 C 11,3 km/h (2 Bft) 97,87 %
30.07.2017 12:42 27,7 C 22,8 C 63 % 1012,2 hPa 0,0 l/m 3,6 km/h (1 Bft) NW 313 2 min 0,000 mm 6,2 UV-I 835 W/m 20,0 C 27,7 C 6,4 km/h (2 Bft) 98,00 %
30.07.2017 12:44 27,8 C 22,8 C 60 % 1012,2 hPa 0,0 l/m 4,7 km/h (1 Bft) NW 304 2 min 0,000 mm 6,3 UV-I 856 W/m 19,3 C 27,8 C 9,7 km/h (2 Bft) 93,62 %
30.07.2017 12:46 28,1 C 22,8 C 62 % 1012,2 hPa 0,0 l/m 3,2 km/h (1 Bft) W-NW 292 2 min 0,000 mm 5,3 UV-I 857 W/m 20,1 C 28,1 C 11,3 km/h (2 Bft) 94,00 %
30.07.2017 12:48 28,1 C 22,8 C 60 % 1012,2 hPa 0,0 l/m 8,4 km/h (2 Bft) W-NW 283 2 min 0,000 mm 5,9 UV-I 855 W/m 19,6 C 27,8 C 14,5 km/h (3 Bft) 91,43 %
30.07.2017 12:50 28,1 C 22,8 C 62 % 1012,1 hPa 0,0 l/m 6,8 km/h (2 Bft) W-SW 254 2 min 0,000 mm 6,4 UV-I 869 W/m 20,1 C 28,0 C 17,7 km/h (3 Bft) 96,00 %
30.07.2017 12:52 28,3 C 22,8 C 60 % 1012,1 hPa 0,0 l/m 6,2 km/h (2 Bft) W-NW 284 2 min 0,000 mm 6,4 UV-I 868 W/m 19,8 C 28,3 C 12,9 km/h (3 Bft) 97,87 %
30.07.2017 12:54 28,3 C 22,8 C 60 % 1012,1 hPa 0,0 l/m 4,1 km/h (1 Bft) W 269 2 min 0,000 mm 6,5 UV-I 867 W/m 19,8 C 28,3 C 6,4 km/h (2 Bft) 96,00 %
30.07.2017 12:56 28,3 C 22,8 C 61 % 1012,1 hPa 0,0 l/m 5,2 km/h (1 Bft) W-SW 251 2 min 0,000 mm 6,3 UV-I 867 W/m 20,0 C 28,3 C 11,3 km/h (2 Bft) 89,36 %
30.07.2017 12:58 28,3 C 22,8 C 59 % 1012,1 hPa 0,0 l/m 13,0 km/h (3 Bft) W-SW 241 2 min 0,000 mm 6,4 UV-I 866 W/m 19,5 C 27,5 C 20,9 km/h (4 Bft) 93,62 %
30.07.2017 13:00 28,4 C 22,8 C 59 % 1012,0 hPa 0,0 l/m 8,4 km/h (2 Bft) W 264 2 min 0,584 mm 6,4 UV-I 865 W/m 19,6 C 28,1 C 12,9 km/h (3 Bft) 95,74 %
30.07.2017 13:02 28,4 C 22,8 C 58 % 1012,0 hPa 0,0 l/m 4,5 km/h (1 Bft) W-NW 298 2 min 0,000 mm 6,4 UV-I 860 W/m 19,3 C 28,4 C 9,7 km/h (2 Bft) 96,00 %
30.07.2017 13:04 28,5 C 22,8 C 60 % 1012,0 hPa 0,0 l/m 2,5 km/h (1 Bft) W-NW 295 2 min 0,000 mm 6,3 UV-I 840 W/m 20,0 C 28,5 C 4,8 km/h (1 Bft) 97,87 %
30.07.2017 13:06 28,6 C 22,8 C 61 % 1012,0 hPa 0,0 l/m 4,3 km/h (1 Bft) W-NW 290 2 min 0,000 mm 6,2 UV-I 820 W/m 20,3 C 28,6 C 11,3 km/h (2 Bft) 97,44 %
30.07.2017 13:08 28,6 C 22,8 C 62 % 1012,0 hPa 0,0 l/m 3,8 km/h (1 Bft) N-NO 17 2 min 0,000 mm 6,1 UV-I 826 W/m 20,6 C 28,6 C 8,0 km/h (2 Bft) 97,87 %
30.07.2017 13:10 28,6 C 22,8 C 60 % 1012,0 hPa 0,0 l/m 5,0 km/h (1 Bft) W 261 2 min 0,000 mm 6,1 UV-I 818 W/m 20,1 C 28,6 C 12,9 km/h (3 Bft) 95,74 %
30.07.2017 13:12 28,7 C 22,8 C 57 % 1012,0 hPa 0,0 l/m 5,6 km/h (1 Bft) W-SW 244 2 min 0,000 mm 6,2 UV-I 835 W/m 19,3 C 28,7 C 11,3 km/h (2 Bft) 95,74 %
30.07.2017 13:14 28,7 C 22,8 C 59 % 1011,9 hPa 0,0 l/m 5,7 km/h (1 Bft) W 273 2 min 0,000 mm 6,3 UV-I 846 W/m 19,9 C 28,7 C 11,3 km/h (2 Bft) 96,00 %
30.07.2017 13:16 28,6 C 22,8 C 56 % 1011,9 hPa 0,0 l/m 4,3 km/h (1 Bft) W-NW 295 2 min 0,000 mm 6,3 UV-I 835 W/m 18,9 C 28,6 C 9,7 km/h (2 Bft) 94,00 %
30.07.2017 13:18 28,4 C 22,8 C 57 % 1011,8 hPa 0,0 l/m 1,2 km/h (1 Bft) W-NW 295 2 min 0,000 mm 6,2 UV-I 830 W/m 19,0 C 28,4 C 3,2 km/h (1 Bft) 97,87 %
30.07.2017 13:20 28,6 C 22,8 C 59 % 1011,8 hPa 0,0 l/m 2,7 km/h (1 Bft) N-NW 327 2 min 0,000 mm 6,3 UV-I 845 W/m 19,8 C 28,6 C 4,8 km/h (1 Bft) 95,74 %
30.07.2017 13:22 28,7 C 22,8 C 59 % 1011,9 hPa 0,0 l/m 5,0 km/h (1 Bft) W-NW 284 2 min 0,000 mm 6,3 UV-I 832 W/m 19,9 C 28,7 C 8,0 km/h (2 Bft) 97,56 %
30.07.2017 13:24 28,7 C 22,8 C 60 % 1011,9 hPa 0,0 l/m 5,4 km/h (1 Bft) SW 232 2 min 0,000 mm 6,4 UV-I 861 W/m 20,1 C 28,7 C 12,9 km/h (3 Bft) 97,87 %
30.07.2017 13:26 28,6 C 22,8 C 57 % 1011,8 hPa 0,0 l/m 2,1 km/h (1 Bft) S-SW 208 2 min 0,000 mm 6,3 UV-I 859 W/m 19,2 C 28,6 C 4,8 km/h (1 Bft) 97,87 %
30.07.2017 13:28 28,6 C 22,8 C 58 % 1011,8 hPa 0,0 l/m 4,6 km/h (1 Bft) SW 230 2 min 0,000 mm 6,3 UV-I 860 W/m 19,5 C 28,6 C 12,9 km/h (3 Bft) 96,00 %
30.07.2017 13:30 28,8 C 22,8 C 58 % 1011,8 hPa 0,0 l/m 7,9 km/h (2 Bft) W 271 2 min 0,000 mm 6,2 UV-I 868 W/m 19,7 C 28,6 C 16,1 km/h (3 Bft) 100,00 %
30.07.2017 13:32 29,1 C 22,8 C 60 % 1011,8 hPa 0,0 l/m 10,3 km/h (2 Bft) W-SW 240 2 min 0,000 mm 6,2 UV-I 858 W/m 20,5 C 28,7 C 20,9 km/h (4 Bft) 97,87 %
30.07.2017 13:34 29,1 C 22,8 C 53 % 1011,8 hPa 0,0 l/m 10,4 km/h (2 Bft) W-SW 244 2 min 0,000 mm 6,3 UV-I 862 W/m 18,5 C 28,7 C 17,7 km/h (3 Bft) 98,00 %
30.07.2017 13:36 29,1 C 22,8 C 54 % 1011,7 hPa 0,0 l/m 9,8 km/h (2 Bft) W-SW 245 2 min 0,000 mm 6,3 UV-I 864 W/m 18,8 C 28,7 C 17,7 km/h (3 Bft) 97,87 %
30.07.2017 13:38 29,1 C 22,8 C 54 % 1011,7 hPa 0,0 l/m 6,8 km/h (2 Bft) W-SW 250 2 min 0,000 mm 6,3 UV-I 862 W/m 18,8 C 29,1 C 12,9 km/h (3 Bft) 100,00 %
30.07.2017 13:40 29,2 C 22,8 C 51 % 1011,7 hPa 0,0 l/m 12,1 km/h (2 Bft) S-SW 208 2 min 0,000 mm 6,3 UV-I 863 W/m 18,0 C 28,6 C 19,3 km/h (3 Bft) 98,00 %
30.07.2017 13:42 29,2 C 22,8 C 53 % 1011,6 hPa 0,0 l/m 14,9 km/h (3 Bft) S-SW 196 2 min 0,000 mm 6,3 UV-I 858 W/m 18,6 C 28,4 C 19,3 km/h (3 Bft) 100,00 %
30.07.2017 13:44 29,3 C 22,8 C 54 % 1011,6 hPa 0,0 l/m 9,2 km/h (2 Bft) S-SW 195 2 min 0,000 mm 6,2 UV-I 855 W/m 19,0 C 29,0 C 20,9 km/h (4 Bft) 97,87 %
30.07.2017 13:46 29,4 C 22,8 C 55 % 1011,6 hPa 0,0 l/m 4,7 km/h (1 Bft) NW 306 2 min 0,000 mm 6,2 UV-I 854 W/m 19,4 C 29,4 C 9,7 km/h (2 Bft) 100,00 %
30.07.2017 13:48 29,6 C 23,3 C 57 % 1011,6 hPa 0,0 l/m 4,7 km/h (1 Bft) S-SO 155 2 min 0,000 mm 6,0 UV-I 844 W/m 20,2 C 29,6 C 9,7 km/h (2 Bft) 100,00 %
30.07.2017 13:50 29,4 C 23,3 C 57 % 1011,6 hPa 0,0 l/m 4,6 km/h (1 Bft) W 259 2 min 0,000 mm 6,1 UV-I 843 W/m 20,0 C 29,4 C 9,7 km/h (2 Bft) 100,00 %
30.07.2017 13:52 29,3 C 23,3 C 56 % 1011,6 hPa 0,0 l/m 3,1 km/h (1 Bft) W-SW 246 2 min 0,000 mm 6,2 UV-I 866 W/m 19,6 C 29,3 C 6,4 km/h (2 Bft) 100,00 %
30.07.2017 13:54 29,3 C 23,3 C 56 % 1011,5 hPa 0,0 l/m 2,0 km/h (1 Bft) W 277 2 min 0,000 mm 5,4 UV-I 886 W/m 19,6 C 29,3 C 6,4 km/h (2 Bft) 100,00 %
30.07.2017 13:56 29,3 C 23,3 C 54 % 1011,5 hPa 0,0 l/m 2,6 km/h (1 Bft) W-SW 256 2 min 0,000 mm 6,2 UV-I 865 W/m 19,0 C 29,3 C 6,4 km/h (2 Bft) 97,87 %
30.07.2017 13:58 29,4 C 23,3 C 54 % 1011,6 hPa 0,0 l/m 8,3 km/h (2 Bft) NO 42 2 min 0,000 mm 6,2 UV-I 859 W/m 19,1 C 29,2 C 14,5 km/h (3 Bft) 100,00 %
30.07.2017 14:00 29,4 C 23,3 C 51 % 1011,6 hPa 0,0 l/m 7,2 km/h (2 Bft) W 273 2 min 0,584 mm 6,2 UV-I 854 W/m 18,2 C 29,3 C 12,9 km/h (3 Bft) 97,87 %
30.07.2017 14:02 29,4 C 23,3 C 51 % 1011,6 hPa 0,0 l/m 6,1 km/h (2 Bft) W-NW 284 2 min 0,000 mm 6,2 UV-I 872 W/m 18,2 C 29,4 C 11,3 km/h (2 Bft) 94,00 %
30.07.2017 14:04 29,5 C 23,3 C 50 % 1011,6 hPa 0,0 l/m 5,1 km/h (1 Bft) W-NW 282 2 min 0,000 mm 6,2 UV-I 873 W/m 18,0 C 29,5 C 11,3 km/h (2 Bft) 100,00 %
30.07.2017 14:06 29,6 C 23,3 C 49 % 1011,6 hPa 0,0 l/m 4,9 km/h (1 Bft) N-NO 12 2 min 0,000 mm 6,2 UV-I 873 W/m 17,7 C 29,6 C 12,9 km/h (3 Bft) 97,37 %
30.07.2017 14:08 29,7 C 23,3 C 47 % 1011,5 hPa 0,0 l/m 3,5 km/h (1 Bft) W-NW 298 2 min 0,000 mm 5,8 UV-I 872 W/m 17,2 C 29,7 C 8,0 km/h (2 Bft) 100,00 %
30.07.2017 14:10 29,7 C 23,3 C 47 % 1011,5 hPa 0,0 l/m 2,6 km/h (1 Bft) W-SW 242 2 min 0,000 mm 6,1 UV-I 853 W/m 17,2 C 29,7 C 4,8 km/h (1 Bft) 100,00 %
30.07.2017 14:12 29,8 C 23,3 C 47 % 1011,5 hPa 0,0 l/m 3,6 km/h (1 Bft) W-NW 301 2 min 0,000 mm 6,0 UV-I 848 W/m 17,2 C 29,8 C 8,0 km/h (2 Bft) 98,00 %
30.07.2017 14:14 29,8 C 23,3 C 46 % 1011,5 hPa 0,0 l/m 4,9 km/h (1 Bft) NW 307 2 min 0,000 mm 6,0 UV-I 839 W/m 16,9 C 29,8 C 12,9 km/h (3 Bft) 97,96 %
30.07.2017 14:16 29,8 C 23,3 C 47 % 1011,4 hPa 0,0 l/m 3,1 km/h (1 Bft) W-NW 298 2 min 0,000 mm 6,0 UV-I 840 W/m 17,2 C 29,8 C 12,9 km/h (3 Bft) 89,36 %
30.07.2017 14:18 29,8 C 23,3 C 47 % 1011,4 hPa 0,0 l/m 1,5 km/h (1 Bft) SW 230 2 min 0,000 mm 5,9 UV-I 836 W/m 17,2 C 29,8 C 3,2 km/h (1 Bft) 94,74 %
30.07.2017 14:20 29,9 C 23,3 C 45 % 1011,3 hPa 0,0 l/m 3,0 km/h (1 Bft) W-SW 248 2 min 0,000 mm 5,9 UV-I 833 W/m 16,7 C 29,9 C 8,0 km/h (2 Bft) 100,00 %
30.07.2017 14:22 29,9 C 23,3 C 46 % 1011,4 hPa 0,0 l/m 3,4 km/h (1 Bft) N 5 2 min 0,000 mm 5,9 UV-I 833 W/m 17,0 C 29,9 C 6,4 km/h (2 Bft) 97,92 %
30.07.2017 14:24 29,9 C 23,3 C 46 % 1011,3 hPa 0,0 l/m 3,5 km/h (1 Bft) NW 321 2 min 0,000 mm 5,8 UV-I 827 W/m 17,0 C 29,9 C 6,4 km/h (2 Bft) 98,08 %
30.07.2017 14:26 30,1 C 23,3 C 47 % 1011,3 hPa 0,0 l/m 3,8 km/h (1 Bft) W-NW 298 2 min 0,000 mm 5,8 UV-I 826 W/m 17,5 C 30,1 C 8,0 km/h (2 Bft) 97,44 %
30.07.2017 14:28 30,2 C 23,3 C 47 % 1011,3 hPa 0,0 l/m 2,1 km/h (1 Bft) NW 326 2 min 0,000 mm 5,8 UV-I 825 W/m 17,6 C 30,2 C 6,4 km/h (2 Bft) 97,87 %
30.07.2017 14:30 30,3 C 23,3 C 44 % 1011,3 hPa 0,0 l/m 5,7 km/h (1 Bft) W 259 2 min 0,000 mm 5,8 UV-I 822 W/m 16,7 C 30,3 C 12,9 km/h (3 Bft) 100,00 %
30.07.2017 14:32 30,2 C 23,3 C 43 % 1011,3 hPa 0,0 l/m 3,0 km/h (1 Bft) S 171 2 min 0,000 mm 5,8 UV-I 821 W/m 16,2 C 30,2 C 8,0 km/h (2 Bft) 100,00 %
30.07.2017 14:34 30,1 C 23,3 C 46 % 1011,3 hPa 0,0 l/m 5,2 km/h (1 Bft) N 355 2 min 0,000 mm 5,7 UV-I 820 W/m 17,2 C 30,1 C 12,9 km/h (3 Bft) 98,00 %
30.07.2017 14:36 30,3 C 23,3 C 45 % 1011,3 hPa 0,0 l/m 3,8 km/h (1 Bft) NW 314 2 min 0,000 mm 5,7 UV-I 817 W/m 17,0 C 30,3 C 9,7 km/h (2 Bft) 100,00 %
30.07.2017 14:38 30,3 C 23,3 C 45 % 1011,3 hPa 0,0 l/m 3,8 km/h (1 Bft) NW 319 2 min 0,000 mm 5,6 UV-I 813 W/m 17,0 C 30,3 C 8,0 km/h (2 Bft) 100,00 %
30.07.2017 14:40 30,2 C 23,3 C 43 % 1011,3 hPa 0,0 l/m 4,5 km/h (1 Bft) N-NW 329 2 min 0,000 mm 5,6 UV-I 809 W/m 16,2 C 30,2 C 11,3 km/h (2 Bft) 100,00 %
30.07.2017 14:42 30,1 C 23,3 C 42 % 1011,3 hPa 0,0 l/m 4,9 km/h (1 Bft) NW 319 2 min 0,000 mm 5,5 UV-I 807 W/m 15,7 C 30,1 C 12,9 km/h (3 Bft) 100,00 %
30.07.2017 14:44 29,9 C 23,3 C 44 % 1011,4 hPa 0,0 l/m 7,6 km/h (2 Bft) W-NW 286 2 min 0,000 mm 5,4 UV-I 805 W/m 16,3 C 29,8 C 11,3 km/h (2 Bft) 97,30 %
30.07.2017 14:46 29,9 C 23,3 C 44 % 1011,3 hPa 0,0 l/m 6,7 km/h (2 Bft) N-NW 333 2 min 0,000 mm 5,5 UV-I 803 W/m 16,3 C 29,9 C 12,9 km/h (3 Bft) 96,23 %
30.07.2017 14:48 29,8 C 23,3 C 46 % 1011,3 hPa 0,0 l/m 5,8 km/h (2 Bft) N-NO 25 2 min 0,000 mm 5,4 UV-I 800 W/m 16,9 C 29,8 C 11,3 km/h (2 Bft) 100,00 %
30.07.2017 14:50 30,0 C 23,3 C 46 % 1011,3 hPa 0,0 l/m 2,5 km/h (1 Bft) W 261 2 min 0,000 mm 5,4 UV-I 801 W/m 17,1 C 30,0 C 6,4 km/h (2 Bft) 100,00 %
30.07.2017 14:52 30,2 C 23,3 C 46 % 1011,3 hPa 0,0 l/m 7,3 km/h (2 Bft) W-SW 247 2 min 0,000 mm 5,3 UV-I 797 W/m 17,3 C 30,1 C 16,1 km/h (3 Bft) 95,74 %
30.07.2017 14:54 30,1 C 23,3 C 44 % 1011,3 hPa 0,0 l/m 3,5 km/h (1 Bft) NW 318 2 min 0,000 mm 5,3 UV-I 794 W/m 16,5 C 30,1 C 9,7 km/h (2 Bft) 97,87 %
30.07.2017 14:56 29,9 C 23,3 C 46 % 1011,3 hPa 0,0 l/m 3,2 km/h (1 Bft) N-NO 22 2 min 0,000 mm 5,3 UV-I 792 W/m 17,0 C 29,9 C 9,7 km/h (2 Bft) 95,74 %
30.07.2017 14:58 30,0 C 23,3 C 44 % 1011,3 hPa 0,0 l/m 5,8 km/h (2 Bft) NW 310 2 min 0,000 mm 5,2 UV-I 788 W/m 16,4 C 30,0 C 14,5 km/h (3 Bft) 97,87 %
30.07.2017 15:00 30,1 C 23,3 C 45 % 1011,3 hPa 0,0 l/m 3,4 km/h (1 Bft) NW 313 2 min 0,000 mm 5,2 UV-I 787 W/m 16,8 C 30,1 C 8,0 km/h (2 Bft) 95,74 %
30.07.2017 15:02 30,1 C 23,3 C 44 % 1011,4 hPa 0,0 l/m 4,1 km/h (1 Bft) N-NO 24 2 min 0,585 mm 5,2 UV-I 788 W/m 16,5 C 30,1 C 9,7 km/h (2 Bft) 95,24 %
30.07.2017 15:04 30,3 C 23,3 C 47 % 1011,4 hPa 0,0 l/m 1,9 km/h (1 Bft) W-NW 295 2 min 0,000 mm 5,1 UV-I 790 W/m 17,7 C 30,3 C 4,8 km/h (1 Bft) 96,00 %
30.07.2017 15:06 30,4 C 23,3 C 44 % 1011,4 hPa 0,0 l/m 5,4 km/h (1 Bft) W-SW 255 2 min 0,000 mm 5,1 UV-I 789 W/m 16,7 C 30,4 C 12,9 km/h (3 Bft) 91,49 %
30.07.2017 15:08 30,3 C 23,3 C 46 % 1011,4 hPa 0,0 l/m 5,9 km/h (2 Bft) W 271 2 min 0,000 mm 5,1 UV-I 794 W/m 17,4 C 30,3 C 9,7 km/h (2 Bft) 94,00 %
30.07.2017 15:10 30,5 C 23,3 C 47 % 1011,4 hPa 0,0 l/m 3,5 km/h (1 Bft) W-SW 255 2 min 0,000 mm 5,0 UV-I 794 W/m 17,9 C 30,5 C 6,4 km/h (2 Bft) 94,74 %
30.07.2017 15:12 30,7 C 23,3 C 43 % 1011,4 hPa 0,0 l/m 7,5 km/h (2 Bft) W-SW 252 2 min 0,000 mm 4,9 UV-I 762 W/m 16,7 C 30,6 C 16,1 km/h (3 Bft) 90,00 %
30.07.2017 15:14 30,7 C 23,9 C 45 % 1011,4 hPa 0,0 l/m 4,7 km/h (1 Bft) NW 322 2 min 0,000 mm 5,0 UV-I 794 W/m 17,4 C 30,7 C 16,1 km/h (3 Bft) 94,00 %
30.07.2017 15:16 30,6 C 23,9 C 44 % 1011,5 hPa 0,0 l/m 7,6 km/h (2 Bft) W-SW 245 2 min 0,000 mm 5,0 UV-I 803 W/m 16,9 C 30,5 C 16,1 km/h (3 Bft) 91,49 %
30.07.2017 15:18 30,6 C 23,9 C 45 % 1011,4 hPa 0,0 l/m 8,2 km/h (2 Bft) W 271 2 min 0,000 mm 4,9 UV-I 812 W/m 17,3 C 30,5 C 12,9 km/h (3 Bft) 98,00 %
30.07.2017 15:20 30,7 C 23,9 C 44 % 1011,4 hPa 0,0 l/m 4,0 km/h (1 Bft) W-NW 288 2 min 0,000 mm 4,9 UV-I 832 W/m 17,0 C 30,7 C 12,9 km/h (3 Bft) 91,49 %
30.07.2017 15:22 30,6 C 23,9 C 42 % 1011,4 hPa 0,0 l/m 5,9 km/h (2 Bft) W-NW 294 2 min 0,000 mm 4,3 UV-I 826 W/m 16,2 C 30,6 C 11,3 km/h (2 Bft) 97,37 %
30.07.2017 15:24 30,4 C 23,9 C 42 % 1011,3 hPa 0,0 l/m 4,9 km/h (1 Bft) W-NW 286 2 min 0,000 mm 4,9 UV-I 856 W/m 16,0 C 30,4 C 9,7 km/h (2 Bft) 95,74 %
30.07.2017 15:26 30,4 C 23,9 C 44 % 1011,4 hPa 0,0 l/m 11,3 km/h (2 Bft) W 267 2 min 0,000 mm 4,9 UV-I 858 W/m 16,7 C 30,0 C 16,1 km/h (3 Bft) 95,74 %
30.07.2017 15:28 30,6 C 23,9 C 45 % 1011,4 hPa 0,0 l/m 9,9 km/h (2 Bft) SW 223 2 min 0,000 mm 4,8 UV-I 859 W/m 17,3 C 30,4 C 14,5 km/h (3 Bft) 97,87 %
30.07.2017 15:30 30,7 C 23,9 C 44 % 1011,4 hPa 0,0 l/m 8,7 km/h (2 Bft) NW 311 2 min 0,000 mm 4,8 UV-I 855 W/m 17,0 C 30,5 C 12,9 km/h (3 Bft) 92,00 %
30.07.2017 15:32 30,7 C 23,9 C 43 % 1011,4 hPa 0,0 l/m 5,6 km/h (1 Bft) W-SW 255 2 min 0,000 mm 4,7 UV-I 843 W/m 16,7 C 30,7 C 11,3 km/h (2 Bft) 97,87 %
30.07.2017 15:34 30,6 C 23,9 C 43 % 1011,4 hPa 0,0 l/m 5,9 km/h (2 Bft) NW 319 2 min 0,000 mm 4,7 UV-I 836 W/m 16,6 C 30,6 C 11,3 km/h (2 Bft) 92,00 %
30.07.2017 15:36 30,6 C 23,9 C 42 % 1011,3 hPa 0,0 l/m 4,4 km/h (1 Bft) NW 310 2 min 0,000 mm 4,6 UV-I 819 W/m 16,2 C 30,6 C 9,7 km/h (2 Bft) 97,87 %
30.07.2017 15:38 30,6 C 23,9 C 41 % 1011,3 hPa 0,0 l/m 1,5 km/h (1 Bft) NW 319 2 min 0,000 mm 4,6 UV-I 806 W/m 15,8 C 30,6 C 4,8 km/h (1 Bft) 95,74 %
30.07.2017 15:40 30,5 C 23,9 C 42 % 1011,3 hPa 0,0 l/m 5,7 km/h (1 Bft) NO 34 2 min 0,000 mm 4,5 UV-I 787 W/m 16,1 C 30,5 C 12,9 km/h (3 Bft) 97,56 %
30.07.2017 15:42 30,5 C 23,9 C 42 % 1011,3 hPa 0,0 l/m 3,6 km/h (1 Bft) N-NW 338 2 min 0,000 mm 4,4 UV-I 773 W/m 16,1 C 30,5 C 9,7 km/h (2 Bft) 98,00 %
30.07.2017 15:44 30,6 C 23,9 C 45 % 1011,2 hPa 0,0 l/m 2,6 km/h (1 Bft) W-NW 292 2 min 0,000 mm 4,3 UV-I 761 W/m 17,3 C 30,6 C 4,8 km/h (1 Bft) 97,87 %
30.07.2017 15:46 30,6 C 23,9 C 42 % 1011,2 hPa 0,0 l/m 3,1 km/h (1 Bft) W-SW 241 2 min 0,000 mm 4,2 UV-I 753 W/m 16,2 C 30,6 C 8,0 km/h (2 Bft) 97,87 %
30.07.2017 15:48 30,7 C 23,9 C 43 % 1011,2 hPa 0,0 l/m 2,1 km/h (1 Bft) NO 39 2 min 0,000 mm 4,2 UV-I 748 W/m 16,7 C 30,7 C 4,8 km/h (1 Bft) 95,74 %
30.07.2017 15:50 30,7 C 23,9 C 44 % 1011,2 hPa 0,0 l/m 4,3 km/h (1 Bft) W 267 2 min 0,000 mm 4,1 UV-I 738 W/m 17,0 C 30,7 C 6,4 km/h (2 Bft) 97,87 %
30.07.2017 15:52 30,8 C 23,9 C 43 % 1011,2 hPa 0,0 l/m 2,7 km/h (1 Bft) NW 318 2 min 0,000 mm 4,1 UV-I 729 W/m 16,7 C 30,8 C 6,4 km/h (2 Bft) 96,00 %
30.07.2017 15:54 30,9 C 23,9 C 43 % 1011,2 hPa 0,0 l/m 7,6 km/h (2 Bft) N-NW 327 2 min 0,000 mm 4,0 UV-I 721 W/m 16,8 C 30,8 C 14,5 km/h (3 Bft) 97,87 %
30.07.2017 15:56 30,8 C 23,9 C 41 % 1011,2 hPa 0,0 l/m 10,5 km/h (2 Bft) W-SW 246 2 min 0,000 mm 4,0 UV-I 712 W/m 16,0 C 30,5 C 14,5 km/h (3 Bft) 97,56 %
30.07.2017 15:58 30,7 C 23,9 C 43 % 1011,2 hPa 0,0 l/m 9,7 km/h (2 Bft) SW 225 2 min 0,000 mm 3,8 UV-I 708 W/m 16,7 C 30,5 C 14,5 km/h (3 Bft) 97,56 %
30.07.2017 16:00 30,6 C 23,9 C 40 % 1011,2 hPa 0,0 l/m 4,9 km/h (1 Bft) S-SW 202 2 min 0,584 mm 3,9 UV-I 701 W/m 15,4 C 30,6 C 11,3 km/h (2 Bft) 100,00 %
30.07.2017 16:02 30,4 C 23,9 C 42 % 1011,2 hPa 0,0 l/m 2,6 km/h (1 Bft) S-SW 202 2 min 0,000 mm 3,8 UV-I 696 W/m 16,0 C 30,4 C 4,8 km/h (1 Bft) 95,74 %
30.07.2017 16:04 30,4 C 23,9 C 44 % 1011,2 hPa 0,0 l/m 3,7 km/h (1 Bft) N-NO 18 2 min 0,000 mm 3,7 UV-I 689 W/m 16,7 C 30,4 C 6,4 km/h (2 Bft) 100,00 %
30.07.2017 16:06 30,6 C 23,9 C 40 % 1011,2 hPa 0,0 l/m 1,4 km/h (1 Bft) W-NW 293 2 min 0,000 mm 3,7 UV-I 685 W/m 15,4 C 30,6 C 3,2 km/h (1 Bft) 97,87 %
30.07.2017 16:08 30,7 C 23,9 C 40 % 1011,2 hPa 0,0 l/m 6,8 km/h (2 Bft) W-SW 238 2 min 0,000 mm 3,6 UV-I 680 W/m 15,5 C 30,7 C 9,7 km/h (2 Bft) 97,87 %
30.07.2017 16:10 30,7 C 23,9 C 41 % 1011,2 hPa 0,0 l/m 5,5 km/h (1 Bft) W-NW 284 2 min 0,000 mm 3,6 UV-I 676 W/m 15,9 C 30,7 C 12,9 km/h (3 Bft) 100,00 %
30.07.2017 16:12 30,6 C 23,9 C 41 % 1011,3 hPa 0,0 l/m 8,9 km/h (2 Bft) W-SW 250 2 min 0,000 mm 3,5 UV-I 669 W/m 15,8 C 30,4 C 16,1 km/h (3 Bft) 96,00 %
30.07.2017 16:14 30,6 C 23,9 C 41 % 1011,2 hPa 0,0 l/m 8,0 km/h (2 Bft) W-NW 290 2 min 0,000 mm 3,5 UV-I 665 W/m 15,8 C 30,5 C 14,5 km/h (3 Bft) 100,00 %
30.07.2017 16:16 30,4 C 23,9 C 40 % 1011,2 hPa 0,0 l/m 8,6 km/h (2 Bft) W 264 2 min 0,000 mm 3,4 UV-I 668 W/m 15,3 C 30,2 C 14,5 km/h (3 Bft) 97,87 %
30.07.2017 16:18 30,4 C 23,9 C 42 % 1011,2 hPa 0,0 l/m 7,3 km/h (2 Bft) W-SW 256 2 min 0,000 mm 3,4 UV-I 655 W/m 16,0 C 30,3 C 9,7 km/h (2 Bft) 97,87 %
30.07.2017 16:20 30,5 C 23,9 C 40 % 1011,2 hPa 0,0 l/m 9,7 km/h (2 Bft) SW 222 2 min 0,000 mm 3,3 UV-I 669 W/m 15,3 C 30,3 C 14,5 km/h (3 Bft) 95,74 %
30.07.2017 16:22 30,5 C 23,9 C 43 % 1011,2 hPa 0,0 l/m 8,0 km/h (2 Bft) W-SW 243 2 min 0,000 mm 3,3 UV-I 686 W/m 16,5 C 30,4 C 14,5 km/h (3 Bft) 97,87 %
30.07.2017 16:24 30,6 C 23,9 C 42 % 1011,2 hPa 0,0 l/m 9,2 km/h (2 Bft) W-SW 247 2 min 0,000 mm 3,3 UV-I 707 W/m 16,2 C 30,4 C 14,5 km/h (3 Bft) 97,92 %
30.07.2017 16:26 30,6 C 23,9 C 42 % 1011,2 hPa 0,0 l/m 8,2 km/h (2 Bft) W-SW 244 2 min 0,000 mm 3,3 UV-I 714 W/m 16,2 C 30,5 C 14,5 km/h (3 Bft) 97,87 %
30.07.2017 16:28 30,6 C 23,9 C 43 % 1011,1 hPa 0,0 l/m 5,6 km/h (1 Bft) W-SW 240 2 min 0,000 mm 3,3 UV-I 716 W/m 16,6 C 30,6 C 9,7 km/h (2 Bft) 98,00 %
30.07.2017 16:30 30,7 C 23,9 C 43 % 1011,1 hPa 0,0 l/m 2,4 km/h (1 Bft) NW 312 2 min 0,000 mm 3,3 UV-I 712 W/m 16,7 C 30,7 C 4,8 km/h (1 Bft) 100,00 %
30.07.2017 16:32 30,7 C 23,9 C 43 % 1011,1 hPa 0,0 l/m 2,8 km/h (1 Bft) NO 43 2 min 0,000 mm 3,2 UV-I 702 W/m 16,7 C 30,7 C 6,4 km/h (2 Bft) 97,87 %
30.07.2017 16:34 30,8 C 23,9 C 45 % 1011,1 hPa 0,0 l/m 3,1 km/h (1 Bft) W 275 2 min 0,000 mm 3,2 UV-I 690 W/m 17,5 C 30,8 C 6,4 km/h (2 Bft) 95,74 %
30.07.2017 16:36 30,8 C 23,9 C 47 % 1011,1 hPa 0,0 l/m 2,7 km/h (1 Bft) SW 231 2 min 0,000 mm 3,1 UV-I 660 W/m 18,2 C 30,8 C 4,8 km/h (1 Bft) 97,87 %
30.07.2017 16:38 30,8 C 23,9 C 43 % 1011,1 hPa 0,0 l/m 7,1 km/h (2 Bft) W-SW 238 2 min 0,000 mm 3,0 UV-I 668 W/m 16,7 C 30,8 C 12,9 km/h (3 Bft) 100,00 %
30.07.2017 16:40 30,7 C 23,9 C 41 % 1011,1 hPa 0,0 l/m 5,6 km/h (1 Bft) W 264 2 min 0,000 mm 2,9 UV-I 639 W/m 15,9 C 30,7 C 9,7 km/h (2 Bft) 97,87 %
30.07.2017 16:42 30,7 C 23,9 C 45 % 1011,1 hPa 0,0 l/m 1,9 km/h (1 Bft) W-NW 294 2 min 0,000 mm 2,8 UV-I 600 W/m 17,4 C 30,7 C 8,0 km/h (2 Bft) 94,00 %
30.07.2017 16:44 30,8 C 23,9 C 44 % 1011,1 hPa 0,0 l/m 4,4 km/h (1 Bft) W-SW 239 2 min 0,000 mm 2,8 UV-I 650 W/m 17,1 C 30,8 C 6,4 km/h (2 Bft) 95,74 %
30.07.2017 16:46 30,7 C 23,9 C 42 % 1011,1 hPa 0,0 l/m 5,6 km/h (1 Bft) SW 236 2 min 0,000 mm 2,6 UV-I 604 W/m 16,3 C 30,7 C 9,7 km/h (2 Bft) 95,74 %
30.07.2017 16:48 30,6 C 23,9 C 44 % 1011,0 hPa 0,0 l/m 3,4 km/h (1 Bft) W-NW 302 2 min 0,000 mm 2,7 UV-I 499 W/m 16,9 C 30,6 C 6,4 km/h (2 Bft) 93,62 %
30.07.2017 16:50 30,6 C 23,9 C 44 % 1011,0 hPa 0,0 l/m 2,6 km/h (1 Bft) W-NW 302 2 min 0,000 mm 2,7 UV-I 631 W/m 16,9 C 30,6 C 6,4 km/h (2 Bft) 95,74 %
30.07.2017 16:52 30,6 C 23,9 C 42 % 1011,0 hPa 0,0 l/m 2,1 km/h (1 Bft) N-NW 337 2 min 0,000 mm 2,7 UV-I 609 W/m 16,2 C 30,6 C 6,4 km/h (2 Bft) 97,87 %
30.07.2017 16:54 30,5 C 23,9 C 43 % 1011,0 hPa 0,0 l/m 0,4 km/h (0 Bft) N 5 2 min 0,000 mm 2,6 UV-I 598 W/m 16,5 C 30,5 C 4,8 km/h (1 Bft) 96,23 %
30.07.2017 16:56 30,6 C 24,4 C 43 % 1011,0 hPa 0,0 l/m 3,0 km/h (1 Bft) N-NO 24 2 min 0,000 mm 2,5 UV-I 590 W/m 16,6 C 30,6 C 6,4 km/h (2 Bft) 94,74 %
30.07.2017 16:58 30,7 C 24,4 C 42 % 1011,0 hPa 0,0 l/m 3,9 km/h (1 Bft) NO 40 2 min 0,000 mm 2,5 UV-I 577 W/m 16,3 C 30,7 C 6,4 km/h (2 Bft) 94,00 %
30.07.2017 17:00 30,7 C 24,4 C 44 % 1010,9 hPa 0,0 l/m 2,4 km/h (1 Bft) W-SW 238 2 min 0,482 mm 2,4 UV-I 579 W/m 17,0 C 30,7 C 8,0 km/h (2 Bft) 97,92 %
30.07.2017 17:02 30,8 C 24,4 C 42 % 1010,9 hPa 0,0 l/m 3,9 km/h (1 Bft) W-SW 246 2 min 0,000 mm 2,4 UV-I 584 W/m 16,4 C 30,8 C 8,0 km/h (2 Bft) 97,92 %
30.07.2017 17:04 30,8 C 24,4 C 44 % 1010,8 hPa 0,0 l/m 4,4 km/h (1 Bft) SW 214 2 min 0,000 mm 2,4 UV-I 591 W/m 17,1 C 30,8 C 8,0 km/h (2 Bft) 97,87 %
30.07.2017 17:06 30,9 C 24,4 C 42 % 1010,8 hPa 0,0 l/m 2,6 km/h (1 Bft) W 260 2 min 0,000 mm 2,4 UV-I 590 W/m 16,5 C 30,9 C 6,4 km/h (2 Bft) 89,36 %
30.07.2017 17:08 31,0 C 24,4 C 43 % 1010,8 hPa 0,0 l/m 2,8 km/h (1 Bft) W-NW 295 2 min 0,000 mm 2,3 UV-I 580 W/m 16,9 C 31,0 C 8,0 km/h (2 Bft) 97,37 %
30.07.2017 17:10 30,9 C 24,4 C 44 % 1010,9 hPa 0,0 l/m 7,5 km/h (2 Bft) W-NW 300 2 min 0,000 mm 2,3 UV-I 570 W/m 17,2 C 30,8 C 11,3 km/h (2 Bft) 100,00 %
30.07.2017 17:12 30,9 C 24,4 C 44 % 1010,9 hPa 0,0 l/m 3,1 km/h (1 Bft) W-NW 288 2 min 0,000 mm 2,2 UV-I 577 W/m 17,2 C 30,9 C 6,4 km/h (2 Bft) 100,00 %
30.07.2017 17:14 30,9 C 24,4 C 42 % 1010,9 hPa 0,0 l/m 4,4 km/h (1 Bft) W-SW 249 2 min 0,000 mm 2,1 UV-I 507 W/m 16,5 C 30,9 C 8,0 km/h (2 Bft) 97,87 %
30.07.2017 17:16 30,9 C 24,4 C 43 % 1010,8 hPa 0,0 l/m 3,5 km/h (1 Bft) SW 221 2 min 0,000 mm 2,1 UV-I 512 W/m 16,8 C 30,9 C 8,0 km/h (2 Bft) 95,74 %
30.07.2017 17:18 30,9 C 24,4 C 42 % 1010,8 hPa 0,0 l/m 6,7 km/h (2 Bft) W 266 2 min 0,000 mm 1,9 UV-I 532 W/m 16,5 C 30,9 C 11,3 km/h (2 Bft) 100,00 %
30.07.2017 17:20 30,8 C 24,4 C 42 % 1010,8 hPa 0,0 l/m 3,4 km/h (1 Bft) W-NW 284 2 min 0,000 mm 2,0 UV-I 450 W/m 16,4 C 30,8 C 6,4 km/h (2 Bft) 100,00 %
30.07.2017 17:22 30,8 C 24,4 C 43 % 1010,7 hPa 0,0 l/m 1,4 km/h (1 Bft) W 272 2 min 0,000 mm 2,0 UV-I 511 W/m 16,7 C 30,8 C 6,4 km/h (2 Bft) 97,87 %
30.07.2017 17:24 30,8 C 24,4 C 42 % 1010,8 hPa 0,0 l/m 5,9 km/h (2 Bft) S 191 2 min 0,000 mm 1,9 UV-I 515 W/m 16,4 C 30,8 C 11,3 km/h (2 Bft) 98,00 %
30.07.2017 17:26 30,8 C 24,4 C 41 % 1010,8 hPa 0,0 l/m 7,9 km/h (2 Bft) SW 222 2 min 0,000 mm 1,9 UV-I 508 W/m 16,0 C 30,7 C 11,3 km/h (2 Bft) 98,00 %
30.07.2017 17:28 30,8 C 24,4 C 40 % 1010,8 hPa 0,0 l/m 7,7 km/h (2 Bft) W-SW 240 2 min 0,000 mm 1,9 UV-I 497 W/m 15,6 C 30,7 C 11,3 km/h (2 Bft) 95,74 %
30.07.2017 17:30 30,8 C 24,4 C 40 % 1010,7 hPa 0,0 l/m 4,5 km/h (1 Bft) S-SW 209 2 min 0,000 mm 1,8 UV-I 486 W/m 15,6 C 30,8 C 8,0 km/h (2 Bft) 95,74 %
30.07.2017 17:32 30,8 C 24,4 C 43 % 1010,8 hPa 0,0 l/m 6,0 km/h (2 Bft) S-SW 209 2 min 0,000 mm 1,7 UV-I 478 W/m 16,7 C 30,8 C 11,3 km/h (2 Bft) 98,00 %
30.07.2017 17:34 30,9 C 24,4 C 43 % 1010,7 hPa 0,0 l/m 6,4 km/h (2 Bft) SW 236 2 min 0,000 mm 1,7 UV-I 471 W/m 16,8 C 30,9 C 9,7 km/h (2 Bft) 97,37 %
30.07.2017 17:36 30,9 C 24,4 C 41 % 1010,7 hPa 0,0 l/m 6,1 km/h (2 Bft) W 260 2 min 0,000 mm 1,6 UV-I 463 W/m 16,1 C 30,9 C 8,0 km/h (2 Bft) 93,75 %
30.07.2017 17:38 30,8 C 24,4 C 42 % 1010,7 hPa 0,0 l/m 4,2 km/h (1 Bft) W-SW 255 2 min 0,000 mm 1,6 UV-I 456 W/m 16,4 C 30,8 C 9,7 km/h (2 Bft) 91,49 %
30.07.2017 17:40 30,7 C 24,4 C 41 % 1010,6 hPa 0,0 l/m 3,5 km/h (1 Bft) W-SW 238 2 min 0,000 mm 1,6 UV-I 449 W/m 15,9 C 30,7 C 6,4 km/h (2 Bft) 93,62 %
30.07.2017 17:42 30,6 C 24,4 C 44 % 1010,7 hPa 0,0 l/m 3,4 km/h (1 Bft) W 265 2 min 0,000 mm 1,5 UV-I 441 W/m 16,9 C 30,6 C 9,7 km/h (2 Bft) 95,74 %
30.07.2017 17:44 30,7 C 24,4 C 41 % 1010,7 hPa 0,0 l/m 3,9 km/h (1 Bft) W 273 2 min 0,000 mm 1,5 UV-I 436 W/m 15,9 C 30,7 C 9,7 km/h (2 Bft) 95,74 %
30.07.2017 17:46 30,6 C 24,4 C 42 % 1010,7 hPa 0,0 l/m 4,1 km/h (1 Bft) NW 313 2 min 0,000 mm 1,5 UV-I 429 W/m 16,2 C 30,6 C 11,3 km/h (2 Bft) 91,49 %
30.07.2017 17:48 30,6 C 24,4 C 46 % 1010,6 hPa 0,0 l/m 2,1 km/h (1 Bft) N-NW 347 2 min 0,000 mm 1,4 UV-I 421 W/m 17,6 C 30,6 C 6,4 km/h (2 Bft) 89,36 %
30.07.2017 17:50 30,6 C 24,4 C 46 % 1010,7 hPa 0,0 l/m 3,4 km/h (1 Bft) W-NW 292 2 min 0,000 mm 1,4 UV-I 415 W/m 17,6 C 30,6 C 4,8 km/h (1 Bft) 98,00 %
30.07.2017 17:52 30,6 C 24,4 C 43 % 1010,7 hPa 0,0 l/m 3,5 km/h (1 Bft) NW 316 2 min 0,000 mm 1,3 UV-I 409 W/m 16,6 C 30,6 C 6,4 km/h (2 Bft) 96,00 %
30.07.2017 17:54 30,7 C 24,4 C 45 % 1010,8 hPa 0,0 l/m 1,8 km/h (1 Bft) NW 307 2 min 0,000 mm 1,3 UV-I 398 W/m 17,4 C 30,7 C 4,8 km/h (1 Bft) 95,12 %
30.07.2017 17:56 30,7 C 24,4 C 43 % 1010,8 hPa 0,0 l/m 4,7 km/h (1 Bft) NW 324 2 min 0,000 mm 1,3 UV-I 390 W/m 16,7 C 30,7 C 12,9 km/h (3 Bft) 89,36 %
30.07.2017 17:58 30,7 C 24,4 C 42 % 1010,7 hPa 0,0 l/m 4,0 km/h (1 Bft) SW 236 2 min 0,000 mm 1,2 UV-I 383 W/m 16,3 C 30,7 C 9,7 km/h (2 Bft) 91,49 %
30.07.2017 18:00 30,7 C 24,4 C 42 % 1010,8 hPa 0,0 l/m 3,8 km/h (1 Bft) S-SW 192 2 min 0,381 mm 1,2 UV-I 375 W/m 16,3 C 30,7 C 8,0 km/h (2 Bft) 90,00 %
30.07.2017 18:02 30,8 C 24,4 C 43 % 1010,7 hPa 0,0 l/m 3,0 km/h (1 Bft) W-NW 296 2 min 0,000 mm 1,2 UV-I 370 W/m 16,7 C 30,8 C 6,4 km/h (2 Bft) 97,87 %
30.07.2017 18:04 30,7 C 24,4 C 40 % 1010,7 hPa 0,0 l/m 3,3 km/h (1 Bft) W-NW 285 2 min 0,000 mm 1,0 UV-I 327 W/m 15,5 C 30,7 C 6,4 km/h (2 Bft) 92,00 %
30.07.2017 18:06 30,5 C 24,4 C 41 % 1010,7 hPa 0,0 l/m 4,5 km/h (1 Bft) W 277 0 min 0,000 mm 1,0 UV-I 210 W/m 15,7 C 30,5 C 6,4 km/h (2 Bft) 100,00 %
30.07.2017 18:08 30,3 C 24,4 C 40 % 1010,8 hPa 0,0 l/m 3,3 km/h (1 Bft) W-SW 254 0 min 0,000 mm 0,8 UV-I 139 W/m 15,2 C 30,3 C 6,4 km/h (2 Bft) 97,14 %
30.07.2017 18:10 30,2 C 24,4 C 39 % 1010,8 hPa 0,0 l/m 3,1 km/h (1 Bft) W-SW 254 0 min 0,000 mm 0,9 UV-I 178 W/m 14,7 C 30,2 C 6,4 km/h (2 Bft) 97,96 %
30.07.2017 18:12 30,3 C 24,4 C 39 % 1010,8 hPa 0,0 l/m 3,2 km/h (1 Bft) W-SW 254 2 min 0,000 mm 0,9 UV-I 243 W/m 14,8 C 30,3 C 4,8 km/h (1 Bft) 100,00 %
30.07.2017 18:14 30,3 C 24,4 C 40 % 1010,8 hPa 0,0 l/m 4,6 km/h (1 Bft) SW 225 2 min 0,000 mm 0,9 UV-I 277 W/m 15,2 C 30,3 C 8,0 km/h (2 Bft) 97,87 %
30.07.2017 18:16 30,3 C 24,4 C 39 % 1010,8 hPa 0,0 l/m 4,7 km/h (1 Bft) SW 215 0 min 0,000 mm 0,8 UV-I 197 W/m 14,8 C 30,3 C 6,4 km/h (2 Bft) 93,75 %
30.07.2017 18:18 30,2 C 24,4 C 41 % 1010,8 hPa 0,0 l/m 3,6 km/h (1 Bft) SW 215 0 min 0,000 mm 0,7 UV-I 154 W/m 15,5 C 30,2 C 4,8 km/h (1 Bft) 100,00 %
30.07.2017 18:20 30,1 C 24,4 C 41 % 1010,8 hPa 0,0 l/m 0,8 km/h (0 Bft) SW 215 2 min 0,000 mm 0,8 UV-I 271 W/m 15,4 C 30,1 C 1,6 km/h (1 Bft) 91,49 %
30.07.2017 18:22 30,2 C 24,4 C 40 % 1010,8 hPa 0,0 l/m 0,3 km/h (0 Bft) SW 215 2 min 0,000 mm 0,8 UV-I 294 W/m 15,1 C 30,2 C 1,6 km/h (1 Bft) 93,62 %
30.07.2017 18:24 30,2 C 24,4 C 40 % 1010,8 hPa 0,0 l/m 0,2 km/h (0 Bft) SW 215 0 min 0,000 mm 0,7 UV-I 182 W/m 15,1 C 30,2 C 1,6 km/h (1 Bft) 97,87 %
30.07.2017 18:26 30,3 C 24,4 C 41 % 1010,9 hPa 0,0 l/m 1,1 km/h (1 Bft) SW 215 0 min 0,000 mm 0,6 UV-I 157 W/m 15,6 C 30,3 C 3,2 km/h (1 Bft) 91,49 %
30.07.2017 18:28 30,2 C 24,4 C 43 % 1010,9 hPa 0,0 l/m 0,8 km/h (0 Bft) N-NO 17 0 min 0,000 mm 0,6 UV-I 154 W/m 16,2 C 30,2 C 3,2 km/h (1 Bft) 96,00 %
30.07.2017 18:30 30,0 C 24,4 C 46 % 1010,9 hPa 0,0 l/m 0,1 km/h (0 Bft) N-NO 17 0 min 0,000 mm 0,6 UV-I 151 W/m 17,1 C 30,0 C 1,6 km/h (1 Bft) 97,87 %
30.07.2017 18:32 29,8 C 24,4 C 46 % 1010,9 hPa 0,0 l/m 2,3 km/h (1 Bft) N 5 0 min 0,000 mm 0,5 UV-I 168 W/m 16,9 C 29,8 C 4,8 km/h (1 Bft) 95,74 %
30.07.2017 18:34 29,6 C 24,4 C 46 % 1010,9 hPa 0,0 l/m 1,6 km/h (1 Bft) N-NO 17 2 min 0,000 mm 0,5 UV-I 194 W/m 16,7 C 29,6 C 4,8 km/h (1 Bft) 97,87 %
30.07.2017 18:36 29,4 C 24,4 C 49 % 1010,9 hPa 0,0 l/m 0,7 km/h (0 Bft) N-NO 17 2 min 0,000 mm 0,6 UV-I 233 W/m 17,5 C 29,4 C 3,2 km/h (1 Bft) 98,00 %
30.07.2017 18:38 29,4 C 24,4 C 51 % 1010,9 hPa 0,0 l/m 0,8 km/h (0 Bft) N-NO 17 2 min 0,000 mm 0,5 UV-I 219 W/m 18,2 C 29,4 C 3,2 km/h (1 Bft) 95,12 %
30.07.2017 18:40 29,3 C 24,4 C 49 % 1010,9 hPa 0,0 l/m 0,7 km/h (0 Bft) N-NO 17 0 min 0,000 mm 0,5 UV-I 168 W/m 17,5 C 29,3 C 3,2 km/h (1 Bft) 97,87 %
30.07.2017 18:42 29,2 C 24,4 C 50 % 1010,9 hPa 0,0 l/m 1,4 km/h (1 Bft) N 355 0 min 0,000 mm 0,5 UV-I 162 W/m 17,7 C 29,2 C 4,8 km/h (1 Bft) 95,74 %
30.07.2017 18:44 29,2 C 24,4 C 50 % 1010,9 hPa 0,0 l/m 1,4 km/h (1 Bft) N 11 0 min 0,000 mm 0,5 UV-I 156 W/m 17,7 C 29,2 C 4,8 km/h (1 Bft) 95,74 %
30.07.2017 18:46 29,1 C 24,4 C 51 % 1010,8 hPa 0,0 l/m 1,6 km/h (1 Bft) N 11 0 min 0,000 mm 0,0 UV-I 151 W/m 17,9 C 29,1 C 3,2 km/h (1 Bft) 94,00 %
30.07.2017 18:48 29,0 C 24,4 C 51 % 1010,8 hPa 0,0 l/m 0,6 km/h (0 Bft) N 11 0 min 0,000 mm 0,0 UV-I 145 W/m 17,8 C 29,0 C 1,6 km/h (1 Bft) 95,74 %
30.07.2017 18:50 28,9 C 24,4 C 50 % 1010,8 hPa 0,0 l/m 0,4 km/h (0 Bft) N 11 0 min 0,000 mm 0,0 UV-I 140 W/m 17,4 C 28,9 C 1,6 km/h (1 Bft) 94,74 %
30.07.2017 18:52 28,8 C 24,4 C 51 % 1010,8 hPa 0,0 l/m 0,1 km/h (0 Bft) N 11 0 min 0,000 mm 0,0 UV-I 137 W/m 17,6 C 28,8 C 1,6 km/h (1 Bft) 95,74 %
30.07.2017 18:54 28,8 C 24,4 C 52 % 1010,8 hPa 0,0 l/m 0,5 km/h (0 Bft) N 5 0 min 0,000 mm 0,0 UV-I 135 W/m 17,9 C 28,8 C 3,2 km/h (1 Bft) 93,75 %
30.07.2017 18:56 28,8 C 24,4 C 54 % 1010,8 hPa 0,0 l/m 0,2 km/h (0 Bft) N 5 0 min 0,000 mm 0,0 UV-I 132 W/m 18,5 C 28,8 C 1,6 km/h (1 Bft) 91,84 %
30.07.2017 18:58 28,7 C 24,4 C 52 % 1010,8 hPa 0,0 l/m 0,1 km/h (0 Bft) N 5 0 min 0,000 mm 0,0 UV-I 138 W/m 17,8 C 28,7 C 1,6 km/h (1 Bft) 95,74 %
30.07.2017 19:00 28,8 C 24,4 C 51 % 1010,9 hPa 0,0 l/m 0,0 km/h (0 Bft) N 5 2 min 0,153 mm 0,0 UV-I 220 W/m 17,6 C 28,8 C 1,6 km/h (1 Bft) 100,00 %
30.07.2017 19:02 28,9 C 24,4 C 50 % 1010,9 hPa 0,0 l/m 0,0 km/h (0 Bft) N 5 2 min 0,000 mm 0,0 UV-I 258 W/m 17,4 C 28,9 C 0,0 km/h (0 Bft) 100,00 %
30.07.2017 19:04 29,1 C 24,4 C 50 % 1010,9 hPa 0,0 l/m 0,2 km/h (0 Bft) N 5 2 min 0,000 mm 0,0 UV-I 255 W/m 17,6 C 29,1 C 1,6 km/h (1 Bft) 97,87 %
30.07.2017 19:06 29,3 C 24,4 C 51 % 1010,8 hPa 0,0 l/m 0,4 km/h (0 Bft) N 5 2 min 0,000 mm 0,0 UV-I 251 W/m 18,1 C 29,3 C 1,6 km/h (1 Bft) 100,00 %
30.07.2017 19:08 29,4 C 24,4 C 49 % 1010,8 hPa 0,0 l/m 0,8 km/h (0 Bft) N 5 2 min 0,000 mm 0,0 UV-I 247 W/m 17,5 C 29,4 C 1,6 km/h (1 Bft) 97,87 %
30.07.2017 19:10 29,4 C 24,4 C 50 % 1010,7 hPa 0,0 l/m 0,4 km/h (0 Bft) N 5 2 min 0,000 mm 0,0 UV-I 241 W/m 17,9 C 29,4 C 1,6 km/h (1 Bft) 96,00 %
30.07.2017 19:12 29,6 C 24,4 C 49 % 1010,7 hPa 0,0 l/m 0,6 km/h (0 Bft) N-NO 15 2 min 0,000 mm 0,0 UV-I 232 W/m 17,7 C 29,6 C 6,4 km/h (2 Bft) 100,00 %
30.07.2017 19:14 29,7 C 24,4 C 49 % 1010,7 hPa 0,0 l/m 4,1 km/h (1 Bft) N-NO 17 2 min 0,000 mm 0,0 UV-I 223 W/m 17,8 C 29,7 C 6,4 km/h (2 Bft) 97,87 %
30.07.2017 19:16 29,7 C 24,4 C 48 % 1010,7 hPa 0,0 l/m 3,9 km/h (1 Bft) N-NO 18 2 min 0,000 mm 0,0 UV-I 215 W/m 17,5 C 29,7 C 6,4 km/h (2 Bft) 95,74 %
30.07.2017 19:18 29,7 C 24,4 C 49 % 1010,7 hPa 0,0 l/m 4,7 km/h (1 Bft) N-NO 23 2 min 0,000 mm 0,0 UV-I 207 W/m 17,8 C 29,7 C 6,4 km/h (2 Bft) 97,87 %
30.07.2017 19:20 29,7 C 24,4 C 50 % 1010,7 hPa 0,0 l/m 5,1 km/h (1 Bft) NO 40 2 min 0,000 mm 0,0 UV-I 199 W/m 18,1 C 29,7 C 6,4 km/h (2 Bft) 100,00 %
30.07.2017 19:22 29,7 C 24,4 C 50 % 1010,6 hPa 0,0 l/m 5,2 km/h (1 Bft) NO 40 2 min 0,000 mm 0,0 UV-I 189 W/m 18,1 C 29,7 C 6,4 km/h (2 Bft) 98,00 %
30.07.2017 19:24 29,6 C 24,4 C 50 % 1010,6 hPa 0,0 l/m 5,2 km/h (1 Bft) NO 41 2 min 0,000 mm 0,0 UV-I 178 W/m 18,1 C 29,6 C 6,4 km/h (2 Bft) 95,74 %
30.07.2017 19:26 29,5 C 24,4 C 49 % 1010,6 hPa 0,0 l/m 4,3 km/h (1 Bft) NO 41 2 min 0,000 mm 0,0 UV-I 169 W/m 17,6 C 29,5 C 6,4 km/h (2 Bft) 95,74 %
30.07.2017 19:28 29,4 C 24,4 C 50 % 1010,6 hPa 0,0 l/m 4,2 km/h (1 Bft) N-NO 33 2 min 0,000 mm 0,0 UV-I 161 W/m 17,9 C 29,4 C 6,4 km/h (2 Bft) 100,00 %
30.07.2017 19:30 29,4 C 24,4 C 49 % 1010,7 hPa 0,0 l/m 2,8 km/h (1 Bft) N-NO 32 2 min 0,000 mm 0,0 UV-I 155 W/m 17,5 C 29,4 C 4,8 km/h (1 Bft) 100,00 %
30.07.2017 19:32 29,4 C 24,4 C 51 % 1010,7 hPa 0,0 l/m 2,4 km/h (1 Bft) N-NO 33 2 min 0,000 mm 0,0 UV-I 147 W/m 18,2 C 29,4 C 4,8 km/h (1 Bft) 97,87 %
30.07.2017 19:34 29,4 C 24,4 C 50 % 1010,7 hPa 0,0 l/m 3,8 km/h (1 Bft) NO 40 2 min 0,000 mm 0,0 UV-I 140 W/m 17,9 C 29,4 C 6,4 km/h (2 Bft) 97,87 %
30.07.2017 19:36 29,3 C 24,4 C 51 % 1010,7 hPa 0,0 l/m 5,7 km/h (1 Bft) NO 52 2 min 0,000 mm 0,0 UV-I 132 W/m 18,1 C 29,3 C 8,0 km/h (2 Bft) 97,87 %
30.07.2017 19:38 29,3 C 24,4 C 51 % 1010,7 hPa 0,0 l/m 6,2 km/h (2 Bft) NO 44 2 min 0,000 mm 0,0 UV-I 124 W/m 18,1 C 29,3 C 8,0 km/h (2 Bft) 95,83 %
30.07.2017 19:40 29,2 C 24,4 C 51 % 1010,7 hPa 0,0 l/m 6,1 km/h (2 Bft) NO 46 2 min 0,000 mm 0,0 UV-I 114 W/m 18,0 C 29,2 C 8,0 km/h (2 Bft) 97,87 %
30.07.2017 19:42 29,1 C 24,4 C 53 % 1010,7 hPa 0,0 l/m 5,9 km/h (2 Bft) NO 42 2 min 0,000 mm 0,0 UV-I 105 W/m 18,5 C 29,1 C 8,0 km/h (2 Bft) 98,00 %
30.07.2017 19:44 28,9 C 24,4 C 54 % 1010,7 hPa 0,0 l/m 4,9 km/h (1 Bft) NO 46 2 min 0,000 mm 0,0 UV-I 97 W/m 18,6 C 28,9 C 6,4 km/h (2 Bft) 97,37 %
30.07.2017 19:46 28,9 C 24,4 C 52 % 1010,7 hPa 0,0 l/m 5,3 km/h (1 Bft) O-NO 57 2 min 0,000 mm 0,0 UV-I 92 W/m 18,0 C 28,9 C 6,4 km/h (2 Bft) 100,00 %
30.07.2017 19:48 28,9 C 24,4 C 51 % 1010,7 hPa 0,0 l/m 4,5 km/h (1 Bft) O-NO 65 2 min 0,000 mm 0,0 UV-I 83 W/m 17,7 C 28,9 C 6,4 km/h (2 Bft) 100,00 %
30.07.2017 19:50 28,8 C 24,4 C 53 % 1010,7 hPa 0,0 l/m 4,2 km/h (1 Bft) O-NO 65 0 min 0,000 mm 0,0 UV-I 58 W/m 18,2 C 28,8 C 6,4 km/h (2 Bft) 97,87 %
30.07.2017 19:52 28,6 C 24,4 C 54 % 1010,7 hPa 0,0 l/m 4,4 km/h (1 Bft) O 84 0 min 0,000 mm 0,0 UV-I 61 W/m 18,4 C 28,6 C 6,4 km/h (2 Bft) 98,00 %
30.07.2017 19:54 28,5 C 24,4 C 54 % 1010,8 hPa 0,0 l/m 5,1 km/h (1 Bft) O 89 0 min 0,000 mm 0,0 UV-I 59 W/m 18,3 C 28,5 C 6,4 km/h (2 Bft) 95,74 %
30.07.2017 19:56 28,3 C 24,4 C 54 % 1010,7 hPa 0,0 l/m 5,2 km/h (1 Bft) O-SO 104 0 min 0,000 mm 0,0 UV-I 54 W/m 18,1 C 28,3 C 8,0 km/h (2 Bft) 95,74 %
30.07.2017 19:58 28,2 C 24,4 C 54 % 1010,8 hPa 0,0 l/m 4,8 km/h (1 Bft) O 94 0 min 0,000 mm 0,0 UV-I 46 W/m 18,0 C 28,2 C 6,4 km/h (2 Bft) 100,00 %
30.07.2017 20:00 28,1 C 24,4 C 55 % 1010,7 hPa 0,0 l/m 5,9 km/h (2 Bft) O 95 0 min 0,000 mm 0,0 UV-I 32 W/m 18,2 C 28,1 C 9,7 km/h (2 Bft) 97,87 %
30.07.2017 20:02 27,9 C 24,4 C 55 % 1010,7 hPa 0,0 l/m 5,6 km/h (1 Bft) O-SO 113 0 min 0,152 mm 0,0 UV-I 28 W/m 18,0 C 27,9 C 9,7 km/h (2 Bft) 95,74 %
30.07.2017 20:04 27,8 C 24,4 C 56 % 1010,8 hPa 0,0 l/m 5,8 km/h (2 Bft) O-SO 121 0 min 0,000 mm 0,0 UV-I 26 W/m 18,2 C 27,8 C 9,7 km/h (2 Bft) 97,37 %
30.07.2017 20:06 27,7 C 24,4 C 55 % 1010,8 hPa 0,0 l/m 4,2 km/h (1 Bft) O 101 0 min 0,000 mm 0,0 UV-I 23 W/m 17,8 C 27,7 C 6,4 km/h (2 Bft) 96,00 %
30.07.2017 20:08 27,6 C 24,4 C 56 % 1010,8 hPa 0,0 l/m 3,5 km/h (1 Bft) O 95 0 min 0,000 mm 0,0 UV-I 22 W/m 18,0 C 27,6 C 4,8 km/h (1 Bft) 95,74 %
30.07.2017 20:10 27,4 C 24,4 C 58 % 1010,9 hPa 0,0 l/m 3,2 km/h (1 Bft) O 95 0 min 0,000 mm 0,0 UV-I 19 W/m 18,4 C 27,4 C 4,8 km/h (1 Bft) 93,62 %
30.07.2017 20:12 27,3 C 24,4 C 57 % 1010,8 hPa 0,0 l/m 3,5 km/h (1 Bft) O 95 0 min 0,000 mm 0,0 UV-I 15 W/m 18,0 C 27,3 C 4,8 km/h (1 Bft) 93,75 %
30.07.2017 20:14 27,2 C 24,4 C 57 % 1010,9 hPa 0,0 l/m 3,1 km/h (1 Bft) O 95 0 min 0,000 mm 0,0 UV-I 14 W/m 17,9 C 27,2 C 4,8 km/h (1 Bft) 95,74 %
30.07.2017 20:16 27,2 C 24,4 C 58 % 1010,9 hPa 0,0 l/m 3,8 km/h (1 Bft) O 95 0 min 0,000 mm 0,0 UV-I 12 W/m 18,2 C 27,2 C 4,8 km/h (1 Bft) 98,00 %
30.07.2017 20:18 27,1 C 24,4 C 58 % 1011,0 hPa 0,0 l/m 2,2 km/h (1 Bft) O 97 0 min 0,000 mm 0,0 UV-I 11 W/m 18,1 C 27,1 C 4,8 km/h (1 Bft) 95,74 %
30.07.2017 20:20 27,1 C 24,4 C 58 % 1011,0 hPa 0,0 l/m 1,8 km/h (1 Bft) O 98 0 min 0,000 mm 0,0 UV-I 11 W/m 18,1 C 27,1 C 3,2 km/h (1 Bft) 93,62 %
30.07.2017 20:22 27,1 C 24,4 C 58 % 1011,0 hPa 0,0 l/m 1,1 km/h (1 Bft) O 98 0 min 0,000 mm 0,0 UV-I 11 W/m 18,1 C 27,1 C 3,2 km/h (1 Bft) 91,49 %
30.07.2017 20:24 26,9 C 24,4 C 60 % 1011,1 hPa 0,0 l/m 1,9 km/h (1 Bft) O 98 0 min 0,000 mm 0,0 UV-I 10 W/m 18,5 C 26,9 C 3,2 km/h (1 Bft) 93,62 %
30.07.2017 20:26 26,7 C 24,4 C 60 % 1011,1 hPa 0,0 l/m 1,5 km/h (1 Bft) O 98 0 min 0,000 mm 0,0 UV-I 9 W/m 18,3 C 26,7 C 3,2 km/h (1 Bft) 91,49 %
30.07.2017 20:28 26,4 C 24,4 C 61 % 1011,2 hPa 0,0 l/m 1,2 km/h (1 Bft) O 98 0 min 0,000 mm 0,0 UV-I 9 W/m 18,3 C 26,4 C 3,2 km/h (1 Bft) 97,87 %
30.07.2017 20:30 26,3 C 24,4 C 62 % 1011,2 hPa 0,0 l/m 0,9 km/h (0 Bft) O 98 0 min 0,000 mm 0,0 UV-I 9 W/m 18,4 C 26,3 C 3,2 km/h (1 Bft) 97,87 %
30.07.2017 20:32 26,1 C 24,4 C 63 % 1011,2 hPa 0,0 l/m 1,0 km/h (0 Bft) O 98 0 min 0,000 mm 0,0 UV-I 7 W/m 18,5 C 26,1 C 3,2 km/h (1 Bft) 96,00 %
30.07.2017 20:34 26,1 C 24,4 C 63 % 1011,2 hPa 0,0 l/m 0,7 km/h (0 Bft) O 98 0 min 0,000 mm 0,0 UV-I 7 W/m 18,5 C 26,1 C 3,2 km/h (1 Bft) 95,74 %
30.07.2017 20:36 25,9 C 24,4 C 63 % 1011,2 hPa 0,0 l/m 0,3 km/h (0 Bft) O 98 0 min 0,000 mm 0,0 UV-I 7 W/m 18,3 C 25,9 C 1,6 km/h (1 Bft) 91,49 %
30.07.2017 20:38 25,8 C 24,4 C 65 % 1011,3 hPa 0,0 l/m 0,1 km/h (0 Bft) O 98 0 min 0,000 mm 0,0 UV-I 7 W/m 18,7 C 25,8 C 1,6 km/h (1 Bft) 95,74 %
30.07.2017 20:40 25,4 C 24,4 C 66 % 1011,3 hPa 0,0 l/m 2,3 km/h (1 Bft) O 98 0 min 0,000 mm 0,0 UV-I 6 W/m 18,6 C 25,4 C 4,8 km/h (1 Bft) 93,62 %
30.07.2017 20:42 25,3 C 24,4 C 66 % 1011,4 hPa 0,0 l/m 0,1 km/h (0 Bft) O 98 0 min 0,000 mm 0,0 UV-I 5 W/m 18,5 C 25,3 C 1,6 km/h (1 Bft) 94,29 %
30.07.2017 20:44 25,2 C 24,4 C 66 % 1011,4 hPa 0,0 l/m 0,0 km/h (0 Bft) O 98 0 min 0,000 mm 0,0 UV-I 5 W/m 18,4 C 25,2 C 0,0 km/h (0 Bft) 93,62 %
30.07.2017 20:46 25,2 C 24,4 C 66 % 1011,4 hPa 0,0 l/m 0,0 km/h (0 Bft) O 98 0 min 0,000 mm 0,0 UV-I 5 W/m 18,4 C 25,2 C 0,0 km/h (0 Bft) 95,74 %
30.07.2017 20:48 25,3 C 24,4 C 66 % 1011,4 hPa 0,0 l/m 0,1 km/h (0 Bft) O 98 0 min 0,000 mm 0,0 UV-I 5 W/m 18,5 C 25,3 C 1,6 km/h (1 Bft) 91,49 %
30.07.2017 20:50 25,3 C 24,4 C 66 % 1011,4 hPa 0,0 l/m 0,0 km/h (0 Bft) O 98 0 min 0,000 mm 0,0 UV-I 5 W/m 18,5 C 25,3 C 0,0 km/h (0 Bft) 95,83 %
30.07.2017 20:52 25,3 C 24,4 C 67 % 1011,4 hPa 0,0 l/m 0,0 km/h (0 Bft) O 98 0 min 0,000 mm 0,0 UV-I 5 W/m 18,7 C 25,3 C 0,0 km/h (0 Bft) 97,87 %
30.07.2017 20:54 25,0 C 24,4 C 68 % 1011,5 hPa 0,0 l/m 1,2 km/h (1 Bft) O 98 0 min 0,000 mm 0,0 UV-I 5 W/m 18,7 C 25,0 C 3,2 km/h (1 Bft) 91,49 %
30.07.2017 20:56 24,7 C 24,4 C 69 % 1011,5 hPa 0,0 l/m 1,6 km/h (1 Bft) O 98 0 min 0,000 mm 0,0 UV-I 2 W/m 18,6 C 24,7 C 3,2 km/h (1 Bft) 95,74 %
30.07.2017 20:58 24,4 C 24,4 C 70 % 1011,5 hPa 0,0 l/m 0,1 km/h (0 Bft) O 98 0 min 0,000 mm 0,0 UV-I 0 W/m 18,6 C 24,4 C 1,6 km/h (1 Bft) 97,87 %
30.07.2017 21:00 24,4 C 24,4 C 70 % 1011,5 hPa 0,0 l/m 0,0 km/h (0 Bft) O 98 0 min 0,000 mm 0,0 UV-I 0 W/m 18,6 C 24,4 C 0,0 km/h (0 Bft) 89,36 %
30.07.2017 21:02 24,5 C 24,4 C 70 % 1011,6 hPa 0,0 l/m 0,0 km/h (0 Bft) O 98 0 min 0,026 mm 0,0 UV-I 0 W/m 18,7 C 24,5 C 0,0 km/h (0 Bft) 95,74 %
30.07.2017 21:04 24,3 C 24,4 C 71 % 1011,6 hPa 0,0 l/m 0,0 km/h (0 Bft) O 98 0 min 0,000 mm 0,0 UV-I 0 W/m 18,7 C 24,3 C 0,0 km/h (0 Bft) 97,87 %
30.07.2017 21:06 24,2 C 24,4 C 71 % 1011,6 hPa 0,0 l/m 0,0 km/h (0 Bft) O 98 0 min 0,000 mm 0,0 UV-I 0 W/m 18,6 C 24,2 C 0,0 km/h (0 Bft) 91,49 %
30.07.2017 21:08 24,2 C 24,4 C 72 % 1011,7 hPa 0,0 l/m 0,0 km/h (0 Bft) O 98 0 min 0,000 mm 0,0 UV-I 0 W/m 18,8 C 24,2 C 0,0 km/h (0 Bft) 95,74 %
30.07.2017 21:10 24,1 C 24,4 C 71 % 1011,6 hPa 0,0 l/m 0,0 km/h (0 Bft) O 98 0 min 0,000 mm 0,0 UV-I 0 W/m 18,5 C 24,1 C 0,0 km/h (0 Bft) 95,74 %
30.07.2017 21:12 24,2 C 24,4 C 72 % 1011,7 hPa 0,0 l/m 0,0 km/h (0 Bft) O 98 0 min 0,000 mm 0,0 UV-I 0 W/m 18,8 C 24,2 C 0,0 km/h (0 Bft) 89,36 %
30.07.2017 21:14 24,1 C 24,4 C 72 % 1011,7 hPa 0,0 l/m 0,0 km/h (0 Bft) O 98 0 min 0,000 mm 0,0 UV-I 0 W/m 18,7 C 24,1 C 0,0 km/h (0 Bft) 91,49 %
30.07.2017 21:16 24,0 C 24,4 C 72 % 1011,7 hPa 0,0 l/m 0,0 km/h (0 Bft) O 98 0 min 0,000 mm 0,0 UV-I 0 W/m 18,6 C 24,0 C 0,0 km/h (0 Bft) 93,62 %
30.07.2017 21:18 23,9 C 24,4 C 72 % 1011,8 hPa 0,0 l/m 0,0 km/h (0 Bft) O 98 0 min 0,000 mm 0,0 UV-I 0 W/m 18,5 C 23,9 C 0,0 km/h (0 Bft) 95,74 %
30.07.2017 21:20 23,8 C 24,4 C 72 % 1011,8 hPa 0,0 l/m 0,0 km/h (0 Bft) O 98 0 min 0,000 mm 0,0 UV-I 0 W/m 18,4 C 23,8 C 0,0 km/h (0 Bft) 95,74 %
30.07.2017 21:22 23,7 C 24,4 C 73 % 1011,9 hPa 0,0 l/m 0,0 km/h (0 Bft) O 98 0 min 0,000 mm 0,0 UV-I 0 W/m 18,6 C 23,7 C 0,0 km/h (0 Bft) 91,49 %
30.07.2017 21:24 23,6 C 24,4 C 73 % 1011,8 hPa 0,0 l/m 0,0 km/h (0 Bft) O 98 0 min 0,000 mm 0,0 UV-I 0 W/m 18,5 C 23,6 C 0,0 km/h (0 Bft) 97,87 %
30.07.2017 21:26 23,6 C 24,4 C 73 % 1011,9 hPa 0,0 l/m 0,0 km/h (0 Bft) O 98 0 min 0,000 mm 0,0 UV-I 0 W/m 18,5 C 23,6 C 0,0 km/h (0 Bft) 97,87 %
30.07.2017 21:28 23,5 C 24,4 C 74 % 1011,9 hPa 0,0 l/m 0,0 km/h (0 Bft) O 98 0 min 0,000 mm 0,0 UV-I 0 W/m 18,6 C 23,5 C 0,0 km/h (0 Bft) 95,74 %
30.07.2017 21:30 23,4 C 24,4 C 74 % 1011,9 hPa 0,0 l/m 0,0 km/h (0 Bft) O 98 0 min 0,000 mm 0,0 UV-I 0 W/m 18,5 C 23,4 C 0,0 km/h (0 Bft) 97,87 %
30.07.2017 21:32 23,2 C 24,4 C 75 % 1011,9 hPa 0,0 l/m 0,0 km/h (0 Bft) O 98 0 min 0,000 mm 0,0 UV-I 0 W/m 18,5 C 23,2 C 0,0 km/h (0 Bft) 100,00 %
30.07.2017 21:34 23,0 C 24,4 C 76 % 1011,9 hPa 0,0 l/m 1,4 km/h (1 Bft) O 98 0 min 0,000 mm 0,0 UV-I 0 W/m 18,5 C 23,0 C 3,2 km/h (1 Bft) 93,62 %
30.07.2017 21:36 22,9 C 24,4 C 76 % 1011,9 hPa 0,0 l/m 1,5 km/h (1 Bft) O 98 0 min 0,000 mm 0,0 UV-I 0 W/m 18,4 C 22,9 C 3,2 km/h (1 Bft) 100,00 %
30.07.2017 21:38 22,9 C 24,4 C 76 % 1011,9 hPa 0,0 l/m 0,3 km/h (0 Bft) O 98 0 min 0,000 mm 0,0 UV-I 0 W/m 18,4 C 22,9 C 1,6 km/h (1 Bft) 97,87 %
30.07.2017 21:40 22,9 C 24,4 C 77 % 1011,9 hPa 0,0 l/m 0,5 km/h (0 Bft) O 98 0 min 0,000 mm 0,0 UV-I 0 W/m 18,6 C 22,9 C 1,6 km/h (1 Bft) 95,74 %
30.07.2017 21:42 23,0 C 24,4 C 76 % 1011,9 hPa 0,0 l/m 0,3 km/h (0 Bft) O 98 0 min 0,000 mm 0,0 UV-I 0 W/m 18,5 C 23,0 C 1,6 km/h (1 Bft) 97,87 %
30.07.2017 21:44 23,0 C 24,4 C 76 % 1011,9 hPa 0,0 l/m 0,5 km/h (0 Bft) O 98 0 min 0,000 mm 0,0 UV-I 0 W/m 18,5 C 23,0 C 3,2 km/h (1 Bft) 93,62 %
30.07.2017 21:46 23,0 C 24,4 C 76 % 1012,0 hPa 0,0 l/m 2,1 km/h (1 Bft) O 98 0 min 0,000 mm 0,0 UV-I 0 W/m 18,5 C 23,0 C 3,2 km/h (1 Bft) 93,62 %
30.07.2017 21:48 22,9 C 24,4 C 77 % 1012,0 hPa 0,0 l/m 4,1 km/h (1 Bft) S-SW 200 0 min 0,000 mm 0,0 UV-I 0 W/m 18,6 C 22,9 C 6,4 km/h (2 Bft) 93,62 %
30.07.2017 21:50 22,8 C 24,4 C 77 % 1012,0 hPa 0,0 l/m 3,8 km/h (1 Bft) S-SW 200 0 min 0,000 mm 0,0 UV-I 0 W/m 18,5 C 22,8 C 4,8 km/h (1 Bft) 100,00 %
30.07.2017 21:52 22,7 C 24,4 C 78 % 1012,0 hPa 0,0 l/m 2,9 km/h (1 Bft) S-SW 200 0 min 0,000 mm 0,0 UV-I 0 W/m 18,7 C 22,7 C 6,4 km/h (2 Bft) 100,00 %
30.07.2017 21:54 22,6 C 24,4 C 78 % 1012,0 hPa 0,0 l/m 2,8 km/h (1 Bft) S-SO 157 0 min 0,000 mm 0,0 UV-I 0 W/m 18,6 C 22,6 C 8,0 km/h (2 Bft) 95,74 %
30.07.2017 21:56 22,4 C 24,4 C 78 % 1012,0 hPa 0,0 l/m 5,9 km/h (2 Bft) SO 126 0 min 0,000 mm 0,0 UV-I 0 W/m 18,4 C 22,4 C 6,4 km/h (2 Bft) 92,00 %
30.07.2017 21:58 22,3 C 24,4 C 78 % 1012,0 hPa 0,0 l/m 5,8 km/h (2 Bft) SO 126 0 min 0,000 mm 0,0 UV-I 0 W/m 18,3 C 22,3 C 6,4 km/h (2 Bft) 91,49 %
30.07.2017 22:00 22,3 C 24,4 C 79 % 1011,9 hPa 0,0 l/m 5,3 km/h (1 Bft) SO 126 0 min 0,000 mm 0,0 UV-I 0 W/m 18,5 C 22,3 C 6,4 km/h (2 Bft) 94,74 %
30.07.2017 22:02 22,2 C 24,4 C 79 % 1012,0 hPa 0,0 l/m 3,9 km/h (1 Bft) SO 126 0 min 0,025 mm 0,0 UV-I 0 W/m 18,4 C 22,2 C 6,4 km/h (2 Bft) 94,00 %
30.07.2017 22:04 22,3 C 24,4 C 79 % 1012,0 hPa 0,0 l/m 1,7 km/h (1 Bft) SO 126 0 min 0,000 mm 0,0 UV-I 0 W/m 18,5 C 22,3 C 3,2 km/h (1 Bft) 97,87 %
30.07.2017 22:06 22,4 C 24,4 C 78 % 1012,0 hPa 0,0 l/m 0,0 km/h (0 Bft) SO 126 0 min 0,000 mm 0,0 UV-I 0 W/m 18,4 C 22,4 C 0,0 km/h (0 Bft) 91,49 %
30.07.2017 22:08 22,4 C 24,4 C 78 % 1012,1 hPa 0,0 l/m 0,0 km/h (0 Bft) SO 126 0 min 0,000 mm 0,0 UV-I 0 W/m 18,4 C 22,4 C 0,0 km/h (0 Bft) 89,36 %
30.07.2017 22:10 22,5 C 24,4 C 78 % 1012,1 hPa 0,0 l/m 0,6 km/h (0 Bft) SO 126 0 min 0,000 mm 0,0 UV-I 0 W/m 18,5 C 22,5 C 3,2 km/h (1 Bft) 95,74 %
30.07.2017 22:12 22,5 C 24,4 C 78 % 1012,1 hPa 0,0 l/m 0,5 km/h (0 Bft) SO 126 0 min 0,000 mm 0,0 UV-I 0 W/m 18,5 C 22,5 C 1,6 km/h (1 Bft) 96,00 %
30.07.2017 22:14 22,4 C 24,4 C 79 % 1012,1 hPa 0,0 l/m 0,0 km/h (0 Bft) SO 126 0 min 0,000 mm 0,0 UV-I 0 W/m 18,6 C 22,4 C 0,0 km/h (0 Bft) 97,44 %
30.07.2017 22:16 22,2 C 24,4 C 79 % 1012,1 hPa 0,0 l/m 0,0 km/h (0 Bft) SO 126 0 min 0,000 mm 0,0 UV-I 0 W/m 18,4 C 22,2 C 0,0 km/h (0 Bft) 93,62 %
30.07.2017 22:18 22,1 C 24,4 C 80 % 1012,1 hPa 0,0 l/m 0,2 km/h (0 Bft) SO 126 0 min 0,000 mm 0,0 UV-I 0 W/m 18,5 C 22,1 C 1,6 km/h (1 Bft) 94,00 %
30.07.2017 22:20 21,9 C 23,9 C 81 % 1012,1 hPa 0,0 l/m 0,2 km/h (0 Bft) SO 126 0 min 0,000 mm 0,0 UV-I 0 W/m 18,5 C 21,9 C 1,6 km/h (1 Bft) 96,15 %
30.07.2017 22:22 21,8 C 23,9 C 81 % 1012,2 hPa 0,0 l/m 0,7 km/h (0 Bft) SO 127 0 min 0,000 mm 0,0 UV-I 0 W/m 18,4 C 21,8 C 1,6 km/h (1 Bft) 92,11 %
30.07.2017 22:24 21,9 C 24,4 C 80 % 1012,1 hPa 0,0 l/m 1,4 km/h (1 Bft) SO 127 0 min 0,000 mm 0,0 UV-I 0 W/m 18,3 C 21,9 C 3,2 km/h (1 Bft) 97,14 %
30.07.2017 22:26 22,0 C 23,9 C 80 % 1012,2 hPa 0,0 l/m 1,9 km/h (1 Bft) SO 127 0 min 0,000 mm 0,0 UV-I 0 W/m 18,4 C 22,0 C 3,2 km/h (1 Bft) 96,92 %
30.07.2017 22:28 22,1 C 23,9 C 80 % 1012,2 hPa 0,0 l/m 0,8 km/h (0 Bft) SO 127 0 min 0,000 mm 0,0 UV-I 0 W/m 18,5 C 22,1 C 1,6 km/h (1 Bft) 98,00 %
30.07.2017 22:30 22,0 C 23,9 C 80 % 1012,3 hPa 0,0 l/m 0,1 km/h (0 Bft) SO 127 0 min 0,000 mm 0,0 UV-I 0 W/m 18,4 C 22,0 C 1,6 km/h (1 Bft) 97,30 %
30.07.2017 22:32 22,1 C 23,9 C 80 % 1012,3 hPa 0,0 l/m 0,0 km/h (0 Bft) SO 127 0 min 0,000 mm 0,0 UV-I 0 W/m 18,5 C 22,1 C 0,0 km/h (0 Bft) 93,62 %
30.07.2017 22:34 22,0 C 23,9 C 81 % 1012,4 hPa 0,0 l/m 0,0 km/h (0 Bft) SO 127 0 min 0,000 mm 0,0 UV-I 0 W/m 18,6 C 22,0 C 0,0 km/h (0 Bft) 97,87 %
30.07.2017 22:36 21,9 C 23,9 C 81 % 1012,4 hPa 0,0 l/m 0,0 km/h (0 Bft) SO 127 0 min 0,000 mm 0,0 UV-I 0 W/m 18,5 C 21,9 C 0,0 km/h (0 Bft) 100,00 %
30.07.2017 22:38 21,8 C 23,9 C 81 % 1012,5 hPa 0,0 l/m 0,7 km/h (0 Bft) SO 127 0 min 0,000 mm 0,0 UV-I 0 W/m 18,4 C 21,8 C 3,2 km/h (1 Bft) 97,87 %
30.07.2017 22:40 21,7 C 23,9 C 82 % 1012,4 hPa 0,0 l/m 2,1 km/h (1 Bft) SO 127 0 min 0,000 mm 0,0 UV-I 0 W/m 18,5 C 21,7 C 3,2 km/h (1 Bft) 100,00 %
30.07.2017 22:42 21,6 C 23,9 C 82 % 1012,5 hPa 0,0 l/m 1,8 km/h (1 Bft) SO 127 0 min 0,000 mm 0,0 UV-I 0 W/m 18,4 C 21,6 C 3,2 km/h (1 Bft) 100,00 %
30.07.2017 22:44 21,6 C 23,9 C 82 % 1012,5 hPa 0,0 l/m 1,7 km/h (1 Bft) SO 127 0 min 0,000 mm 0,0 UV-I 0 W/m 18,4 C 21,6 C 3,2 km/h (1 Bft) 98,00 %
30.07.2017 22:46 21,5 C 23,9 C 82 % 1012,5 hPa 0,0 l/m 2,0 km/h (1 Bft) SO 127 0 min 0,000 mm 0,0 UV-I 0 W/m 18,3 C 21,5 C 3,2 km/h (1 Bft) 100,00 %
30.07.2017 22:48 21,5 C 23,9 C 83 % 1012,6 hPa 0,0 l/m 3,5 km/h (1 Bft) S-SW 204 0 min 0,000 mm 0,0 UV-I 0 W/m 18,5 C 21,5 C 4,8 km/h (1 Bft) 98,00 %
30.07.2017 22:50 21,4 C 23,9 C 83 % 1012,6 hPa 0,0 l/m 4,3 km/h (1 Bft) W-SW 240 0 min 0,000 mm 0,0 UV-I 0 W/m 18,4 C 21,4 C 4,8 km/h (1 Bft) 100,00 %
30.07.2017 22:52 21,4 C 23,9 C 83 % 1012,7 hPa 0,0 l/m 4,6 km/h (1 Bft) W-SW 246 0 min 0,000 mm 0,0 UV-I 0 W/m 18,4 C 21,4 C 6,4 km/h (2 Bft) 95,74 %
30.07.2017 22:54 21,3 C 23,9 C 83 % 1012,8 hPa 0,0 l/m 1,8 km/h (1 Bft) W-NW 303 0 min 0,000 mm 0,0 UV-I 0 W/m 18,3 C 21,3 C 4,8 km/h (1 Bft) 95,83 %
30.07.2017 22:56 21,3 C 23,9 C 83 % 1012,9 hPa 0,0 l/m 1,3 km/h (1 Bft) NW 320 0 min 0,000 mm 0,0 UV-I 0 W/m 18,3 C 21,3 C 4,8 km/h (1 Bft) 100,00 %
30.07.2017 22:58 21,2 C 23,9 C 83 % 1012,9 hPa 0,0 l/m 1,4 km/h (1 Bft) S 180 0 min 0,000 mm 0,0 UV-I 0 W/m 18,2 C 21,2 C 4,8 km/h (1 Bft) 95,74 %
30.07.2017 23:00 21,3 C 23,9 C 82 % 1012,8 hPa 0,0 l/m 2,7 km/h (1 Bft) S 180 0 min 0,000 mm 0,0 UV-I 0 W/m 18,1 C 21,3 C 4,8 km/h (1 Bft) 100,00 %
30.07.2017 23:02 21,6 C 23,9 C 80 % 1012,8 hPa 0,0 l/m 3,5 km/h (1 Bft) S 187 0 min 0,000 mm 0,0 UV-I 0 W/m 18,0 C 21,6 C 4,8 km/h (1 Bft) 98,00 %
30.07.2017 23:04 21,8 C 23,9 C 79 % 1012,9 hPa 0,0 l/m 4,5 km/h (1 Bft) S-SW 212 0 min 0,000 mm 0,0 UV-I 0 W/m 18,0 C 21,8 C 8,0 km/h (2 Bft) 100,00 %
30.07.2017 23:06 22,0 C 23,9 C 78 % 1012,8 hPa 0,0 l/m 2,7 km/h (1 Bft) SW 217 0 min 0,000 mm 0,0 UV-I 0 W/m 18,0 C 22,0 C 4,8 km/h (1 Bft) 97,87 %
30.07.2017 23:08 22,2 C 23,9 C 76 % 1012,8 hPa 0,0 l/m 2,3 km/h (1 Bft) SW 217 0 min 0,000 mm 0,0 UV-I 0 W/m 17,8 C 22,2 C 4,8 km/h (1 Bft) 97,87 %
30.07.2017 23:10 22,3 C 23,9 C 76 % 1012,9 hPa 0,0 l/m 1,6 km/h (1 Bft) SW 217 0 min 0,000 mm 0,0 UV-I 0 W/m 17,9 C 22,3 C 3,2 km/h (1 Bft) 97,87 %
30.07.2017 23:12 22,4 C 23,9 C 76 % 1012,9 hPa 0,0 l/m 1,3 km/h (1 Bft) S-SW 200 0 min 0,000 mm 0,0 UV-I 0 W/m 18,0 C 22,4 C 3,2 km/h (1 Bft) 97,87 %
30.07.2017 23:14 22,4 C 23,9 C 75 % 1012,9 hPa 0,0 l/m 0,9 km/h (0 Bft) S-SW 200 0 min 0,000 mm 0,0 UV-I 0 W/m 17,7 C 22,4 C 3,2 km/h (1 Bft) 97,87 %
30.07.2017 23:16 22,4 C 23,9 C 75 % 1012,9 hPa 0,0 l/m 1,3 km/h (1 Bft) S-SW 200 0 min 0,000 mm 0,0 UV-I 0 W/m 17,7 C 22,4 C 3,2 km/h (1 Bft) 100,00 %
30.07.2017 23:18 22,4 C 23,9 C 76 % 1012,9 hPa 0,0 l/m 0,6 km/h (0 Bft) S-SW 200 0 min 0,000 mm 0,0 UV-I 0 W/m 18,0 C 22,4 C 1,6 km/h (1 Bft) 95,74 %
30.07.2017 23:20 22,2 C 23,9 C 76 % 1013,0 hPa 0,0 l/m 1,0 km/h (0 Bft) S-SW 200 0 min 0,000 mm 0,0 UV-I 0 W/m 17,8 C 22,2 C 3,2 km/h (1 Bft) 100,00 %
30.07.2017 23:23 21,8 C 23,9 C 78 % 1013,0 hPa 0,0 l/m 0,7 km/h (0 Bft) S-SW 200 0 min 0,000 mm 0,0 UV-I 0 W/m 17,8 C 21,8 C 3,2 km/h (1 Bft) 100,00 %
30.07.2017 23:24 21,7 C 23,9 C 78 % 1013,0 hPa 0,0 l/m 1,5 km/h (1 Bft) S-SW 200 0 min 0,000 mm 0,0 UV-I 0 W/m 17,7 C 21,7 C 3,2 km/h (1 Bft) 100,00 %
30.07.2017 23:26 21,6 C 23,9 C 79 % 1013,0 hPa 0,0 l/m 1,7 km/h (1 Bft) S-SW 193 0 min 0,000 mm 0,0 UV-I 0 W/m 17,8 C 21,6 C 3,2 km/h (1 Bft) 100,00 %
30.07.2017 23:28 21,6 C 23,9 C 79 % 1013,0 hPa 0,0 l/m 1,2 km/h (1 Bft) S-SW 192 0 min 0,000 mm 0,0 UV-I 0 W/m 17,8 C 21,6 C 3,2 km/h (1 Bft) 95,74 %
30.07.2017 23:30 21,5 C 23,9 C 79 % 1013,0 hPa 0,0 l/m 1,4 km/h (1 Bft) S 191 0 min 0,000 mm 0,0 UV-I 0 W/m 17,7 C 21,5 C 3,2 km/h (1 Bft) 97,92 %
30.07.2017 23:33 21,4 C 23,9 C 79 % 1013,1 hPa 0,0 l/m 2,9 km/h (1 Bft) S 185 0 min 0,000 mm 0,0 UV-I 0 W/m 17,6 C 21,4 C 4,8 km/h (1 Bft) 97,14 %
30.07.2017 23:34 21,3 C 23,9 C 80 % 1013,1 hPa 0,0 l/m 2,9 km/h (1 Bft) S 183 0 min 0,000 mm 0,0 UV-I 0 W/m 17,7 C 21,3 C 4,8 km/h (1 Bft) 100,00 %
30.07.2017 23:36 21,3 C 23,9 C 80 % 1013,1 hPa 0,0 l/m 3,0 km/h (1 Bft) S 183 0 min 0,000 mm 0,0 UV-I 0 W/m 17,7 C 21,3 C 4,8 km/h (1 Bft) 97,87 %
30.07.2017 23:38 21,4 C 23,9 C 79 % 1013,1 hPa 0,0 l/m 4,1 km/h (1 Bft) S 180 0 min 0,000 mm 0,0 UV-I 0 W/m 17,6 C 21,4 C 6,4 km/h (2 Bft) 97,87 %
30.07.2017 23:40 21,6 C 23,9 C 78 % 1013,1 hPa 0,0 l/m 5,0 km/h (1 Bft) S 190 0 min 0,000 mm 0,0 UV-I 0 W/m 17,6 C 21,6 C 8,0 km/h (2 Bft) 97,87 %
30.07.2017 23:42 21,7 C 23,9 C 77 % 1013,1 hPa 0,0 l/m 5,2 km/h (1 Bft) S 180 0 min 0,000 mm 0,0 UV-I 0 W/m 17,5 C 21,7 C 8,0 km/h (2 Bft) 97,87 %
30.07.2017 23:44 21,9 C 23,9 C 76 % 1013,2 hPa 0,0 l/m 6,6 km/h (2 Bft) S-SO 157 0 min 0,000 mm 0,0 UV-I 0 W/m 17,5 C 21,8 C 8,0 km/h (2 Bft) 97,87 %
30.07.2017 23:46 22,1 C 23,9 C 75 % 1013,2 hPa 0,0 l/m 6,9 km/h (2 Bft) SW 215 0 min 0,000 mm 0,0 UV-I 0 W/m 17,5 C 21,9 C 9,7 km/h (2 Bft) 97,87 %
30.07.2017 23:48 22,2 C 23,9 C 75 % 1013,4 hPa 0,0 l/m 7,1 km/h (2 Bft) S-SW 198 0 min 0,000 mm 0,0 UV-I 0 W/m 17,5 C 22,0 C 12,9 km/h (3 Bft) 100,00 %
30.07.2017 23:50 22,2 C 23,9 C 75 % 1013,5 hPa 0,0 l/m 7,9 km/h (2 Bft) S-SW 194 0 min 0,000 mm 0,0 UV-I 0 W/m 17,5 C 21,7 C 14,5 km/h (3 Bft) 97,87 %
30.07.2017 23:52 22,1 C 23,9 C 75 % 1013,6 hPa 0,0 l/m 10,1 km/h (2 Bft) S-SW 210 0 min 0,000 mm 0,0 UV-I 0 W/m 17,5 C 20,9 C 14,5 km/h (3 Bft) 97,87 %
30.07.2017 23:54 22,1 C 23,9 C 76 % 1013,5 hPa 0,0 l/m 10,7 km/h (2 Bft) S-SW 193 0 min 0,000 mm 0,0 UV-I 0 W/m 17,7 C 20,8 C 19,3 km/h (3 Bft) 95,74 %
30.07.2017 23:56 22,0 C 23,9 C 76 % 1013,6 hPa 0,0 l/m 9,0 km/h (2 Bft) SW 229 0 min 0,000 mm 0,0 UV-I 0 W/m 17,6 C 21,1 C 12,9 km/h (3 Bft) 94,74 %
30.07.2017 23:58 22,0 C 23,9 C 76 % 1013,6 hPa 0,0 l/m 7,7 km/h (2 Bft) W-SW 250 0 min 0,000 mm 0,0 UV-I 0 W/m 17,6 C 21,6 C 12,9 km/h (3 Bft) 97,87 %
_ Min-Zeit 05:34 04:00 18:10 17:40 - 00:10 - - - - - - 05:34 05:34 00:12 00:02
Minimum _ 14,8 C 21,1 C 39 % 1010,6 hPa - 0,0 km/h (0 Bft) - - - - - - 13,8 C 14,8 C 0,0 km/h (0 Bft) 9,52 %
_ Max-Zeit 17:08 16:56 05:02 00:00 00:00 13:42 - - 05:50 15:02 12:54 13:54 13:08 17:08 12:58 00:00
Maximum _ 31,0 C 24,4 C 95 % 1013,7 hPa 0,0 l/m 14,9 km/h
S-SW (3 Bft)
- - 2 min 0,585 mm 6,5 UV-I 886 W/m 20,6 C 31,0 C 20,9 km/h
SW (4 Bft)
100,00 %
Durchschnitt _ 22,8 C 22,7 C 72 % 1012,2 hPa #0,0 l/m 2,5 km/h (1 Bft) W-SW - #12:38 h #5,207 mm 3,7 UV-I 477 W/m 16,8 C 22,8 C 5,1 km/h (1 Bft) 96,53 %